[[{"header":{"parameterUnit":"m.s-1","parameterCategory":1,"la1":31.0,"la2":29.5877,"lo1":-88.7671,"lo2":-86.6584,"dy":0.0162,"dx":0.0185,"nx":115,"ny":88,"refTime":"2026-03-15T12:00:00:Z","depth":0,"parameterNumber":2,"parameterNumberName":"U-component_of_WINDS"},"data":[0.0,0.0,0.0,0.0,0.0,0.0,0.0,0.0,0.0,0.0,0.0,0.0,0.0,0.0,0.0,0.0,0.0,0.0,0.0,0.0,0.0,0.0,0.0,0.0,0.0,0.0,0.0,0.0,0.0,0.0,0.0,0.0,0.0,0.0,0.0,0.0,0.0,0.0,0.0,0.0,0.0,0.0,0.0,0.0,0.0,0.0,0.0,0.0,0.0,0.0,0.0,0.0,0.0,0.0,0.0,0.0,0.0,0.0,0.0,0.0,0.0,0.0,0.0,0.0,0.0,0.0,0.0,0.0,0.0,0.0,0.0,0.0,0.0,0.0,0.0,0.0,0.0,0.0,0.0,0.0,0.0,0.0,0.0,0.0,0.0,0.0,0.0,0.0,0.0,0.0,0.0,0.0,0.0,0.0,0.0,0.0,0.0,0.0,0.0,0.0,0.0,0.0,0.0,0.0,0.0,0.0,0.0,0.0,0.0,0.0,0.0,0.0,0.0,0.0,0.0,0.0,0.0,0.0,0.0,0.0,0.0,0.0,0.0,0.0,0.0,0.0,0.0,0.0,0.0,0.0,0.0,0.0,0.0,0.0,0.0,0.0,0.0,0.0,0.0,0.0,0.0,0.0,0.0,0.0,0.0,0.0,0.0,0.0,0.0,0.0,0.0,0.0,0.0,0.0,0.0,0.0,0.0,0.0,0.0,0.0,0.0,0.0,0.0,0.0,0.0,0.0,0.0,0.0,0.0,0.0,0.0,0.0,0.0,0.0,0.0,0.0,0.0,0.0,0.0,0.0,0.0,0.0,0.0,0.0,0.0,0.0,0.0,0.0,0.0,0.0,0.0,0.0,0.0,0.0,0.0,0.0,0.0,0.0,0.0,0.0,0.0,0.0,0.0,0.0,0.0,0.0,0.0,0.0,0.0,0.0,0.0,0.0,0.0,0.0,0.0,0.0,0.0,0.0,0.0,0.0,0.0,0.0,0.0,0.0,0.0,0.0,0.0,0.0,0.0,0.0,0.0,0.0,0.0,0.0,0.0,0.0,0.0,0.0,0.0,0.0,0.0,0.0,0.0,0.0,0.0,0.0,0.0,0.0,0.0,0.0,0.0,0.0,0.0,0.0,0.0,0.0,0.0,0.0,0.0,0.0,0.0,0.0,0.0,0.0,0.0,0.0,0.0,0.0,0.0,0.0,0.0,0.0,0.0,0.0,0.0,0.0,0.0,0.0,0.0,0.0,0.0,0.0,0.0,0.0,0.0,0.0,0.0,0.0,0.0,0.0,0.0,0.0,0.0,0.0,0.0,0.0,0.0,0.0,0.0,0.0,0.0,0.0,0.0,0.0,0.0,0.0,0.0,0.0,0.0,0.0,0.0,0.0,0.0,0.0,0.0,0.0,0.0,0.0,0.0,0.0,0.0,0.0,0.0,0.0,0.0,0.0,0.0,0.0,0.0,0.0,0.0,0.0,0.0,0.0,0.0,0.0,0.0,0.0,0.0,0.0,0.0,0.0,0.0,0.0,0.0,0.0,0.0,0.0,0.0,0.0,0.0,0.0,0.0,0.0,0.0,0.0,0.0,0.0,0.0,0.0,0.0,0.0,0.0,0.0,0.0,0.0,0.0,0.0,0.0,0.0,0.0,0.0,0.0,0.0,0.0,0.0,0.0,0.0,0.0,0.0,0.0,0.0,0.0,0.0,0.0,0.0,0.0,0.0,0.0,0.0,0.0,0.0,0.0,0.0,0.0,0.0,0.0,0.0,0.0,0.0,0.0,0.0,0.0,0.0,0.0,0.0,0.0,0.0,0.0,0.0,0.0,0.0,0.0,0.0,0.0,0.0,0.0,0.0,0.0,0.0,0.0,0.0,0.0,0.0,0.0,0.0,0.0,0.0,0.0,0.0,0.0,0.0,0.0,0.0,0.0,0.0,0.0,0.0,0.0,0.0,0.0,0.0,0.0,0.0,0.0,0.0,0.0,0.0,0.0,0.0,0.0,0.0,0.0,0.0,0.0,0.0,0.0,0.0,0.0,0.0,0.0,0.0,0.0,0.0,0.0,0.0,0.0,0.0,0.0,0.0,0.0,0.0,0.0,0.0,0.0,0.0,0.0,0.0,0.0,0.0,0.0,0.0,0.0,0.0,0.0,0.0,0.0,0.0,0.0,0.0,0.0,0.0,0.0,0.0,0.0,0.0,0.0,0.0,0.0,0.0,0.0,0.0,0.0,0.0,0.0,0.0,0.0,0.0,0.0,0.0,0.0,0.0,0.0,0.0,0.0,0.0,0.0,0.0,0.0,0.0,0.0,0.0,0.0,0.0,0.0,0.0,0.0,0.0,0.0,0.0,0.0,0.0,0.0,0.0,0.0,0.0,0.0,0.0,0.0,0.0,0.0,0.0,0.0,0.0,0.0,0.0,0.0,0.0,0.0,0.0,0.0,0.0,0.0,0.0,0.0,0.0,0.0,0.0,0.0,0.0,0.0,0.0,0.0,0.0,0.0,0.0,0.0,0.0,0.0,0.0,0.0,0.0,0.0,0.0,0.0,0.0,0.0,0.0,0.0,0.0,0.0,0.0,0.0,0.0,0.0,0.0,0.0,0.0,0.0,0.0,0.0,0.0,0.0,0.0,0.0,0.0,0.0,0.0,0.0,0.0,0.0,0.0,0.0,0.0,0.0,0.0,0.0,0.0,0.0,0.0,0.0,0.0,0.0,0.0,0.0,0.0,0.0,0.0,0.0,0.0,0.0,0.0,0.0,0.0,0.0,0.0,0.0,0.0,0.0,0.0,0.0,0.0,0.0,0.0,0.0,0.0,0.0,0.0,0.0,0.0,0.0,0.0,0.0,0.0,0.0,0.0,0.0,0.0,0.0,0.0,0.0,0.0,0.0,0.0,0.0,0.0,0.0,0.0,0.0,0.0,0.0,0.0,0.0,0.0,0.0,0.0,0.0,0.0,0.0,0.0,0.0,0.0,0.0,0.0,0.0,0.0,0.0,0.0,0.0,0.0,0.0,0.0,0.0,0.0,0.0,0.0,0.0,0.0,0.0,0.0,0.0,0.0,0.0,0.0,0.0,0.0,0.0,0.0,0.0,0.0,0.0,0.0,0.0,0.0,0.0,0.0,0.0,0.0,0.0,0.0,0.0,0.0,0.0,0.0,0.0,0.0,0.0,0.0,0.0,0.0,0.0,0.0,0.0,0.0,0.0,0.0,0.0,0.0,0.0,0.0,0.0,0.0,0.0,0.0,0.0,0.0,0.0,0.0,0.0,0.0,0.0,0.0,0.0,0.0,0.0,0.0,0.0,0.0,0.0,0.0,0.0,0.0,0.0,0.0,0.0,0.0,0.0,0.0,0.0,0.0,0.0,0.0,0.0,0.0,0.0,0.0,0.0,0.0,0.0,0.0,0.0,0.0,0.0,0.0,0.0,0.0,0.0,0.0,0.0,0.0,0.0,0.0,0.0,0.0,0.0,0.0,0.0,0.0,0.0,0.0,0.0,0.0,0.0,0.0,0.0,0.0,0.0,0.0,0.0,0.0,0.0,0.0,0.0,0.0,0.0,0.0,0.0,0.0,0.0,0.0,0.0,0.0,0.0,0.0,0.0,0.0,0.0,0.0,0.0,0.0,0.0,0.0,0.0,0.0,0.0,0.0,0.0,0.0,0.0,0.0,0.0,0.0,0.0,0.0,0.0,0.0,0.0,0.0,0.0,0.0,0.0,0.0,0.0,0.0,0.0,0.0,0.0,0.0,0.0,0.0,0.0,0.0,0.0,0.0,0.0,0.0,0.0,0.0,0.0,0.0,0.0,0.0,0.0,0.0,0.0,0.0,0.0,0.0,0.0,0.0,0.0,0.0,0.0,0.0,0.0,0.0,0.0,0.0,0.0,0.0,0.0,0.0,0.0,0.0,0.0,0.0,0.0,0.0,0.0,0.0,0.0,0.0,0.0,0.0,0.0,0.0,0.0,0.0,0.0,0.0,0.0,0.0,0.0,0.0,0.0,0.0,0.0,0.0,0.0,0.0,0.0,0.0,0.0,0.0,0.0,0.0,0.0,0.0,0.0,0.0,0.0,0.0,0.0,0.0,0.0,0.0,0.0,0.0,0.0,0.0,0.0,0.0,0.0,0.0,0.0,0.0,0.0,0.0,0.0,0.0,0.0,0.0,0.0,0.0,0.0,0.0,0.0,0.0,0.0,0.0,0.0,0.0,0.0,0.0,0.0,0.0,0.0,0.0,0.0,0.0,0.0,0.0,0.0,0.0,0.0,0.0,3.0006,0.0,0.0,0.0,0.0,0.0,0.0,0.0,0.0,0.0,0.0,0.0,0.0,0.0,0.0,0.0,0.0,0.0,0.0,0.0,0.0,0.0,0.0,0.0,0.0,0.0,0.0,0.0,0.0,0.0,0.0,0.0,0.0,0.0,0.0,0.0,0.0,0.0,0.0,0.0,0.0,0.0,0.0,0.0,0.0,0.0,0.0,0.0,0.0,0.0,0.0,0.0,0.0,0.0,0.0,0.0,0.0,0.0,0.0,0.0,0.0,0.0,0.0,0.0,0.0,0.0,0.0,0.0,0.0,0.0,0.0,0.0,0.0,0.0,0.0,0.0,0.0,0.0,0.0,0.0,0.0,0.0,0.0,0.0,0.0,0.0,0.0,0.0,0.0,0.0,0.0,0.0,0.0,0.0,0.0,0.0,0.0,0.0,0.0,0.0,0.0,0.0,0.0,0.0,0.0,0.0,0.0,0.0,0.0,0.0,0.0,3.1935,3.1224,3.1901,3.1596,3.0176,0.0,0.0,0.0,0.0,0.0,0.0,0.0,0.0,0.0,0.0,0.0,0.0,0.0,0.0,0.0,0.0,0.0,0.0,0.0,0.0,0.0,0.0,0.0,0.0,0.0,0.0,0.0,0.0,0.0,0.0,0.0,0.0,0.0,0.0,0.0,0.0,0.0,0.0,0.0,0.0,0.0,0.0,0.0,0.0,0.0,0.0,0.0,0.0,0.0,0.0,0.0,0.0,0.0,0.0,0.0,0.0,0.0,0.0,0.0,0.0,0.0,0.0,0.0,0.0,0.0,0.0,0.0,0.0,0.0,0.0,0.0,0.0,0.0,0.0,0.0,0.0,0.0,0.0,0.0,0.0,0.0,0.0,0.0,0.0,0.0,0.0,0.0,0.0,0.0,0.0,0.0,0.0,0.0,0.0,0.0,0.0,0.0,0.0,0.0,0.0,0.0,0.0,0.0,0.0,0.0,0.0,0.0,0.0,0.0,0.0,0.0,0.0,3.3146,3.2877,3.1151,0.0,0.0,0.0,0.0,0.0,0.0,0.0,0.0,0.0,0.0,0.0,0.0,0.0,0.0,0.0,0.0,0.0,0.0,0.0,0.0,0.0,0.0,0.0,0.0,0.0,0.0,0.0,0.0,0.0,0.0,0.0,0.0,0.0,0.0,0.0,0.0,0.0,0.0,0.0,0.0,0.0,0.0,0.0,0.0,0.0,0.0,0.0,0.0,0.0,0.0,0.0,0.0,0.0,0.0,0.0,0.0,0.0,0.0,0.0,0.0,0.0,0.0,0.0,0.0,0.0,0.0,0.0,0.0,0.0,0.0,0.0,0.0,0.0,0.0,0.0,0.0,0.0,0.0,0.0,0.0,0.0,0.0,0.0,0.0,0.0,0.0,0.0,0.0,0.0,0.0,0.0,0.0,0.0,0.0,0.0,0.0,0.0,0.0,0.0,0.0,0.0,0.0,0.0,0.0,0.0,0.0,0.0,0.0,0.0,0.0,3.4259,3.4841,3.6829,0.0,3.4181,0.0,0.0,0.0,0.0,0.0,0.0,0.0,0.0,0.0,0.0,0.0,0.0,0.0,0.0,0.0,0.0,0.0,0.0,0.0,0.0,0.0,0.0,0.0,0.0,0.0,0.0,0.0,0.0,0.0,0.0,0.0,0.0,0.0,0.0,0.0,0.0,0.0,0.0,0.0,0.0,0.0,0.0,0.0,0.0,0.0,0.0,0.0,0.0,0.0,0.0,0.0,0.0,0.0,0.0,0.0,0.0,0.0,0.0,0.0,0.0,0.0,0.0,0.0,0.0,0.0,0.0,0.0,0.0,0.0,0.0,0.0,0.0,0.0,0.0,0.0,0.0,0.0,0.0,0.0,0.0,0.0,0.0,0.0,0.0,0.0,0.0,0.0,0.0,0.0,0.0,0.0,0.0,0.0,0.0,0.0,0.0,0.0,0.0,0.0,0.0,0.0,0.0,0.0,0.0,0.0,0.0,0.0,0.0,0.0,0.0,3.5654,3.5744,3.6606,3.6324,0.0,0.0,0.0,0.0,0.0,0.0,0.0,0.0,0.0,0.0,0.0,0.0,0.0,0.0,0.0,0.0,0.0,0.0,0.0,0.0,0.0,0.0,0.0,0.0,0.0,0.0,0.0,0.0,0.0,0.0,0.0,0.0,0.0,0.0,0.0,0.0,0.0,0.0,0.0,0.0,0.0,0.0,0.0,0.0,0.0,0.0,0.0,0.0,0.0,0.0,0.0,0.0,0.0,0.0,0.0,0.0,0.0,0.0,0.0,0.0,0.0,0.0,0.0,0.0,0.0,0.0,0.0,0.0,0.0,0.0,0.0,0.0,0.0,0.0,0.0,0.0,0.0,0.0,0.0,0.0,0.0,0.0,0.0,0.0,0.0,0.0,0.0,0.0,0.0,0.0,0.0,0.0,0.0,0.0,0.0,0.0,0.0,0.0,0.0,0.0,0.0,0.0,0.0,0.0,0.0,0.0,0.0,0.0,0.0,0.0,3.5917,0.0,3.7756,3.7362,3.6396,3.4863,0.0,0.0,0.0,0.0,0.0,0.0,0.0,0.0,0.0,0.0,0.0,0.0,0.0,0.0,0.0,0.0,0.0,0.0,0.0,0.0,0.0,0.0,0.0,0.0,0.0,0.0,0.0,0.0,0.0,0.0,0.0,0.0,0.0,0.0,0.0,0.0,0.0,0.0,0.0,0.0,0.0,0.0,0.0,0.0,0.0,0.0,0.0,0.0,0.0,0.0,0.0,0.0,0.0,0.0,0.0,0.0,0.0,0.0,0.0,0.0,0.0,0.0,0.0,0.0,0.0,0.0,0.0,0.0,0.0,0.0,0.0,0.0,0.0,0.0,0.0,0.0,0.0,0.0,0.0,0.0,0.0,0.0,0.0,0.0,0.0,0.0,0.0,0.0,0.0,0.0,0.0,0.0,0.0,0.0,0.0,0.0,0.0,0.0,0.0,0.0,0.0,0.0,0.0,0.0,0.0,0.0,0.0,0.0,0.0,3.8295,3.9254,4.1852,4.0565,3.8099,0.0,0.0,0.0,0.0,0.0,0.0,0.0,0.0,0.0,0.0,0.0,0.0,0.0,0.0,0.0,0.0,0.0,0.0,0.0,0.0,0.0,0.0,0.0,0.0,0.0,0.0,0.0,0.0,0.0,0.0,0.0,0.0,0.0,0.0,0.0,0.0,0.0,0.0,0.0,0.0,0.0,0.0,0.0,0.0,0.0,0.0,0.0,0.0,0.0,0.0,0.0,0.0,0.0,0.0,0.0,0.0,0.0,0.0,0.0,0.0,0.0,0.0,0.0,0.0,0.0,0.0,0.0,0.0,0.0,0.0,0.0,0.0,0.0,0.0,0.0,0.0,0.0,0.0,0.0,0.0,0.0,0.0,0.0,0.0,0.0,0.0,0.0,0.0,0.0,0.0,0.0,0.0,0.0,0.0,0.0,0.0,0.0,0.0,0.0,0.0,0.0,0.0,0.0,0.0,0.0,0.0,0.0,0.0,0.0,3.6109,3.7693,4.043,4.4268,4.0047,3.7454,0.0,0.0,0.0,0.0,0.0,0.0,0.0,0.0,0.0,0.0,0.0,0.0,0.0,0.0,0.0,0.0,0.0,0.0,0.0,0.0,0.0,0.0,0.0,0.0,0.0,0.0,0.0,0.0,0.0,0.0,0.0,0.0,0.0,0.0,0.0,0.0,0.0,0.0,0.0,0.0,0.0,0.0,0.0,0.0,0.0,0.0,0.0,0.0,0.0,0.0,0.0,0.0,0.0,0.0,0.0,0.0,0.0,0.0,0.0,0.0,0.0,0.0,0.0,0.0,0.0,0.0,0.0,0.0,0.0,0.0,0.0,0.0,0.0,0.0,0.0,0.0,0.0,0.0,0.0,0.0,0.0,0.0,0.0,0.0,0.0,0.0,0.0,0.0,0.0,0.0,0.0,0.0,0.0,0.0,0.0,0.0,0.0,0.0,0.0,0.0,0.0,0.0,0.0,0.0,0.0,0.0,0.0,0.0,0.0,3.6531,0.0,4.1846,0.0,4.0157,3.7404,0.0,0.0,0.0,0.0,0.0,0.0,0.0,0.0,0.0,0.0,0.0,0.0,0.0,0.0,0.0,0.0,0.0,0.0,0.0,0.0,0.0,0.0,0.0,0.0,0.0,0.0,0.0,0.0,0.0,0.0,0.0,0.0,0.0,0.0,0.0,0.0,0.0,0.0,0.0,0.0,0.0,0.0,0.0,0.0,0.0,0.0,0.0,0.0,0.0,0.0,0.0,0.0,0.0,0.0,0.0,0.0,0.0,0.0,0.0,0.0,0.0,0.0,0.0,0.0,0.0,0.0,0.0,0.0,0.0,0.0,0.0,0.0,0.0,0.0,0.0,0.0,0.0,0.0,0.0,0.0,0.0,0.0,0.0,0.0,0.0,0.0,0.0,0.0,0.0,0.0,0.0,0.0,0.0,0.0,0.0,0.0,0.0,0.0,0.0,0.0,0.0,0.0,0.0,0.0,0.0,0.0,0.0,0.0,3.5421,4.0789,4.3314,4.3534,4.1368,4.1075,3.8028,0.0,0.0,0.0,0.0,0.0,0.0,0.0,0.0,0.0,0.0,0.0,0.0,0.0,0.0,0.0,0.0,0.0,0.0,0.0,0.0,0.0,0.0,0.0,0.0,0.0,0.0,0.0,0.0,0.0,0.0,0.0,0.0,0.0,0.0,0.0,0.0,0.0,0.0,0.0,0.0,0.0,0.0,0.0,0.0,0.0,0.0,0.0,0.0,0.0,0.0,0.0,0.0,0.0,0.0,0.0,0.0,0.0,0.0,0.0,0.0,0.0,0.0,0.0,0.0,0.0,0.0,0.0,0.0,0.0,0.0,0.0,0.0,0.0,0.0,0.0,0.0,0.0,0.0,0.0,0.0,0.0,0.0,0.0,0.0,0.0,0.0,0.0,0.0,0.0,0.0,0.0,0.0,0.0,0.0,0.0,0.0,0.0,0.0,0.0,0.0,0.0,0.0,0.0,0.0,0.0,0.0,0.0,0.0,0.0,4.1079,4.291,4.4856,4.6617,4.1479,3.8726,0.0,0.0,0.0,0.0,0.0,0.0,0.0,0.0,0.0,0.0,0.0,0.0,0.0,0.0,0.0,0.0,0.0,0.0,0.0,0.0,0.0,0.0,0.0,0.0,0.0,0.0,0.0,0.0,0.0,0.0,0.0,0.0,0.0,0.0,0.0,0.0,0.0,0.0,0.0,0.0,0.0,0.0,0.0,0.0,0.0,0.0,0.0,0.0,0.0,0.0,0.0,0.0,0.0,0.0,0.0,0.0,0.0,0.0,0.0,0.0,0.0,0.0,0.0,0.0,0.0,0.0,0.0,0.0,0.0,0.0,0.0,0.0,0.0,0.0,0.0,0.0,0.0,0.0,0.0,0.0,0.0,0.0,0.0,0.0,0.0,0.0,0.0,0.0,0.0,0.0,0.0,0.0,0.0,0.0,0.0,0.0,0.0,0.0,0.0,0.0,0.0,0.0,0.0,0.0,0.0,0.0,0.0,0.0,0.0,4.6104,4.7058,4.8159,4.9481,4.4305,4.1185,4.0451,0.0,0.0,0.0,0.0,0.0,0.0,0.0,0.0,0.0,0.0,0.0,0.0,0.0,0.0,0.0,0.0,0.0,0.0,0.0,0.0,0.0,0.0,0.0,0.0,0.0,0.0,0.0,0.0,0.0,0.0,0.0,0.0,0.0,0.0,0.0,0.0,0.0,0.0,0.0,0.0,0.0,0.0,0.0,0.0,0.0,0.0,0.0,0.0,0.0,0.0,0.0,0.0,0.0,0.0,0.0,0.0,0.0,0.0,0.0,0.0,0.0,0.0,0.0,0.0,0.0,0.0,0.0,0.0,0.0,0.0,0.0,0.0,0.0,0.0,0.0,0.0,0.0,0.0,0.0,0.0,0.0,0.0,0.0,0.0,0.0,0.0,0.0,0.0,0.0,0.0,0.0,0.0,0.0,0.0,0.0,0.0,0.0,0.0,0.0,0.0,0.0,0.0,0.0,0.0,0.0,0.0,0.0,0.0,5.4656,5.5097,5.3775,5.0545,4.915,4.5259,0.0,0.0,0.0,0.0,0.0,0.0,0.0,0.0,0.0,0.0,0.0,0.0,0.0,0.0,0.0,0.0,0.0,0.0,0.0,0.0,0.0,0.0,0.0,0.0,0.0,0.0,0.0,0.0,0.0,0.0,0.0,0.0,0.0,0.0,0.0,0.0,0.0,0.0,0.0,0.0,0.0,0.0,0.0,0.0,0.0,0.0,0.0,0.0,0.0,0.0,0.0,0.0,0.0,0.0,0.0,0.0,0.0,0.0,0.0,0.0,0.0,0.0,0.0,0.0,0.0,0.0,0.0,0.0,0.0,0.0,0.0,0.0,0.0,0.0,0.0,0.0,0.0,0.0,0.0,0.0,0.0,0.0,0.0,0.0,0.0,0.0,0.0,0.0,0.0,0.0,0.0,0.0,0.0,0.0,0.0,0.0,0.0,0.0,0.0,0.0,0.0,0.0,0.0,0.0,0.0,0.0,0.0,0.0,0.0,5.8731,6.3503,6.4163,6.0309,5.4289,4.9554,0.0,0.0,0.0,0.0,0.0,0.0,0.0,0.0,0.0,0.0,0.0,0.0,0.0,0.0,0.0,0.0,0.0,0.0,0.0,0.0,0.0,0.0,0.0,0.0,0.0,0.0,0.0,0.0,0.0,0.0,0.0,0.0,0.0,0.0,0.0,0.0,0.0,0.0,0.0,0.0,0.0,0.0,0.0,0.0,0.0,0.0,0.0,0.0,0.0,0.0,0.0,0.0,0.0,0.0,0.0,0.0,0.0,0.0,0.0,0.0,0.0,0.0,0.0,0.0,0.0,0.0,0.0,0.0,0.0,0.0,0.0,0.0,0.0,0.0,0.0,0.0,0.0,0.0,0.0,0.0,0.0,0.0,0.0,0.0,0.0,0.0,0.0,0.0,0.0,0.0,0.0,0.0,0.0,0.0,0.0,0.0,0.0,0.0,0.0,0.0,0.0,0.0,0.0,0.0,0.0,0.0,0.0,0.0,5.7776,6.3392,7.0146,7.2569,7.0257,6.2034,5.517,0.0,0.0,0.0,0.0,0.0,0.0,0.0,0.0,0.0,0.0,0.0,0.0,0.0,0.0,0.0,0.0,0.0,0.0,0.0,0.0,0.0,0.0,0.0,0.0,0.0,0.0,0.0,0.0,0.0,0.0,0.0,0.0,0.0,0.0,0.0,0.0,0.0,0.0,0.0,0.0,0.0,0.0,0.0,0.0,0.0,0.0,0.0,0.0,0.0,0.0,0.0,0.0,0.0,0.0,0.0,0.0,0.0,0.0,0.0,0.0,0.0,0.0,0.0,0.0,0.0,0.0,0.0,0.0,0.0,0.0,0.0,0.0,0.0,0.0,0.0,0.0,0.0,0.0,0.0,0.0,0.0,0.0,0.0,0.0,0.0,0.0,0.0,0.0,0.0,0.0,0.0,0.0,0.0,0.0,0.0,0.0,0.0,0.0,0.0,0.0,0.0,0.0,0.0,0.0,0.0,0.0,0.0,0.0,6.2365,6.8128,7.5249,7.8919,7.8589,7.0073,6.1006,0.0,0.0,0.0,0.0,0.0,0.0,0.0,0.0,0.0,0.0,0.0,0.0,0.0,0.0,0.0,0.0,0.0,0.0,0.0,0.0,0.0,0.0,0.0,0.0,0.0,0.0,0.0,0.0,0.0,0.0,0.0,0.0,0.0,0.0,0.0,0.0,0.0,0.0,0.0,0.0,0.0,0.0,0.0,0.0,0.0,0.0,0.0,0.0,0.0,0.0,0.0,0.0,0.0,0.0,0.0,0.0,0.0,0.0,0.0,0.0,0.0,0.0,0.0,0.0,0.0,0.0,0.0,0.0,0.0,0.0,0.0,0.0,0.0,0.0,0.0,0.0,0.0,0.0,0.0,0.0,0.0,0.0,0.0,0.0,0.0,0.0,0.0,0.0,0.0,0.0,0.0,0.0,0.0,0.0,0.0,0.0,0.0,0.0,0.0,0.0,0.0,0.0,0.0,0.0,0.0,0.0,0.0,0.0,6.5118,7.1394,7.8002,8.1122,8.0461,7.0624,6.2548,0.0,0.0,0.0,0.0,0.0,0.0,0.0,0.0,0.0,0.0,0.0,0.0,0.0,0.0,0.0,0.0,0.0,0.0,0.0,0.0,0.0,0.0,0.0,0.0,0.0,0.0,0.0,0.0,0.0,0.0,0.0,0.0,0.0,0.0,0.0,0.0,0.0,0.0,0.0,0.0,0.0,0.0,0.0,0.0,0.0,0.0,0.0,0.0,3.8175,0.0,0.0,0.0,0.0,0.0,0.0,0.0,0.0,0.0,0.0,0.0,0.0,0.0,0.0,0.0,0.0,0.0,0.0,0.0,0.0,0.0,0.0,0.0,0.0,0.0,0.0,0.0,0.0,0.0,0.0,0.0,0.0,0.0,0.0,0.0,0.0,0.0,0.0,0.0,0.0,0.0,0.0,0.0,0.0,0.0,0.0,0.0,0.0,0.0,0.0,0.0,0.0,0.0,0.0,0.0,0.0,0.0,0.0,0.0,6.7687,7.4074,7.98,8.2553,8.1856,7.4111,6.6476,0.0,0.0,0.0,0.0,0.0,0.0,0.0,0.0,0.0,0.0,0.0,0.0,0.0,0.0,0.0,0.0,0.0,0.0,0.0,0.0,0.0,0.0,0.0,0.0,0.0,0.0,0.0,0.0,0.0,0.0,0.0,0.0,0.0,0.0,0.0,0.0,0.0,0.0,0.0,0.0,0.0,0.0,0.0,0.0,0.0,0.0,0.0,0.0,0.0,0.0,0.0,0.0,0.0,0.0,0.0,0.0,0.0,0.0,0.0,0.0,0.0,0.0,0.0,0.0,0.0,0.0,0.0,0.0,0.0,0.0,0.0,0.0,0.0,0.0,0.0,0.0,0.0,0.0,0.0,0.0,0.0,0.0,0.0,0.0,0.0,0.0,0.0,0.0,0.0,0.0,0.0,0.0,0.0,0.0,0.0,0.0,0.0,0.0,0.0,0.0,0.0,0.0,0.0,0.0,0.0,0.0,0.0,6.1998,6.9743,7.6644,8.1269,8.3544,8.3324,7.8259,7.0844,6.1153,0.0,0.0,0.0,0.0,0.0,0.0,0.0,0.0,0.0,0.0,0.0,0.0,0.0,0.0,0.0,0.0,0.0,0.0,0.0,0.0,0.0,0.0,0.0,0.0,0.0,0.0,0.0,0.0,0.0,0.0,0.0,0.0,0.0,0.0,0.0,0.0,0.0,0.0,3.072,3.5605,0.0,0.0,0.0,0.0,0.0,0.0,0.0,0.0,4.0634,0.0,0.0,0.0,0.0,0.0,0.0,0.0,0.0,0.0,0.0,0.0,0.0,0.0,0.0,0.0,0.0,0.0,0.0,0.0,0.0,0.0,0.0,0.0,0.0,0.0,0.0,0.0,0.0,0.0,0.0,0.0,0.0,0.0,0.0,0.0,0.0,0.0,0.0,0.0,0.0,0.0,0.0,0.0,0.0,0.0,0.0,0.0,0.0,0.0,0.0,0.0,0.0,0.0,0.0,0.0,0.0,6.0823,6.398,7.0257,7.9947,8.2957,8.4095,8.3361,7.991,7.3083,6.2879,0.0,0.0,0.0,0.0,0.0,0.0,0.0,0.0,0.0,0.0,0.0,0.0,0.0,0.0,0.0,0.0,0.0,0.0,0.0,0.0,0.0,0.0,0.0,0.0,0.0,0.0,0.0,0.0,0.0,0.0,0.0,0.0,0.0,0.0,0.0,0.0,0.0,0.0,0.0,4.2566,4.5417,0.0,0.0,0.0,0.0,0.0,0.0,0.0,0.0,4.258,0.0,0.0,0.0,0.0,0.0,0.0,0.0,0.0,0.0,0.0,0.0,0.0,0.0,0.0,0.0,0.0,0.0,0.0,0.0,0.0,0.0,0.0,0.0,0.0,0.0,0.0,0.0,0.0,0.0,0.0,0.0,0.0,0.0,0.0,0.0,0.0,0.0,0.0,0.0,0.0,0.0,0.0,0.0,0.0,0.0,0.0,0.0,0.0,0.0,0.0,0.0,0.0,0.0,0.0,0.0,6.0639,6.6659,7.334,8.0755,8.2957,8.3581,8.27,7.7635,7.1027,0.0,0.0,0.0,0.0,0.0,0.0,0.0,0.0,0.0,0.0,0.0,0.0,0.0,0.0,0.0,0.0,0.0,0.0,0.0,0.0,0.0,0.0,0.0,0.0,0.0,0.0,0.0,0.0,0.0,0.0,0.0,0.0,0.0,0.0,0.0,0.0,0.0,0.0,0.0,0.0,4.6338,4.9107,5.1238,0.0,0.0,0.0,0.0,0.0,0.0,4.5663,4.4525,0.0,0.0,0.0,0.0,0.0,0.0,0.0,0.0,0.0,0.0,0.0,0.0,0.0,0.0,0.0,0.0,0.0,0.0,0.0,0.0,0.0,0.0,0.0,0.0,0.0,0.0,0.0,0.0,0.0,0.0,0.0,0.0,0.0,0.0,0.0,0.0,0.0,0.0,0.0,0.0,0.0,0.0,0.0,0.0,0.0,0.0,0.0,0.0,0.0,0.0,0.0,0.0,0.0,0.0,0.0,5.9465,6.8348,7.5579,8.0755,8.259,8.303,8.2113,7.5763,6.9302,0.0,0.0,0.0,0.0,0.0,0.0,0.0,0.0,0.0,0.0,0.0,0.0,0.0,0.0,0.0,0.0,0.0,0.0,0.0,0.0,0.0,0.0,0.0,0.0,0.0,0.0,0.0,0.0,0.0,0.0,0.0,0.0,0.0,0.0,0.0,0.0,0.0,0.0,0.0,0.0,0.0,5.2652,5.4759,5.2491,0.0,0.0,0.0,0.0,4.9114,4.9444,0.0,0.0,0.0,0.0,0.0,0.0,0.0,0.0,0.0,0.0,0.0,0.0,0.0,0.0,0.0,0.0,0.0,0.0,0.0,0.0,0.0,0.0,0.0,0.0,0.0,0.0,0.0,0.0,0.0,0.0,0.0,0.0,0.0,0.0,0.0,0.0,0.0,0.0,0.0,0.0,0.0,0.0,0.0,0.0,0.0,0.0,0.0,0.0,0.0,0.0,0.0,0.0,0.0,0.0,0.0,0.0,6.0126,6.7026,7.3927,8.0645,8.259,8.303,8.2186,7.7892,7.1541,0.0,0.0,0.0,0.0,0.0,0.0,0.0,0.0,0.0,0.0,0.0,0.0,0.0,0.0,0.0,0.0,0.0,0.0,0.0,0.0,0.0,0.0,0.0,0.0,0.0,0.0,0.0,0.0,0.0,0.0,0.0,0.0,0.0,0.0,0.0,0.0,0.0,0.0,0.0,0.0,0.0,5.6951,5.3922,5.3702,5.3188,0.0,0.0,5.4179,5.6381,5.9685,0.0,0.0,0.0,0.0,0.0,0.0,0.0,0.0,0.0,0.0,0.0,0.0,0.0,0.0,0.0,0.0,0.0,0.0,0.0,0.0,0.0,0.0,0.0,0.0,0.0,0.0,0.0,0.0,0.0,0.0,0.0,0.0,0.0,0.0,0.0,0.0,0.0,0.0,0.0,0.0,0.0,0.0,0.0,0.0,0.0,0.0,0.0,0.0,0.0,0.0,0.0,0.0,0.0,0.0,0.0,5.4142,6.1117,7.066,7.7818,8.2186,8.3067,8.3251,8.2884,7.5395,6.8678,0.0,0.0,0.0,0.0,0.0,0.0,0.0,0.0,0.0,0.0,0.0,0.0,0.0,0.0,0.0,0.0,0.0,0.0,0.0,0.0,0.0,0.0,0.0,0.0,0.0,0.0,0.0,0.0,0.0,0.0,0.0,0.0,0.0,0.0,0.0,0.0,0.0,0.0,0.0,0.0,0.0,0.0,5.8621,5.8951,0.0,0.0,0.0,5.8841,5.9905,0.0,0.0,0.0,0.0,0.0,0.0,0.0,0.0,0.0,0.0,0.0,0.0,0.0,0.0,0.0,0.0,0.0,0.0,0.0,0.0,0.0,0.0,0.0,0.0,0.0,0.0,0.0,0.0,0.0,0.0,0.0,0.0,0.0,0.0,0.0,0.0,0.0,0.0,0.0,0.0,0.0,0.0,0.0,0.0,0.0,0.0,0.0,0.0,0.0,0.0,0.0,0.0,0.0,0.0,0.0,0.0,0.0,6.1704,7.3597,8.0865,8.303,8.3508,8.3618,8.3251,7.4735,0.0,0.0,0.0,0.0,0.0,0.0,0.0,0.0,0.0,0.0,0.0,0.0,0.0,0.0,0.0,0.0,0.0,0.0,0.0,0.0,0.0,0.0,0.0,0.0,0.0,0.0,0.0,2.4861,0.0,0.0,0.0,0.0,0.0,0.0,0.0,0.0,0.0,0.0,0.0,0.0,0.0,0.0,6.0015,6.2218,6.3539,6.431,0.0,0.0,6.3649,6.4237,6.6586,6.5411,0.0,0.0,0.0,0.0,0.0,0.0,0.0,0.0,0.0,0.0,0.0,0.0,0.0,0.0,0.0,0.0,0.0,0.0,0.0,0.0,0.0,0.0,0.0,0.0,0.0,0.0,0.0,0.0,0.0,0.0,0.0,0.0,0.0,0.0,0.0,0.0,0.0,0.0,0.0,0.0,0.0,0.0,0.0,0.0,0.0,0.0,0.0,0.0,0.0,0.0,0.0,0.0,0.0,0.0,0.0,6.1814,7.3597,8.0645,8.226,8.3765,8.4168,8.3398,7.9029,7.2409,0.0,0.0,0.0,0.0,0.0,0.0,0.0,0.0,0.0,0.0,0.0,0.0,0.0,0.0,0.0,0.0,0.0,0.0,0.0,0.0,0.0,0.0,0.0,0.0,0.0,0.0,0.0,0.0,0.0,0.0,0.0,0.0,0.0,0.0,0.0,0.0,0.0,0.0,0.0,0.0,0.0,6.2291,6.1741,6.5595,6.9265,0.0,0.0,6.9192,7.1394,7.624,7.5102,6.1153,0.0,0.0,0.0,0.0,0.0,0.0,0.0,0.0,0.0,0.0,0.0,0.0,0.0,0.0,0.0,0.0,0.0,0.0,0.0,0.0,0.0,0.0,0.0,0.0,0.0,0.0,0.0,0.0,0.0,0.0,0.0,0.0,0.0,0.0,0.0,0.0,0.0,0.0,0.0,0.0,0.0,0.0,0.0,0.0,0.0,0.0,0.0,0.0,0.0,0.0,0.0,0.0,0.0,5.7519,6.2401,7.4845,8.2039,8.3618,8.4756,8.5196,8.4866,8.0369,7.4067,0.0,0.0,0.0,0.0,0.0,0.0,0.0,0.0,0.0,0.0,0.0,0.0,0.0,0.0,0.0,0.0,0.0,0.0,0.0,0.0,0.0,0.0,0.0,0.0,0.0,0.0,0.0,0.0,3.5385,3.6266,3.4578,0.0,0.0,0.0,0.0,0.0,0.0,0.0,0.0,0.0,0.0,6.4751,6.7871,7.1211,0.0,0.0,7.3927,7.3634,7.4588,7.5285,7.2496,6.2952,5.9024,0.0,0.0,0.0,0.0,0.0,0.0,0.0,0.0,0.0,0.0,0.0,0.0,0.0,0.0,0.0,0.0,0.0,0.0,0.0,0.0,0.0,0.0,0.0,0.0,0.0,0.0,0.0,0.0,0.0,0.0,0.0,0.0,0.0,0.0,0.0,0.0,0.0,0.0,0.0,0.0,0.0,0.0,0.0,0.0,0.0,0.0,0.0,0.0,0.0,0.0,0.0,0.0,5.8107,6.3172,7.5726,8.3104,8.4939,8.5747,8.604,8.5673,8.1889,7.6297,0.0,0.0,0.0,0.0,0.0,0.0,0.0,0.0,0.0,0.0,0.0,0.0,0.0,0.0,0.0,0.0,0.0,0.0,0.0,0.0,0.0,0.0,0.0,0.0,0.0,0.0,0.0,0.0,3.8909,3.9129,3.5899,0.0,0.0,0.0,0.0,0.0,0.0,0.0,0.0,0.0,0.0,6.7577,7.2202,7.4735,7.6166,7.6423,7.5652,7.5212,7.5689,7.4515,7.1321,6.464,0.0,0.0,0.0,0.0,0.0,0.0,0.0,0.0,0.0,0.0,0.0,0.0,0.0,0.0,0.0,0.0,0.0,0.0,0.0,0.0,0.0,0.0,0.0,0.0,0.0,0.0,0.0,0.0,0.0,0.0,3.341,0.0,0.0,0.0,0.0,0.0,0.0,0.0,0.0,0.0,0.0,0.0,0.0,0.0,0.0,0.0,0.0,0.0,0.0,0.0,0.0,0.0,0.0,5.84,6.4127,7.6056,8.3361,8.5673,8.6554,8.6591,8.5783,8.4039,7.9791,7.262,0.0,0.0,0.0,0.0,0.0,0.0,0.0,0.0,0.0,0.0,0.0,0.0,0.0,0.0,0.0,0.0,0.0,0.0,0.0,0.0,0.0,0.0,0.0,0.0,0.0,0.0,3.7477,3.8248,3.7551,0.0,0.0,0.0,0.0,0.0,0.0,0.0,0.0,0.0,0.0,6.4383,7.0844,7.334,7.5102,7.6497,7.7231,7.4735,7.323,7.4808,7.5506,7.356,0.0,0.0,0.0,0.0,0.0,0.0,0.0,0.0,0.0,0.0,0.0,0.0,0.0,0.0,0.0,0.0,0.0,0.0,0.0,0.0,0.0,0.0,0.0,0.0,0.0,0.0,0.0,4.3536,4.1874,0.0,0.0,0.0,0.0,0.0,0.0,0.0,0.0,0.0,0.0,0.0,5.6451,5.8394,0.0,0.0,0.0,0.0,0.0,0.0,0.0,0.0,0.0,0.0,0.0,0.0,5.9465,6.5852,7.657,8.3361,8.571,8.6591,8.6885,8.6591,8.5297,8.0226,7.0964,0.0,0.0,0.0,0.0,0.0,0.0,0.0,0.0,0.0,0.0,0.0,0.0,0.0,0.0,0.0,0.0,0.0,0.0,0.0,0.0,0.0,0.0,0.0,0.0,0.0,3.9239,0.0,0.0,0.0,0.0,0.0,0.0,0.0,0.0,0.0,0.0,0.0,5.4289,6.152,6.688,7.1358,7.4808,7.7157,7.8846,0.0,0.0,0.0,0.0,0.0,0.0,0.0,0.0,0.0,0.0,0.0,0.0,0.0,0.0,6.4061,5.372,5.0998,5.0614,5.1669,0.0,0.0,0.0,0.0,0.0,0.0,0.0,0.0,0.0,0.0,0.0,0.0,0.0,0.0,5.0313,0.0,4.831,0.0,0.0,0.0,0.0,0.0,0.0,0.0,0.0,5.8477,6.2129,6.4512,6.6389,6.6008,0.0,6.2022,5.6806,0.0,0.0,0.0,0.0,0.0,0.0,0.0,0.0,6.0566,6.743,7.7121,8.3508,8.6077,8.6936,8.7394,8.7321,8.5971,8.1296,7.3024,6.6782,6.0589,0.0,0.0,0.0,0.0,0.0,0.0,0.0,0.0,0.0,0.0,0.0,0.0,0.0,0.0,0.0,0.0,0.0,0.0,0.0,0.0,0.0,0.0,0.0,4.2176,0.0,0.0,0.0,0.0,0.0,0.0,0.0,0.0,0.0,4.9224,5.4032,5.9979,6.688,7.033,7.323,7.613,0.0,0.0,0.0,0.0,0.0,0.0,0.0,7.2502,7.1189,7.0471,7.0131,7.0405,7.277,7.4072,7.232,0.0,0.0,6.2909,5.9754,5.933,6.0931,6.112,6.1469,6.3123,6.4406,6.5538,0.0,0.0,0.0,0.0,0.0,0.0,0.0,0.0,5.8473,5.778,0.0,5.5247,0.0,0.0,0.0,0.0,0.0,5.4358,0.0,0.0,6.926,7.2678,7.1398,7.2206,7.2129,7.1283,7.1091,6.829,6.2825,5.2643,0.0,0.0,0.0,0.0,0.0,0.0,6.1777,6.9119,7.7781,8.3801,8.6848,8.7646,8.8046,8.8018,8.6198,8.3104,7.8715,7.3745,6.8013,6.1358,5.4741,0.0,0.0,0.0,0.0,0.0,0.0,0.0,0.0,0.0,0.0,0.0,0.0,0.0,0.0,0.0,0.0,0.0,0.0,0.0,0.0,4.4085,0.0,0.0,0.0,0.0,0.0,0.0,0.0,0.0,0.0,0.0,5.4216,6.0529,6.7173,7.1798,0.0,0.0,0.0,0.0,7.7194,7.6533,7.5726,7.5065,7.4331,7.6625,7.767,7.5469,0.0,0.0,7.8933,7.8901,7.8559,7.5374,7.8673,8.0059,7.5776,7.1522,6.9397,7.084,6.9474,6.845,6.9891,7.1783,7.2841,6.7693,0.0,0.0,0.0,0.0,6.2656,6.532,6.9552,6.8629,6.6898,6.4705,6.3271,0.0,0.0,0.0,0.0,0.0,0.0,6.3867,6.8526,7.2225,7.5718,7.9015,7.9939,7.9862,7.8977,7.7207,7.4909,7.2054,6.6369,5.7794,4.6765,0.0,0.0,0.0,0.0,6.5925,7.312,7.9727,8.4352,8.6958,8.7231,8.7539,8.7882,8.6624,8.4748,8.2208,7.8361,7.3745,6.8205,6.2704,0.0,0.0,0.0,0.0,0.0,0.0,0.0,0.0,0.0,0.0,0.0,0.0,0.0,0.0,0.0,0.0,0.0,0.0,0.0,4.3277,4.5553,4.614,0.0,0.0,0.0,0.0,0.0,0.0,0.0,0.0,0.0,6.5044,6.6733,6.9009,0.0,0.0,7.4441,7.4698,7.7194,7.9396,8.0314,8.1232,0.0,0.0,8.1259,8.1047,8.096,8.429,8.6807,8.6507,8.7236,8.7498,8.6348,8.7372,8.7833,8.6504,8.1981,7.8952,7.9608,7.9474,7.9475,8.0502,8.1691,8.2574,7.9023,7.3215,6.8373,6.7779,7.0076,7.0305,7.3014,7.7169,7.6169,7.4861,7.3322,7.1294,6.7487,6.2397,6.0219,0.0,0.0,0.0,6.9826,7.4996,7.6574,7.9473,8.3208,8.3862,8.3862,8.3247,8.14,7.9823,7.8477,7.5142,6.8119,5.768,0.0,0.0,5.6442,6.2983,6.9636,7.6121,8.1255,8.4829,8.6958,8.7261,8.7846,8.8631,8.7801,8.6622,8.5137,8.2477,7.8823,7.4091,6.9052,6.3166,0.0,0.0,0.0,0.0,0.0,0.0,0.0,0.0,0.0,0.0,0.0,3.5569,3.1726,0.0,0.0,0.0,4.1038,4.4745,4.7829,4.9224,0.0,0.0,0.0,0.0,0.0,0.0,0.0,5.7886,6.4347,6.9596,7.2129,7.3487,7.4735,7.6166,7.6754,7.7157,7.7488,0.0,8.215,8.3434,8.4719,8.5563,8.5563,8.5497,8.584,8.6852,8.856,9.0184,9.1222,9.1913,9.2256,9.2215,9.221,9.221,9.2172,8.9171,8.6555,8.617,8.5657,8.5552,8.6356,8.7073,8.7709,8.8521,8.6935,7.6784,7.3812,7.5808,7.7455,7.9477,8.167,8.1631,8.1554,8.1323,7.8806,7.5379,7.1283,6.7552,0.0,7.0706,7.3168,7.6476,8.0362,8.1977,8.3593,8.517,8.5209,8.5209,8.5209,8.4324,8.3439,8.2477,8.0131,7.6778,7.2384,6.6825,6.4328,6.5158,6.8602,7.3093,7.8532,8.2501,8.5348,8.7157,8.7861,8.8856,9.0035,8.932,8.8421,8.7406,8.5709,8.2939,7.8938,7.4053,6.8821,6.3051,0.0,0.0,0.0,0.0,0.0,0.0,0.0,0.0,0.0,0.0,0.0,0.0,0.0,0.0,0.0,4.7902,0.0,5.3628,5.4399,0.0,0.0,0.0,5.4252,5.5427,5.9538,6.2915,6.464,0.0,0.0,7.6497,8.0057,8.2553,8.2737,8.2553,8.2627,8.3324,8.4132,8.5159,8.5967,8.6921,8.7545,8.7912,8.9432,9.1125,9.2489,9.3015,9.3306,9.3984,9.4172,9.4134,9.4057,9.4018,9.398,9.3941,9.3557,9.3095,9.0633,8.9056,8.8209,8.8983,8.9217,8.9524,9.1479,9.1014,8.7709,8.5599,8.445,8.4791,8.5709,8.6824,8.617,8.5517,8.4747,8.2247,7.9485,7.6663,7.6331,7.7015,7.8477,8.0362,8.2439,8.4632,8.5709,8.6786,8.7748,8.7786,8.7786,8.7748,8.6901,8.6055,8.517,8.3978,8.183,7.8922,7.6957,7.3459,6.8679,7.2902,7.7089,8.0973,8.3779,8.6267,8.8523,8.9238,8.9763,9.0078,8.9228,8.8336,8.7401,8.5132,8.3131,8.14,7.7823,7.3976,6.9898,6.0358,0.0,0.0,0.0,0.0,0.0,0.0,0.0,0.0,0.0,4.3167,3.6486,0.0,4.4452,0.0,5.1683,5.6271,5.8474,5.8327,0.0,0.0,5.9832,6.0493,6.4934,6.7026,6.8935,7.1174,7.5469,7.9176,8.1415,8.3581,8.5637,8.7362,8.5563,8.3911,8.3581,8.5747,8.7655,8.8573,9.0298,9.184,9.2354,9.343,9.4669,9.617,9.6409,9.6751,9.7481,9.7557,9.7403,9.6749,9.6596,9.6365,9.5788,9.5172,9.4557,9.3864,9.2903,9.2249,9.2479,9.2441,9.2556,9.3749,9.3018,9.2518,9.1482,9.0178,8.9825,8.994,9.0325,8.9863,8.9171,8.8209,8.5709,8.3566,8.1958,8.2407,8.3054,8.3939,8.4863,8.6017,8.7248,8.7748,8.844,8.9248,8.9248,8.921,8.921,8.8748,8.8055,8.7248,8.6824,8.567,8.3939,8.3934,8.1609,7.7146,7.7834,7.9583,8.2146,8.4645,8.692,8.9008,8.9438,8.9277,8.8395,8.7924,8.6501,8.4093,8.267,8.0977,7.8977,7.6784,7.386,7.0052,6.282,5.6819,0.0,0.0,0.0,0.0,0.0,0.0,0.0,0.0,0.0,0.0,0.0,4.9444,5.1793,5.6895,6.075,6.2438,6.3466,6.4934,6.71,6.7026,6.8385,7.2239,7.3707,7.5212,7.7231,8.0424,8.3104,8.4829,8.6738,8.839,8.9784,8.905,8.8096,8.7545,8.9087,9.0665,9.151,9.3051,9.4411,9.5216,9.5632,9.6281,9.7414,9.7629,9.7936,9.8673,9.8788,9.8634,9.8211,9.8096,9.7942,9.748,9.7057,9.6711,9.6596,9.598,9.5018,9.3941,9.3672,9.3787,9.5712,9.4368,9.4364,9.4328,9.4291,9.3559,9.3056,9.2633,9.2633,9.2172,9.121,8.8902,8.7406,8.6565,8.6483,8.6863,8.7555,8.7671,8.8171,8.9017,8.9133,8.9633,9.0364,9.0402,9.0325,9.0248,9.0248,8.9748,8.8863,8.8863,8.8363,8.7478,8.8171,8.7709,8.6055,8.2677,8.1614,8.2987,8.5583,8.7651,8.915,8.8998,8.8028,8.6344,8.5889,8.3754,7.9869,7.9438,7.79,7.4899,7.413,7.2206,6.8552,6.4205,5.9781,0.0,5.1625,0.0,0.0,0.0,0.0,0.0,0.0,0.0,0.0,5.3561,5.6014,5.8988,6.2768,6.5485,6.6586,6.9302,7.1394,7.2349,7.4368,7.6313,7.7928,7.947,8.1012,8.2627,8.4756,8.6444,8.7399,8.9417,9.0776,9.1033,9.2097,9.2501,9.2317,9.2611,9.3345,9.4336,9.5144,9.581,9.6517,9.6816,9.7215,9.7882,9.8265,9.8369,9.9096,9.9173,9.9096,9.8981,9.8942,9.8904,9.8827,9.8711,9.8711,9.8596,9.798,9.6903,9.5134,9.4364,9.4326,9.8134,9.7864,9.7827,9.7865,9.7827,9.7673,9.6019,9.348,9.348,9.3018,9.2168,9.1018,8.9983,8.9175,8.8517,8.8286,8.8479,8.9133,8.9902,9.0748,9.1441,9.221,9.2941,9.2979,9.2633,9.2018,9.2018,9.121,8.9671,8.9671,8.8902,8.744,8.7555,8.7132,8.6132,0.0,0.0,0.0,8.7416,8.8901,8.9688,8.8423,8.7194,8.6111,8.35,0.0,7.8861,7.7438,7.613,7.4822,7.5245,0.0,0.0,0.0,0.0,0.0,0.0,0.0,0.0,0.0,0.0,0.0,6.1243,5.9126,5.6701,6.0416,6.3796,6.5705,6.8348,7.1064,7.378,7.5175,7.657,7.8038,7.9176,8.0498,8.2076,8.3104,8.4315,8.593,8.7068,8.828,8.9638,9.0959,9.1877,9.2427,9.3455,9.3969,9.3786,9.3859,9.4336,9.5144,9.5878,9.6732,9.7472,9.808,9.8744,9.9542,10.0262,10.0553,10.0673,10.075,10.0519,9.9981,9.9865,9.9596,9.8981,9.8788,9.8904,9.8788,9.8673,9.8404,9.7904,9.6749,9.6057,9.9173,0.0,9.8788,9.8788,0.0,9.8788,9.7827,9.6172,9.5749,9.4903,9.3672,9.2826,9.221,9.1751,9.1364,9.1171,9.1171,9.1595,9.2018,9.2441,9.2903,9.3287,9.3672,9.3672,9.348,9.3095,9.3095,9.2633,9.1787,9.1364,9.0748,8.994,8.9479,8.9056,8.8632,8.8632,8.8209,8.7401,8.8307,8.9381,9.0479,9.0133,8.8709,8.617,0.0,0.0,0.0,0.0,0.0,0.0,0.0,0.0,0.0,0.0,0.0,6.959,6.6821,6.5513,6.6359,6.7022,6.8513,7.0946,7.1633,6.96,6.4207,6.7274,7.011,7.1725,7.3707,7.5726,7.7708,7.936,8.0828,8.2039,8.2884,8.4022,8.549,8.6114,8.6848,8.7986,8.8904,8.9748,9.0482,9.173,9.2391,9.2537,9.3529,9.4153,9.3822,9.4042,9.4593,9.5401,9.6511,9.7562,9.8316,9.9065,9.9809,10.055,10.105,10.125,10.1289,10.1289,10.1173,10.0789,10.0712,10.0519,10.0173,10.0058,10.0019,9.9981,9.9712,9.9635,9.9827,9.8711,9.7634,10.0366,9.9711,9.9558,9.9442,9.9442,9.9327,9.9173,9.8981,0.0,0.0,0.0,9.4557,9.4095,9.3941,9.3787,9.3672,9.3672,9.3672,9.3749,9.3903,9.3941,9.4018,9.4172,9.4172,9.4057,9.3941,9.3941,9.3864,9.3672,9.3018,9.2633,9.2441,9.1787,9.1325,9.121,9.121,9.0517,8.921,8.9017,8.9594,9.0941,9.1402,8.9825,8.617,8.567,8.267,7.6938,7.5822,7.4322,7.2168,7.2168,7.2399,7.2668,7.2706,7.286,7.3129,7.3168,7.3783,7.5168,7.6053,7.7139,7.8615,8.031,7.868,7.259,7.4127,7.5953,7.7436,7.8836,7.9952,8.0819,8.2737,8.4352,8.5159,8.5967,8.6958,8.8169,8.8573,8.89,8.9739,9.0404,9.0884,9.1134,9.2279,9.2905,9.2572,9.3492,9.4006,9.3418,9.3786,9.4483,9.5182,9.6252,9.7532,9.8238,9.9043,9.9966,10.031,10.0593,10.0904,10.1058,10.1096,10.1135,10.125,10.1289,10.125,10.1289,10.1173,10.1289,10.1289,10.0789,10.0519,10.0981,10.0212,9.9211,10.329,10.3098,10.2366,10.2058,10.1981,10.125,10.0558,9.9827,9.9019,9.8057,9.7094,9.6288,9.5518,9.4788,9.4057,9.3672,9.3672,9.3672,9.4095,0.0,9.4788,9.5211,9.5903,9.5942,9.5557,9.4864,9.4826,9.4403,9.3749,9.3595,9.3172,9.2595,9.2364,9.1941,9.1248,9.121,9.1095,9.0825,9.0094,8.9863,9.0056,8.8786,8.7478,8.6094,8.4055,8.1785,7.94,7.8477,7.7476,7.6476,7.7053,7.8092,7.9554,7.9554,8.0323,8.167,8.1823,8.1939,8.2131,8.2978,8.3658,8.4098,8.5011,8.3992,8.0585,8.1129,8.2195,8.3152,8.3446,8.3965,8.4889,8.5888,8.6875,8.7615,8.839,8.9014,8.9341,8.9892,9.0541,9.1251,9.1528,9.1904,9.2484,9.2963,9.3376,9.3789,9.4068,9.4043,9.3492,9.3786,9.4263,9.452,9.5219,9.577,9.6377,9.7207,9.8196,9.8172,9.8897,9.9558,10.0135,10.025,10.0442,10.1135,10.1135,10.1212,10.1212,10.1289,10.125,10.125,10.1096,10.1135,10.1289,10.0981,10.0635,10.3597,10.3212,10.3289,10.3289,10.3289,10.2866,10.2481,10.2097,10.1212,9.9865,9.825,9.7827,9.7442,9.7057,9.6634,9.648,9.648,9.648,9.6673,9.7057,9.7057,9.7288,9.7634,9.7673,9.7211,9.6403,9.6365,9.5942,9.5134,9.4634,9.421,9.3787,9.2979,9.2095,9.1248,9.121,9.121,9.121,9.0825,9.0594,9.0594,9.0325,8.9556,8.8209,8.6978,8.5401,8.3324,8.2401,8.1554,8.0746,8.1054,8.1823,8.3054,8.317,8.3708,8.4863,8.4939,8.517,8.5632,8.6863,8.7837,8.8423,8.9228,8.9113,8.7727,8.648,8.6141,8.6905,8.7377,8.7829,8.8309,8.9033,8.9794,9.0577,9.1062,9.1285,9.135,9.1653,9.201,9.2338,9.2439,9.2728,9.3507,9.3974,9.4185,9.4257,9.4226,9.4096,9.3763,9.4356,9.4552,9.397,9.498,9.594,9.6103,9.7309,9.8189,9.8312,9.8556,9.8942,9.9365,9.9404,9.9558,9.9865,9.9981,10.0135,10.0519,10.0635,10.0827,10.125,10.1289,10.1289,10.1289,10.1289,10.1135,10.352,10.2981,10.3405,10.3597,10.3634,10.3828,10.3905,10.3828,10.3174,10.1789,10.0019,9.9365,9.8981,9.8789,9.8788,9.8788,9.8788,9.8788,9.8788,9.8788,9.8788,9.8788,9.875,9.8596,9.8134,9.7519,9.7326,9.6903,9.6288,9.5595,9.5172,9.4864,9.348,9.2441,9.1787,9.1787,9.1748,9.1787,9.1748,9.1672,9.1556,9.2326,9.2133,9.0902,9.0748,8.9748,8.7671,8.694,8.6209,8.5401,8.5324,8.5709,8.6555,8.6594,8.6978,8.7709,8.7825,8.8094,8.8786,9.0017,9.1056,9.171,9.2364,9.2864,9.2867,9.0971,8.9611,9.0006,9.0449,9.0852,9.0948,9.1385,9.2194,9.297,9.3083,9.3031,9.3176,9.3264,9.3326,9.3447,9.3536,9.383,9.4479,9.5193,9.5329,9.4896,9.4833,9.4932,9.4859,9.5283,9.5073,9.4689,9.5558,9.6592,9.6686,9.7801,9.8508,9.844,9.8558,9.8673,9.8673,9.8634,9.8788,9.8942,9.9096,9.9481,9.9981,10.0135,10.0366,10.0827,10.0943,10.1058,10.125,10.1289,10.1289,10.3829,10.3675,10.302,10.2712,10.2866,10.3597,10.3905,10.3905,10.3789,10.3674,10.3058,10.0981,9.9596,9.8865,9.8865,9.8865,9.8865,9.8788,9.8827,9.8865,9.8788,9.8788,9.8827,9.8096,9.7596,9.7442,9.6865,9.6519,9.6288,9.6172,9.5788,9.498,9.4057,9.3518,9.3441,9.3403,9.3441,9.3441,9.348,9.3133,9.2479,9.3172,9.3518,9.3364,9.3326,9.2903,9.1748,9.1825,9.1364,9.0594,9.0402,9.0864,9.1556,9.1748,9.2095,9.2787,9.2903,9.3056,9.3056,9.3249,9.3326,9.3441,9.3557,9.3941,9.4634,9.4483,9.3753,9.276,9.2436,9.2585,9.2549,9.2738,9.3169,9.394,9.4114,9.3971,9.4085,9.3991,9.4265,9.4915,9.509,9.5377,9.6094,9.6413,9.6457,9.6231,9.6741,9.693,9.6498,9.6573,9.6743,9.6554,9.7177,9.729,9.7041,9.7882,9.8235,9.7286,9.7935,9.8404,9.825,9.8404,9.8788,9.8865,9.9327,9.9788,10.0019,10.0096,10.0135,10.0442,10.0519,10.0481,10.1058,10.1289,10.1289,10.3637,10.3175,10.3289,10.3366,10.3482,10.4251,10.4597,10.4597,10.4597,10.4328,10.3751,10.2251,10.1366,10.1019,10.0519,10.0289,10.0289,10.0289,10.0289,10.0289,10.0289,10.0289,10.0212,9.9942,9.9288,9.8327,9.7942,9.725,9.6442,9.6288,9.5865,9.5057,9.4595,9.421,9.3749,9.3672,9.3672,9.371,9.421,9.4287,9.398,9.3787,9.3672,9.3672,9.3672,9.3557,9.3249,9.321,9.3018,9.271,9.2672,9.2826,9.321,9.321,9.3364,9.3672,9.3672,9.3941,9.4441,9.4441,9.4672,9.5172,9.5249,9.5403,9.5711,9.5749,9.5482,9.4983,9.4788,9.486,9.4834,9.4872,9.5025,9.5407,9.5828,9.5959,9.5501,9.5907,9.6398,9.6629,9.6714,9.6991,9.7609,9.7877,9.7715,9.7464,9.7915,9.8296,9.8048,9.8428,9.8921,9.9288,9.9687,9.9002,9.7855,9.8074,9.8385,9.8166,9.8325,9.8557,9.8442,9.8481,9.8788,9.8788,9.9173,9.9635,10.0019,10.0135,10.0212,10.0442,10.0789,10.0943,10.125,10.1289,10.1289,10.352,10.3098,10.3635,10.402,10.4251,10.4597,10.4905,10.5059,10.4866,10.4443,10.3828,10.2981,10.2597,10.2481,10.1673,10.1289,10.1289,10.1289,10.1289,10.1289,10.1289,10.1289,10.1289,10.1058,10.0366,9.9288,9.8904,9.8019,9.6711,9.6365,9.6095,9.5711,9.5672,9.548,9.5134,9.5095,9.5095,9.5172,9.5711,9.6019,9.598,9.5441,9.4864,9.4441,9.4403,9.4403,9.4403,9.4403,9.4403,9.4403,9.4403,9.4403,9.4403,9.4403,9.4403,9.4403,9.4403,9.4672,9.5288,9.5326,9.5634,9.6211,9.648,9.6634,9.6673,9.6826,9.698,9.698,9.698,9.6942,9.6634,9.6865,9.698,9.7019,9.7557,9.7634,9.7183,9.7675,9.7943,9.8019,9.8216,9.8648,9.9326,9.9481,9.9322,9.8987,9.9243,9.958,9.9664,10.0122,10.064,10.121,10.125,10.0591,9.9069,9.9198,9.9404,9.925,9.9327,9.9442,9.9058,9.8942,9.8904,9.8981,9.9019,9.9288,9.9904,10.0135,10.025,10.0712,10.0981,10.1096,10.125,10.1289,10.1289,10.3866,10.3828,10.3866,10.4289,10.4982,10.4328,10.4405,10.5059,10.4328,10.3943,10.3789,10.2981,10.2597,10.2481,10.1673,10.1289,10.1289,10.1289,10.1289,10.1289,10.1289,10.1289,10.125,10.0519,10.0135,9.9865,9.925,9.8404,9.7442,9.6749,9.6673,9.7326,9.7326,9.775,9.8173,9.8211,9.8481,9.8211,9.8288,9.8481,9.8481,9.8442,9.7596,9.6326,9.6211,9.6172,9.6172,9.6211,9.6172,9.6172,9.6134,9.6134,9.6172,9.6134,9.6057,9.6172,9.6172,9.6211,9.6249,9.6326,9.6365,9.648,9.7096,9.7442,9.7519,9.8057,9.8404,9.8596,9.8557,9.8288,9.775,9.8057,9.8442,9.8519,9.8673,9.8673,9.8673,9.8749,9.875,9.8904,9.948,10.0095,10.0981,10.1212,10.1019,10.0902,10.1056,10.1056,10.0978,10.1133,10.125,10.125,10.1289,10.1211,10.1096,10.075,10.0519,10.0366,10.0289,10.0596,9.9865,9.9288,9.9288,9.9365,9.975,9.9981,10.0058,10.0135,10.025,10.0442,10.0519,10.0673,10.125,10.1289,10.1289,10.3905,10.3905,10.3905,10.4059,10.4328,10.4559,10.4828,10.5059,10.4789,10.4366,10.3789,10.2981,10.2327,10.175,10.1481,10.1289,10.1289,10.1289,10.1289,10.1289,10.1289,10.1289,10.125,10.0981,10.0558,10.0096,9.9788,9.9173,9.8404,9.8019,9.8019,9.8288,9.8327,9.8519,9.875,9.8788,9.8788,9.8788,9.8788,9.8788,9.8827,9.8788,9.8481,9.798,9.7904,9.7904,9.7904,9.7904,9.7904,9.7904,9.7365,9.7057,9.7019,9.6596,9.6826,9.7711,9.7365,9.7326,9.7827,9.7904,9.7904,9.7942,9.8134,9.8327,9.8365,9.8596,9.8788,9.8904,9.9365,9.9404,9.9211,9.8981,9.8788,9.8865,9.9288,9.9673,9.975,10.0058,10.0404,10.0442,10.0712,10.1019,10.1289,10.1327,10.1289,10.1289,10.1327,10.1327,10.1327,10.1327,10.1289,10.1289,10.1289,10.1289,10.1289,10.125,10.1173,10.1058,10.1058,10.1019,10.0558,10.0442,10.0442,10.0327,10.0635,10.0673,10.0712,10.0712,10.0712,10.075,10.075,10.0789,10.125,10.1289,10.1289,10.4713,10.4674,10.4405,10.4443,10.4674,10.4713,10.4866,10.502,10.4828,10.4405,10.3866,10.3289,10.2674,10.2212,10.2135,10.2135,10.2058,10.1597,10.1289,10.1289,10.1289,10.1289,10.1289,10.1289,10.1019,10.0481,10.0212,9.975,9.925,9.8942,9.8942,9.9211,9.9211,9.9365,9.9558,9.9635,9.9596,9.9596,9.9596,9.9635,9.9596,9.9596,9.9635,9.9596,9.9596,9.9327,9.8827,9.8788,9.8788,9.8711,9.8211,9.7904,9.7865,9.7403,9.7596,9.8557,9.825,9.8173,9.8673,9.8788,9.8788,9.8827,9.9058,9.9211,9.925,9.9712,9.9981,10.0212,10.0789,10.1327,10.1212,10.0827,10.0212,9.9942,10.0635,10.1135,10.1019,10.1673,10.2097,10.2135,10.2174,10.2174,10.2135,10.2174,10.2212,10.2135,10.1943,10.1712,10.1712,10.1443,10.1289,10.1289,10.1289,10.1289,10.1289,10.1289,10.1289,10.125,10.1212,10.125,10.1289,10.1289,10.1289,10.1289,10.1289,10.1289,10.1289,10.1289,10.1289,10.1289,10.1212,10.1135,10.1289,10.1289,10.1289,10.6328,10.6174,10.5482,10.552,10.5944,10.4828,10.4482,10.502,10.4366,10.4135,10.402,10.3866,10.3674,10.3751,10.3597,10.3751,10.3405,10.2212,10.1597,10.1558,10.152,10.152,10.152,10.1481,10.1366,10.1173,10.0481,10.0135,10.0058,9.9442,9.9404,9.9981,10.0096,10.0404,10.1212,10.1058,10.1135,10.1096,10.1019,10.1135,10.1289,10.1173,10.1212,10.125,10.1289,10.0673,9.9135,9.9019,9.9019,9.8981,9.8865,9.8827,9.8788,9.8634,9.8788,9.8942,9.8865,9.8865,9.8981,9.9173,9.9404,9.9481,9.9827,10.0404,10.0635,10.1597,10.2366,10.2443,10.302,10.3635,10.3597,10.3558,10.2904,10.1789,10.2597,10.3097,10.2866,10.3289,10.3828,10.3712,10.3597,10.3828,10.3828,10.3597,10.352,10.3405,10.302,10.2597,10.252,10.202,10.1443,10.1366,10.1366,10.1289,10.1289,10.1289,10.1289,10.1289,10.1289,10.1289,10.1289,10.1289,10.1289,10.1289,10.1289,10.1289,10.1289,10.1289,10.1289,10.1289,10.1289,10.1289,10.1289,10.1289,10.1289,10.6405,10.6367,10.6136,10.6136,10.6328,10.5828,10.579,10.5867,10.5097,10.4713,10.4636,10.4135,10.3866,10.3905,10.3864,10.3903,10.3828,10.3289,10.3097,10.3097,10.3058,10.302,10.2943,10.2481,10.1904,10.1366,10.1058,10.0943,10.0904,10.0673,10.0712,10.0904,10.0943,10.1058,10.1327,10.1289,10.1289,10.1289,10.1289,10.1289,10.1366,10.1904,10.2174,10.2251,10.2751,10.2789,10.2289,10.1173,10.0558,10.0519,9.9981,9.9673,9.9596,9.9135,9.9365,10.0366,10.0519,10.0827,10.1404,10.1943,10.2174,10.2289,10.252,10.2674,10.2712,10.3135,10.3482,10.3482,10.3751,10.3905,10.3982,10.4443,10.4212,10.3212,10.3558,10.3905,10.3674,10.3789,10.3866,10.3905,10.3905,10.3905,10.3905,10.3943,10.402,10.402,10.3712,10.3482,10.3366,10.2751,10.2212,10.2174,10.1827,10.152,10.1712,10.1712,10.1558,10.1481,10.1404,10.1327,10.1289,10.1289,10.1289,10.1289,10.1289,10.1289,10.1289,10.1289,10.1289,10.1289,10.1289,10.1289,10.1289,10.1289,10.1289,10.6405,10.6405,10.6405,10.6405,10.6405,10.6405,10.6405,10.6328,10.5828,10.5597,10.5443,10.5059,10.4828,10.4828,10.4826,10.4826,10.4828,10.4828,10.4828,10.4674,10.4059,10.3905,10.3828,10.3366,10.2828,10.2366,10.2251,10.2251,10.2251,10.2289,10.2289,10.2251,10.2251,10.2289,10.2251,10.2289,10.2289,10.2251,10.2289,10.2251,10.2366,10.2789,10.3058,10.3174,10.3597,10.3866,10.3789,10.2828,10.2251,10.2212,10.175,10.152,10.1443,10.1058,10.1173,10.1981,10.2289,10.252,10.3097,10.3443,10.3905,10.3905,10.3905,10.3866,10.3943,10.4059,10.4328,10.4328,10.4674,10.4828,10.4943,10.5251,10.529,10.4905,10.4866,10.4828,10.4828,10.4828,10.4866,10.4905,10.4905,10.4828,10.4828,10.4828,10.4828,10.4828,10.4559,10.4328,10.4174,10.3597,10.3289,10.302,10.2828,10.2558,10.2366,10.2135,10.1866,10.1712,10.1558,10.1404,10.1289,10.1289,10.1289,10.1289,10.1289,10.1289,10.1289,10.1289,10.1289,10.1289,10.1443,10.1327,10.1327,10.1289,10.1327,10.6405,10.6405,10.6405,10.6405,10.6405,10.6405,10.6405,10.6405,10.6367,10.629,10.629,10.6174,10.6251,10.6328,10.6136,10.6136,10.6328,10.6174,10.6136,10.579,10.4943,10.4251,10.4097,10.3982,10.3828,10.3674,10.3674,10.3712,10.3597,10.3597,10.3905,10.3674,10.3635,10.3789,10.3635,10.3828,10.3674,10.3635,10.3712,10.3712,10.3712,10.3905,10.3943,10.3982,10.4135,10.4212,10.4251,10.4135,10.3943,10.3866,10.3597,10.3482,10.3751,10.3866,10.3597,10.3674,10.3866,10.3866,10.3943,10.4405,10.4443,10.452,10.4636,10.4174,10.4713,10.5328,10.5636,10.5636,10.6136,10.6559,10.6559,10.6597,10.6597,10.6559,10.6405,10.6328,10.6367,10.6328,10.6251,10.6213,10.6367,10.6328,10.6136,10.6174,10.6213,10.6097,10.5597,10.5251,10.502,10.4597,10.4097,10.3828,10.3674,10.3366,10.3058,10.2904,10.2674,10.2597,10.2327,10.2058,10.1712,10.1635,10.1827,10.1789,10.1558,10.1481,10.1635,10.1904,10.1943,10.2058,10.1943,10.152,10.1597,10.1866,10.1943,10.6405,10.6405,10.6405,10.6405,10.6405,10.6405,10.6405,10.6405,10.6405,10.6482,10.6444,10.6405,10.6405,10.6405,10.6405,10.6405,10.6405,10.6444,10.6405,10.6367,10.602,10.5366,10.4905,10.4751,10.4482,10.4059,10.4059,10.3866,10.3905,10.402,10.3982,10.3905,10.402,10.3943,10.3905,10.3982,10.3905,10.3905,10.3905,10.3943,10.4059,10.452,10.4789,10.4828,10.5405,10.5674,10.5751,10.5751,10.5097,10.3982,10.3905,10.3905,10.402,10.4059,10.4135,10.4174,10.4559,10.4828,10.5059,10.5944,10.6597,10.679,10.6944,10.7598,10.7598,10.7713,10.7867,10.7944,10.8175,10.8175,10.8213,10.8175,10.8175,10.8175,10.7752,10.7175,10.679,10.6982,10.7136,10.6559,10.6482,10.6521,10.6559,10.6482,10.6482,10.6444,10.6213,10.5944,10.5713,10.5366,10.4789,10.4559,10.4328,10.402,10.3751,10.3635,10.3558,10.3558,10.3328,10.3058,10.2674,10.2366,10.2751,10.3097,10.252,10.2289,10.2866,10.3328,10.3174,10.2828,10.2904,10.2789,10.3058,10.3289,10.3212,10.6944,10.6944,10.6944,10.7136,10.7444,10.7444,10.7444,10.7367,10.7098,10.7175,10.7251,10.6674,10.6636,10.6905,10.6597,10.6405,10.6444,10.679,10.6751,10.6405,10.6328,10.6059,10.5713,10.5636,10.5405,10.502,10.4905,10.4982,10.502,10.4943,10.4943,10.502,10.4943,10.4943,10.502,10.4943,10.4943,10.4982,10.4943,10.4943,10.502,10.5366,10.5867,10.6136,10.6751,10.7059,10.7367,10.7444,10.6828,10.5751,10.5213,10.5097,10.5443,10.5482,10.5482,10.552,10.6251,10.6713,10.6828,10.7675,10.8136,10.8252,10.8713,10.8829,10.879,10.8906,10.8906,10.879,10.8906,10.8906,10.8906,10.8906,10.8906,10.879,10.879,10.8367,10.7559,10.7905,10.7944,10.7598,10.7444,10.7444,10.7405,10.7175,10.6982,10.6867,10.6597,10.6444,10.6251,10.5867,10.5559,10.5328,10.5251,10.5097,10.4789,10.4636,10.4443,10.4405,10.4366,10.4097,10.3674,10.3251,10.3443,10.3674,10.3328,10.3289,10.3828,10.4097,10.3712,10.3558,10.3866,10.3943,10.402,10.4251,10.4212,10.7831,10.7831,10.779,10.8252,10.879,10.8867,10.8713,10.8713,10.8098,10.8175,10.8367,10.729,10.7251,10.7752,10.7251,10.6751,10.6828,10.7559,10.7328,10.7059,10.6867,10.6828,10.679,10.6367,10.6213,10.6136,10.6328,10.6251,10.6097,10.6213,10.6328,10.6213,10.6328,10.6482,10.6444,10.6559,10.6636,10.6636,10.6636,10.6674,10.6674,10.679,10.7098,10.7559,10.7713,10.8098,10.8521,10.8713,10.8406,10.7982,10.7136,10.7059,10.7636,10.7752,10.7713,10.7713,10.8136,10.8559,10.879,10.879,10.906,10.9098,10.9175,10.9175,10.9406,10.9483,10.9444,10.9483,10.9175,10.9406,10.9406,10.929,10.9406,10.956,10.9944,10.9867,10.9406,10.9098,10.8983,10.8906,10.8829,10.8867,10.8713,10.8329,10.7829,10.7713,10.7328,10.6944,10.6713,10.6328,10.6174,10.6097,10.6136,10.6251,10.5944,10.5674,10.5405,10.5251,10.5251,10.5059,10.4636,10.4289,10.4212,10.4135,10.4174,10.4251,10.4482,10.4482,10.4328,10.4443,10.4828,10.4597,10.4328,10.4751,10.4866,10.8678,10.8639,10.8636,10.871,10.8902,10.8906,10.8906,10.8944,10.8752,10.879,10.879,10.8482,10.8406,10.8636,10.8367,10.8367,10.8213,10.8482,10.8482,10.8444,10.8367,10.8367,10.8021,10.7175,10.6482,10.6521,10.6444,10.6444,10.6482,10.6597,10.6444,10.6559,10.7175,10.7405,10.7482,10.7905,10.8367,10.8367,10.829,10.8213,10.8175,10.8213,10.8329,10.8636,10.8713,10.8752,10.8829,10.8906,10.9136,10.929,10.8944,10.8598,10.8636,10.8675,10.8636,10.8713,10.8829,10.8983,10.9021,10.956,10.9906,10.9983,11.0406,11.0944,11.0983,11.0829,11.0868,11.0944,11.0944,11.0752,11.0752,11.0868,11.0791,11.0791,11.0944,11.1098,11.0868,11.0291,10.9713,10.9213,10.9021,10.8906,10.8944,10.8906,10.8636,10.8521,10.8098,10.7521,10.7213,10.6905,10.679,10.679,10.6674,10.6674,10.629,10.6059,10.5944,10.579,10.5828,10.6097,10.5674,10.5213,10.5059,10.5097,10.5213,10.529,10.529,10.5559,10.552,10.5674,10.5713,10.552,10.5405,10.5597,10.5559,10.9521,10.9483,10.9521,10.9752,11.0094,11.0137,11.0137,11.0021,10.9675,10.9752,10.9867,10.9329,10.9098,10.9444,10.9098,10.8867,10.8906,10.8906,10.9136,10.9252,10.9136,10.8867,10.8829,10.8136,10.7598,10.7598,10.7598,10.7598,10.7559,10.7521,10.7675,10.7598,10.8059,10.8252,10.8252,10.8752,10.879,10.8829,10.8906,10.8906,10.8906,10.8906,10.9213,10.956,10.9867,11.0137,11.0175,11.0137,11.0406,11.0675,11.0675,11.0252,10.9637,10.9521,10.9521,10.956,10.9944,11.0098,11.0291,11.0521,11.0829,11.0791,11.1291,11.1445,11.1522,11.1522,11.1522,11.1522,11.1483,11.1522,11.1522,11.1483,11.1522,11.1522,11.1522,11.1522,11.1445,11.106,11.0675,11.0214,11.0252,11.0214,11.0098,10.9713,10.9521,10.9444,10.879,10.8252,10.8252,10.7944,10.7521,10.7367,10.7175,10.6944,10.6521,10.6328,10.629,10.6213,10.6174,10.6597,10.6751,10.629,10.5867,10.5905,10.5944,10.5944,10.602,10.6367,10.6405,10.6213,10.6136,10.6328,10.6367,10.6213,10.6097,11.0402,11.0402,11.0406,11.0829,11.1445,11.1483,11.1406,11.1329,11.0714,11.0714,11.1137,10.9867,10.9867,11.0137,10.9752,10.9367,10.9367,10.9444,10.9906,11.0252,10.9867,10.9637,10.9521,10.9406,10.9329,10.9252,10.8829,10.8752,10.8713,10.8867,10.8559,10.8829,10.906,10.9098,10.9098,10.929,10.9521,10.956,10.9598,10.956,10.9521,10.9521,10.9867,11.0367,11.0906,11.1252,11.1252,11.1291,11.1445,11.156,11.2291,11.1868,11.106,11.0752,11.0752,11.0829,11.1368,11.1483,11.1445,11.1483,11.1445,11.1522,11.1522,11.1522,11.1522,11.1522,11.1522,11.1522,11.1522,11.1522,11.1522,11.1522,11.1522,11.1522,11.1522,11.1522,11.1522,11.1522,11.1368,11.1368,11.106,11.0983,11.0944,11.0714,11.0521,11.0252,10.956,10.9098,10.9098,10.8867,10.8367,10.8098,10.7905,10.7867,10.7482,10.729,10.7213,10.7059,10.6905,10.729,10.7752,10.7521,10.7059,10.6597,10.6559,10.6521,10.6405,10.6367,10.6405,10.6405,10.6636,10.6867,10.6867,10.6713,10.6828,11.1329,11.1291,11.1291,11.1368,11.1522,11.1522,11.1522,11.1483,11.1329,11.1368,11.1445,11.1175,11.1021,11.1175,11.1214,11.106,11.0829,11.0791,11.0983,11.1175,11.0944,11.0868,11.0791,11.0752,11.0906,11.0675,10.9867,10.9136,10.906,10.8906,10.9213,10.9136,10.9637,10.9983,11.0175,11.0637,11.0829,11.0714,11.0791,11.0791,11.0791,11.0829,11.0868,11.1175,11.1406,11.1483,11.1522,11.1522,11.1522,11.1598,11.2291,11.2445,11.2368,11.2753,11.3137,11.2983,11.2676,11.2483,11.2329,11.1868,11.1598,11.1522,11.1522,11.1522,11.1522,11.1522,11.1522,11.1522,11.1522,11.1522,11.1522,11.1522,11.1522,11.1522,11.1522,11.1522,11.1522,11.1522,11.1522,11.1522,11.1522,11.1522,11.1368,11.1252,11.1098,11.0829,11.0367,11.0021,10.9983,10.956,10.9021,10.8829,10.8713,10.8713,10.8598,10.8482,10.8367,10.8252,10.8175,10.8252,10.8559,10.8636,10.8329,10.7867,10.7213,10.6828,10.6713,10.6674,10.6751,10.7021,10.7251,10.7482,10.7559,10.7636,10.8021,11.1522,11.1522,11.1522,11.1522,11.1522,11.1522,11.1522,11.1522,11.1522,11.1522,11.1522,11.1522,11.1522,11.1522,11.1522,11.1522,11.1522,11.1522,11.1522,11.1522,11.1522,11.1522,11.1522,11.1522,11.1522,11.1291,11.0637,11.0214,11.0252,11.0291,11.0137,11.0329,11.0714,11.0868,11.0944,11.1214,11.1483,11.1522,11.1522,11.1522,11.1522,11.1522,11.1522,11.1522,11.1522,11.1522,11.1522,11.1522,11.1522,11.1675,11.2291,11.2637,11.306,11.3791,11.4484,11.406,11.3637,11.3137,11.2791,11.2291,11.2022,11.156,11.1522,11.1522,11.1522,11.1522,11.1522,11.1522,11.1522,11.1522,11.1522,11.1522,11.1522,11.1522,11.1522,11.1522,11.1522,11.1522,11.1522,11.1522,11.1522,11.1522,11.1522,11.1483,11.1522,11.1329,11.106,11.0906,11.0791,11.0406,10.9829,10.956,10.9444,10.9252,10.929,10.9329,10.9329,10.9252,10.9252,10.9329,10.9329,10.9367,10.9367,10.9136,10.8406,10.7752,10.7713,10.7905,10.779,10.7636,10.8021,10.8329,10.8406,10.8598,10.8983,11.1522,11.1522,11.1522,11.1522,11.1522,11.1522,11.1522,11.1522,11.1522,11.1522,11.1522,11.1522,11.1522,11.1522,11.1522,11.1522,11.1522,11.1522,11.1522,11.1522,11.1522,11.1522,11.1522,11.1522,11.1522,11.1483,11.1406,11.1522,11.1291,11.1291,11.1445,11.1329,11.1445,11.1522,11.1483,11.1483,11.1522,11.1522,11.1522,11.1522,11.1522,11.1522,11.1522,11.1522,11.1522,11.1522,11.1522,11.1522,11.1522,11.1714,11.2214,11.2791,11.3176,11.4291,11.483,11.4561,11.4368,11.3791,11.3214,11.2714,11.2252,11.1598,11.1522,11.1522,11.1522,11.1522,11.1522,11.1522,11.1522,11.1522,11.1522,11.1522,11.1522,11.1522,11.1522,11.1522,11.1522,11.1522,11.1522,11.1522,11.1522,11.1522,11.1522,11.1522,11.1522,11.1522,11.1252,11.1291,11.1175,11.1252,11.0829,11.0444,11.0137,10.9867,10.9829,10.9944,11.0021,11.0098,11.0098,11.0137,11.0098,11.006,11.0098,11.0175,10.9983,10.9444,10.9329,10.8906,10.8521,10.8444,10.8906,10.9175,10.9213,10.9521,10.9944,11.1522,11.1522,11.1522,11.1522,11.1522,11.1522,11.1522,11.1522,11.1522,11.1522,11.1522,11.1522,11.1522,11.1522,11.1522,11.1522,11.1522,11.1522,11.1522,11.1522,11.1522,11.1522,11.1522,11.1522,11.1598,11.1675,11.1637,11.1522,11.1675,11.1675,11.1522,11.1522,11.1522,11.1522,11.1522,11.1522,11.1522,11.1522,11.1522,11.1522,11.1522,11.1522,11.1522,11.1522,11.1522,11.1522,11.1522,11.1522,11.1522,11.1598,11.2252,11.3022,11.3714,11.3945,11.4984,11.5522,11.5522,11.4791,11.3907,11.3253,11.2522,11.1868,11.156,11.1522,11.1522,11.1522,11.1522,11.1522,11.1522,11.1522,11.1522,11.1522,11.1522,11.1522,11.1522,11.1522,11.1522,11.1522,11.1522,11.1522,11.1522,11.1522,11.1522,11.1522,11.1522,11.1522,11.1522,11.1522,11.1522,11.1522,11.1522,11.106,11.0829,11.056,11.0444,11.056,11.0598,11.0752,11.0791,11.0868,11.0791,11.0752,11.1021,11.106,11.0906,11.0521,10.9906,10.9406,10.906,10.9252,10.979,10.9983,11.006,11.0444,11.0791,11.1522,11.1522,11.1522,11.1522,11.1522,11.1522,11.1522,11.1522,11.1522,11.1522,11.1522,11.1522,11.1522,11.1522,11.1522,11.1522,11.1522,11.1522,11.1522,11.1522,11.1522,11.156,11.1522,11.156,11.1637,11.2137,11.2252,11.2637,11.2483,11.1945,11.1522,11.156,11.1522,11.1522,11.1522,11.1522,11.1522,11.1522,11.1522,11.1522,11.1522,11.1522,11.1522,11.1522,11.156,11.1522,11.156,11.1522,11.1522,11.156,11.1906,11.2137,11.2599,11.3022,11.383,11.483,11.5253,11.5061,11.4676,11.3907,11.3022,11.2252,11.1791,11.1522,11.1522,11.1522,11.1522,11.1522,11.1522,11.1522,11.1522,11.1522,11.1522,11.1522,11.1522,11.1522,11.1522,11.1522,11.1522,11.1522,11.1522,11.1522,11.1522,11.1522,11.1522,11.1522,11.1522,11.1522,11.1522,11.1522,11.1522,11.1445,11.1368,11.1329,11.1214,11.1214,11.1098,11.1214,11.1214,11.1252,11.1368,11.1445,11.1522,11.1522,11.1291,11.0829,11.0291,11.0291,11.0252,11.0444,11.0675,11.0714,11.0752,11.0906,11.1252,11.1522,11.1522,11.1522,11.1522,11.1522,11.1522,11.1522,11.1522,11.1522,11.1522,11.1522,11.1522,11.1522,11.1522,11.1522,11.1522,11.1522,11.1522,11.1522,11.156,11.1714,11.1868,11.2022,11.206,11.2522,11.306,11.3022,11.3291,11.3253,11.2714,11.1906,11.1791,11.1945,11.1714,11.156,11.1522,11.1522,11.1522,11.1522,11.1637,11.1791,11.1598,11.1829,11.1906,11.1791,11.1598,11.1752,11.156,11.1522,11.1522,11.156,11.1752,11.2099,11.2368,11.306,11.406,11.483,11.5253,11.4945,11.4368,11.3522,11.2599,11.1983,11.1522,11.1522,11.1522,11.1522,11.1522,11.1522,11.1522,11.1522,11.1522,11.1522,11.1522,11.1522,11.1522,11.1522,11.1522,11.1522,11.1522,11.1522,11.1522,11.1522,11.1522,11.1522,11.1522,11.1522,11.1522,11.1522,11.1522,11.1522,11.1522,11.1522,11.1522,11.1522,11.1522,11.1522,11.1522,11.1522,11.1522,11.1522,11.1522,11.1522,11.1522,11.1522,11.1329,11.0906,11.1214,11.1522,11.1291,11.1137,11.1329,11.1406,11.1522,11.1522,11.1522,11.1522,11.1522,11.1522,11.1522,11.1522,11.1522,11.1522,11.1522,11.1522,11.1522,11.1522,11.1522,11.1522,11.1522,11.1522,11.1522,11.1522,11.1598,11.1829,11.2214,11.2522,11.2753,11.3214,11.3714,11.3907,11.3907,11.3984,11.3945,11.3637,11.2906,11.2637,11.2368,11.206,11.1752,11.1522,11.1522,11.1522,11.1522,11.1906,11.2099,11.2099,11.2214,11.306,11.2445,11.1829,11.2522,11.2022,11.1675,11.1675,11.156,11.1752,11.206,11.1945,11.2522,11.3791,11.4791,11.5215,11.5099,11.4676,11.3368,11.2214,11.1637,11.1714,11.1752,11.1598,11.1522,11.156,11.1522,11.1522,11.1522,11.1522,11.1522,11.1522,11.1522,11.1522,11.1522,11.1522,11.1522,11.1522,11.1522,11.1522,11.1522,11.1522,11.1522,11.1522,11.1522,11.1522,11.1522,11.1522,11.1522,11.1522,11.1522,11.1522,11.1522,11.1522,11.1522,11.1522,11.1522,11.1522,11.1522,11.1522,11.1522,11.1522,11.1522,11.1522,11.1522,11.1522,11.1522,11.1522,11.1522,11.1522,11.1522,11.1522,11.1522,11.1522,11.1522,11.1522,11.1522,11.1522,11.1522,11.1522,11.1522,11.1522,11.1522,11.1522,11.1522,11.1522,11.1522,11.1522,11.1522,11.1522,11.1522,11.1791,11.2175,11.2599,11.3022,11.3445,11.3907,11.4214,11.4676,11.4791,11.5138,11.5484,11.483,11.4676,11.4176,11.2829,11.1983,11.156,11.156,11.1522,11.1522,11.1598,11.1945,11.2368,11.206,11.2291,11.3676,11.2983,11.2753,11.3214,11.2637,11.2368,11.2137,11.1791,11.1945,11.2137,11.1791,11.2522,11.3868,11.483,11.5253,11.5368,11.5253,11.4753,11.333,11.2637,11.2252,11.2252,11.2252,11.1945,11.1752,11.156,11.1637,11.1522,11.1522,11.1522,11.1522,11.1522,11.1522,11.1522,11.1522,11.1522,11.1522,11.1522,11.1522,11.1522,11.1522,11.1522,11.1522,11.1522,11.1522,11.1522,11.1522,11.1522,11.1522,11.1522,11.1522,11.1522,11.1522,11.1522,11.1522,11.1522,11.1522,11.1522,11.1522,11.1522,11.1522,11.1522,11.1522,11.1522,11.1522,11.1522,11.1522,11.1522,11.1522,11.1522,11.1522,11.1522,11.1522,11.1522,11.1522,11.1522,11.1522,11.1522,11.1522,11.1522,11.1522,11.1522,11.1522,11.1522,11.1522,11.1522,11.1522,11.1522,11.1598,11.1791,11.2214,11.2714,11.3291,11.3791,11.4253,11.4714,11.5215,11.5599,11.5676,11.5984,11.6292,11.6215,11.5407,11.4253,11.3022,11.2175,11.1868,11.1598,11.1522,11.1522,11.1829,11.2291,11.2906,11.2714,11.3137,11.4368,11.3753,11.3599,11.3907,11.3599,11.3176,11.2945,11.2676,11.2368,11.2291,11.2406,11.2906,11.3907,11.4907,11.5522,11.5522,11.5291,11.5215,11.3868,11.3445,11.3137,11.3099,11.3099,11.2868,11.2483,11.2137,11.1868,11.1829,11.1752,11.156,11.1522,11.1522,11.1522,11.1522,11.1522,11.1522,11.1522,11.1522,11.156,11.1522,11.1522,11.1522,11.1522,11.1522,11.1522,11.1522,11.1522,11.1522,11.1522,11.1522,11.1522,11.1522,11.1522,11.1522,11.1522,11.1522,11.1522,11.1522,11.1522,11.1522,11.1522,11.1522,11.1522,11.1522,11.1522,11.1522,11.1522,11.1522,11.1522,11.1522,11.1522,11.1522,11.1522,11.1522,11.1522,11.1522,11.1522,11.1522,11.1522,11.1522,11.1522,11.1522,11.1522,11.1522,11.1522,11.1522,11.1522,11.1598,11.1829,11.2291,11.2791,11.3291,11.4253,11.4984,11.5445,11.5792,11.5984,11.6369,11.633,11.6292,11.6446,11.583,11.5022,11.4291,11.3368,11.2599,11.2599,11.1906,11.156,11.1675,11.2406,11.3137,11.3753,11.3753,11.4484,11.5291,11.4714,11.4407,11.4868,11.4407,11.4022,11.3907,11.3676,11.3483,11.3522,11.356,11.3868,11.4291,11.5638,11.5984,11.5484,11.4638,11.4445,11.4407,11.4214,11.3984,11.3984,11.3945,11.383,11.3368,11.306,11.2753,11.2445,11.2175,11.1945,11.1906,11.1983,11.2022,11.206,11.2099,11.2214,11.2291,11.1868,11.156,11.156,11.156,11.1522,11.1522,11.1522,11.1522,11.1522,11.1522,11.1522,11.1522,11.1522,11.1522,11.1522,11.1522,11.1522,11.1522,11.1522,11.1522,11.1522,11.1522,11.1522,11.1522,11.1522,11.1522,11.1522,11.1522,11.1522,11.1522,11.1522,11.1522,11.1522,11.1522,11.1522,11.1522,11.1522,11.1522,11.1522,11.1522,11.1522,11.1522,11.1522,11.1522,11.1522,11.1522,11.1522,11.1522,11.1522,11.1598,11.1791,11.2291,11.2483,11.2983,11.4445,11.5138,11.5599,11.6022,11.6292,11.6484,11.6484,11.6484,11.6484,11.6484,11.5753,11.5291,11.4714,11.3868,11.3253,11.3022,11.2829,11.3176,11.3214,11.3522,11.3945,11.4638,11.4445,11.483,11.6369,11.5368,11.5253,11.5907,11.5176,11.4868,11.4753,11.4522,11.4214,11.4176,11.4176,11.4599,11.5253,11.6446,11.6676,11.6561,11.6292,11.5753,11.5484,11.5099,11.4868,11.4868,11.4868,11.4599,11.4176,11.3868,11.3599,11.3445,11.3407,11.3291,11.3291,11.333,11.333,11.3368,11.333,11.3368,11.3407,11.3176,11.2637,11.2445,11.2175,11.206,11.1945,11.1983,11.1675,11.156,11.1522,11.1522,11.1522,11.1522,11.1522,11.1522,11.1522,11.1522,11.1522,11.1522,11.1522,11.1522,11.1522,11.1522,11.1522,11.1522,11.1522,11.156,11.156,11.1522,11.1522,11.1714,11.1675,11.1522,11.1522,11.1522,11.1522,11.1522,11.1522,11.1522,11.1522,11.1522,11.1522,11.1522,11.1522,11.1522,11.1522,11.1522,11.1522,11.1598,11.1829,11.2099,11.2753,11.3445,11.383,11.533,11.5638,11.5984,11.633,11.6484,11.6484,11.6484,11.6484,11.6484,11.6484,11.5984,11.5561,11.5099,11.4445,11.3984,11.3753,11.3945,11.3868,11.3907,11.4176,11.4676,11.5061,11.5176,11.5445,11.6099,11.6061,11.5945,11.6176,11.6061,11.5676,11.5484,11.5215,11.483,11.483,11.5022,11.5407,11.6215,11.6561,11.6792,11.6869,11.6792,11.6292,11.6292,11.5945,11.5753,11.5715,11.5715,11.5484,11.5061,11.4638,11.4484,11.4445,11.4407,11.4137,11.4099,11.4099,11.406,11.4022,11.3984,11.3984,11.4099,11.4022,11.3599,11.3291,11.2983,11.2753,11.2599,11.2445,11.2099,11.1714,11.1637,11.1598,11.1522,11.1522,11.1522,11.1522,11.1522,11.1522,11.1522,11.1522,11.1522,11.1522,11.1522,11.1522,11.1522,11.1598,11.1637,11.1637,11.1637,11.1868,11.2099,11.2329,11.2099,11.1637,11.1714,11.1945,11.1522,11.1522,11.1522,11.1522,11.1522,11.1522,11.1522,11.1522,11.1522,11.1522,11.1522,11.1522,11.1522,11.1675,11.2291,11.2714,11.3137,11.4407,11.5061,11.5522,11.6022,11.6369,11.6446,11.6484,11.6484,11.6484,11.6484,11.6484,11.6446,11.583,11.5484,11.5138,11.433,11.4445,11.4676,11.4753,11.4522,11.4714,11.5022,11.5368,11.5561,11.5984,11.6138,11.6407,11.6369,11.633,11.6446,11.633,11.633,11.633,11.633,11.633,11.6407,11.6446,11.6484,11.6484,11.6484,11.6715,11.6599,11.6522,11.6522,11.6484,11.6407,11.6446,11.6369,11.6253,11.6099,11.5907,11.5599,11.5407,11.5291,11.4868,11.4445,11.4407,11.4407,11.4407,11.4368,11.4368,11.4368,11.4368,11.4291,11.4099,11.406,11.383,11.3445,11.333,11.3176,11.2906,11.2483,11.1906,11.1791,11.1522,11.1522,11.1522,11.1522,11.156,11.1522,11.1522,11.1522,11.156,11.1522,11.1752,11.2022,11.2099,11.1829,11.1868,11.2291,11.2445,11.2483,11.2714,11.2983,11.2368,11.1868,11.2522,11.2829,11.1522,11.1522,11.1522,11.1522,11.1522,11.1522,11.1522,11.1522,11.1522,11.1522,11.1522,11.1522,11.1522,11.1598,11.2329,11.2983,11.383,11.4714,11.5561,11.6061,11.633,11.6446,11.6484,11.6484,11.6484,11.6484,11.6484,11.6407,11.6138,11.5561,11.4791,11.4291,11.4253,11.4907,11.5522,11.5869,11.5715,11.5676,11.5907,11.5984,11.6061,11.633,11.6484,11.6484,11.6484,11.6484,11.6484,11.6484,11.6484,11.6484,11.6484,11.6484,11.6484,11.6484,11.6484,11.6561,11.6907,11.7253,11.6638,11.6484,11.6484,11.6484,11.6484,11.6484,11.6484,11.6484,11.6484,11.633,11.6253,11.6022,11.5907,11.5599,11.533,11.533,11.5291,11.5291,11.5291,11.5291,11.5291,11.5253,11.5138,11.4907,11.4868,11.4484,11.4137,11.406,11.3907,11.3714,11.3291,11.2753,11.2137,11.1829,11.1906,11.2022,11.1675,11.1598,11.156,11.1522,11.1637,11.1868,11.2137,11.2406,11.2676,11.2829,11.2829,11.3022,11.3368,11.3407,11.3407,11.3483,11.3637,11.2829,11.2368,11.3214,11.3907,11.1214,11.1483,11.1522,11.1522,11.1522,11.1522,11.1522,11.1522,11.1522,11.1522,11.1522,11.1522,11.1522,11.1637,11.2329,11.3176,11.4022,11.4868,11.5676,11.6292,11.6484,11.6484,11.6484,11.6484,11.6484,11.6484,11.6407,11.6253,11.5753,11.4907,11.4099,11.4599,11.4484,11.5291,11.6061,11.633,11.6369,11.6369,11.6446,11.6484,11.6484,11.6484,11.6484,11.6484,11.6484,11.6484,11.6484,11.6484,11.6484,11.6484,11.6484,11.6484,11.6484,11.6484,11.6484,11.6561,11.6792,11.6869,11.6561,11.6484,11.6484,11.6484,11.6484,11.6484,11.6484,11.6484,11.6484,11.6446,11.6446,11.6446,11.6446,11.6446,11.6446,11.6407,11.6407,11.6407,11.6407,11.6407,11.6369,11.633,11.6138,11.5869,11.5561,11.5138,11.5022,11.5215,11.5176,11.4907,11.4368,11.3676,11.2906,11.2329,11.2483,11.2676,11.2252,11.1983,11.206,11.2137,11.2137,11.2368,11.2714,11.3176,11.3599,11.3868,11.406,11.4291,11.4561,11.4445,11.4445,11.4522,11.4753,11.4484,11.4253,11.4561,11.5215,11.0598,11.1368,11.1483,11.1522,11.1522,11.1522,11.1522,11.1522,11.156,11.1522,11.1522,11.1522,11.1522,11.1714,11.2406,11.3214,11.4099,11.4945,11.5715,11.6446,11.6484,11.6484,11.6484,11.6484,11.6484,11.6484,11.633,11.6061,11.5138,11.4484,11.4368,11.5176,11.5176,11.5638,11.633,11.6484,11.6484,11.6484,11.6484,11.6484,11.6484,11.6484,11.6484,11.6484,11.6484,11.6484,11.6484,11.6484,11.6484,11.6484,11.6484,11.6484,11.6484,11.6484,11.6484,11.6522,11.6638,11.6599,11.6561,11.6484,11.6484,11.6484,11.6484,11.6484,11.6484,11.6484,11.6484,11.6484,11.6484,11.6484,11.6484,11.6484,11.6484,11.6484,11.6484,11.6484,11.6484,11.6484,11.6484,11.6446,11.6369,11.6176,11.6138,11.5753,11.5676,11.6138,11.6138,11.5869,11.5484,11.4714,11.3907,11.306,11.3099,11.3253,11.306,11.2829,11.2829,11.2829,11.2829,11.3099,11.3599,11.406,11.4561,11.5061,11.5599,11.5561,11.5676,11.5869,11.5984,11.5792,11.6022,11.6253,11.6369,11.6484,11.6715,10.9713,11.0555,11.1252,11.1522,11.1522,11.1522,11.1522,11.1522,11.1714,11.1675,11.156,11.1522,11.1637,11.1868,11.2368,11.3214,11.4291,11.4868,11.5715,11.6292,11.6522,11.6484,11.6484,11.6484,11.6484,11.6484,11.6292,11.5753,11.4791,11.4253,11.4137,11.4445,11.4945,11.583,11.6446,11.6484,11.6484,11.6484,11.6484,11.6484,11.6484,11.6484,11.6484,11.6484,11.6484,11.6484,11.6484,11.6484,11.6484,11.6484,11.6484,11.6484,11.6484,11.6484,11.6484,11.6484,11.6484,11.6484,11.6484,11.6484,11.6484,11.6484,11.6484,11.6484,11.6484,11.6484,11.6484,11.6484,11.6484,11.6484,11.6484,11.6484,11.6484,11.6484,11.6484,11.6484,11.6484,11.6484,11.6484,11.6484,11.6484,11.6484,11.6484,11.6484,11.6484,11.6446,11.6446,11.6292,11.6253,11.5715,11.4984,11.4253,11.3868,11.383,11.3714,11.3676,11.3676,11.3714,11.3714,11.406,11.4484,11.5022,11.5599,11.6599,11.7215,11.7061,11.7292,11.8023,11.8023,11.7369,11.7369,11.7638,11.8407,11.8715,11.8754,10.8867,10.9675,11.056,11.1252,11.1637,11.1675,11.1714,11.1868,11.1983,11.1922,11.1693,11.1689,11.1752,11.1906,11.2252,11.3342,11.4382,11.4753,11.5715,11.6369,11.6599,11.6484,11.6484,11.6522,11.6484,11.6446,11.6022,11.5407,11.4599,11.4599,11.4676,11.4676,11.5368,11.6022,11.6484,11.6484,11.6484,11.6484,11.6484,11.6484,11.6484,11.6484,11.6484,11.6484,11.6484,11.6484,11.6484,11.6484,11.6484,11.6484,11.6484,11.6484,11.6484,11.6484,11.6484,11.6484,11.6484,11.6484,11.6484,11.6484,11.6484,11.6484,11.6484,11.6484,11.6484,11.6484,11.6484,11.6484,11.6484,11.6484,11.6484,11.6484,11.6484,11.6484,11.6484,11.6484,11.6484,11.6484,11.6484,11.6484,11.6484,11.6484,11.6484,11.6484,11.6484,11.6484,11.6484,11.6484,11.6484,11.6484,11.583,11.5368,11.4945,11.4638,11.4599,11.4561,11.4561,11.4561,11.4561,11.4984,11.5407,11.5984,11.6676,11.7484,11.81,11.8369,11.8754,11.9292,11.9177,11.8446,11.8677,11.9061,11.9869,12.0446,12.0216,10.8101,10.8986,10.9867,11.0906,11.1795,11.1961,11.2039,11.2271,11.2338,11.2193,11.198,11.2002,11.1987,11.1945,11.2038,11.343,11.4393,11.466,11.563,11.6606,11.6753,11.6715,11.6638,11.6599,11.6561,11.6253,11.5792,11.5561,11.5138,11.5138,11.5176,11.5445,11.5945,11.6484,11.6484,11.6484,11.6484,11.6484,11.6484,11.6484,11.6484,11.6484,11.6484,11.6484,11.6484,11.6484,11.6484,11.6484,11.6484,11.6484,11.6484,11.6484,11.6484,11.6484,11.6484,11.6484,11.6484,11.6484,11.6484,11.6484,11.6484,11.6484,11.6484,11.6484,11.6484,11.6484,11.6484,11.6484,11.6484,11.6484,11.6484,11.6484,11.6484,11.6484,11.6484,11.6484,11.6484,11.6484,11.6484,11.6484,11.6484,11.6484,11.6484,11.6484,11.6484,11.6484,11.6484,11.6484,11.6484,11.6484,11.6176,11.6022,11.5869,11.5638,11.5484,11.5368,11.5368,11.5445,11.5484,11.5907,11.6215,11.6407,11.6984,11.8061,11.8638,11.8946,11.9446,11.9946,11.9677,11.9523,11.9869,12.0216,12.0369,12.0869,12.1023,10.7521,10.8983,11.006,11.1021,11.1882,11.2143,11.2233,11.2348,11.2579,11.2495,11.2341,11.2423,11.2488,11.2222,11.2234,11.335,11.4932,11.4934,11.5885,11.704,11.7131,11.7044,11.6875,11.6727,11.6721,11.6407,11.5984,11.5484,11.5945,11.5676,11.5368,11.5561,11.6138,11.6484,11.6484,11.6484,11.6484,11.6484,11.6484,11.6484,11.6484,11.6484,11.6484,11.6484,11.6484,11.6484,11.6484,11.6484,11.6484,11.6484,11.6484,11.6484,11.6484,11.6484,11.6484,11.6484,11.6484,11.6484,11.6484,11.6484,11.6484,11.6484,11.6484,11.6484,11.6484,11.6484,11.6484,11.6484,11.6484,11.6484,11.6484,11.6484,11.6484,11.6484,11.6484,11.6484,11.6484,11.6484,11.6484,11.6484,11.6484,11.6484,11.6484,11.6484,11.6484,11.6484,11.6484,11.6484,11.6484,11.6484,11.6484,11.6484,11.6484,11.6484,11.6253,11.6099,11.6099,11.6176,11.6292,11.6561,11.6599,11.6446,11.7138,11.8523,11.91,11.9369,11.9908,12.06,12.0793,12.0754,12.1062,12.1293,12.1293,12.1216,12.1293]},{"header":{"parameterUnit":"m.s-1","parameterCategory":1,"la1":31.0,"la2":29.5877,"lo1":-88.7671,"lo2":-86.6584,"dy":0.0162,"dx":0.0185,"nx":115,"ny":88,"refTime":"2026-03-15T12:00:00:Z","depth":0,"parameterNumber":3,"parameterNumberName":"V-component_of_WINDS"},"data":[0.0,0.0,0.0,0.0,0.0,0.0,0.0,0.0,0.0,0.0,0.0,0.0,0.0,0.0,0.0,0.0,0.0,0.0,0.0,0.0,0.0,0.0,0.0,0.0,0.0,0.0,0.0,0.0,0.0,0.0,0.0,0.0,0.0,0.0,0.0,0.0,0.0,0.0,0.0,0.0,0.0,0.0,0.0,0.0,0.0,0.0,0.0,0.0,0.0,0.0,0.0,0.0,0.0,0.0,0.0,0.0,0.0,0.0,0.0,0.0,0.0,0.0,0.0,0.0,0.0,0.0,0.0,0.0,0.0,0.0,0.0,0.0,0.0,0.0,0.0,0.0,0.0,0.0,0.0,0.0,0.0,0.0,0.0,0.0,0.0,0.0,0.0,0.0,0.0,0.0,0.0,0.0,0.0,0.0,0.0,0.0,0.0,0.0,0.0,0.0,0.0,0.0,0.0,0.0,0.0,0.0,0.0,0.0,0.0,0.0,0.0,0.0,0.0,0.0,0.0,0.0,0.0,0.0,0.0,0.0,0.0,0.0,0.0,0.0,0.0,0.0,0.0,0.0,0.0,0.0,0.0,0.0,0.0,0.0,0.0,0.0,0.0,0.0,0.0,0.0,0.0,0.0,0.0,0.0,0.0,0.0,0.0,0.0,0.0,0.0,0.0,0.0,0.0,0.0,0.0,0.0,0.0,0.0,0.0,0.0,0.0,0.0,0.0,0.0,0.0,0.0,0.0,0.0,0.0,0.0,0.0,0.0,0.0,0.0,0.0,0.0,0.0,0.0,0.0,0.0,0.0,0.0,0.0,0.0,0.0,0.0,0.0,0.0,0.0,0.0,0.0,0.0,0.0,0.0,0.0,0.0,0.0,0.0,0.0,0.0,0.0,0.0,0.0,0.0,0.0,0.0,0.0,0.0,0.0,0.0,0.0,0.0,0.0,0.0,0.0,0.0,0.0,0.0,0.0,0.0,0.0,0.0,0.0,0.0,0.0,0.0,0.0,0.0,0.0,0.0,0.0,0.0,0.0,0.0,0.0,0.0,0.0,0.0,0.0,0.0,0.0,0.0,0.0,0.0,0.0,0.0,0.0,0.0,0.0,0.0,0.0,0.0,0.0,0.0,0.0,0.0,0.0,0.0,0.0,0.0,0.0,0.0,0.0,0.0,0.0,0.0,0.0,0.0,0.0,0.0,0.0,0.0,0.0,0.0,0.0,0.0,0.0,0.0,0.0,0.0,0.0,0.0,0.0,0.0,0.0,0.0,0.0,0.0,0.0,0.0,0.0,0.0,0.0,0.0,0.0,0.0,0.0,0.0,0.0,0.0,0.0,0.0,0.0,0.0,0.0,0.0,0.0,0.0,0.0,0.0,0.0,0.0,0.0,0.0,0.0,0.0,0.0,0.0,0.0,0.0,0.0,0.0,0.0,0.0,0.0,0.0,0.0,0.0,0.0,0.0,0.0,0.0,0.0,0.0,0.0,0.0,0.0,0.0,0.0,0.0,0.0,0.0,0.0,0.0,0.0,0.0,0.0,0.0,0.0,0.0,0.0,0.0,0.0,0.0,0.0,0.0,0.0,0.0,0.0,0.0,0.0,0.0,0.0,0.0,0.0,0.0,0.0,0.0,0.0,0.0,0.0,0.0,0.0,0.0,0.0,0.0,0.0,0.0,0.0,0.0,0.0,0.0,0.0,0.0,0.0,0.0,0.0,0.0,0.0,0.0,0.0,0.0,0.0,0.0,0.0,0.0,0.0,0.0,0.0,0.0,0.0,0.0,0.0,0.0,0.0,0.0,0.0,0.0,0.0,0.0,0.0,0.0,0.0,0.0,0.0,0.0,0.0,0.0,0.0,0.0,0.0,0.0,0.0,0.0,0.0,0.0,0.0,0.0,0.0,0.0,0.0,0.0,0.0,0.0,0.0,0.0,0.0,0.0,0.0,0.0,0.0,0.0,0.0,0.0,0.0,0.0,0.0,0.0,0.0,0.0,0.0,0.0,0.0,0.0,0.0,0.0,0.0,0.0,0.0,0.0,0.0,0.0,0.0,0.0,0.0,0.0,0.0,0.0,0.0,0.0,0.0,0.0,0.0,0.0,0.0,0.0,0.0,0.0,0.0,0.0,0.0,0.0,0.0,0.0,0.0,0.0,0.0,0.0,0.0,0.0,0.0,0.0,0.0,0.0,0.0,0.0,0.0,0.0,0.0,0.0,0.0,0.0,0.0,0.0,0.0,0.0,0.0,0.0,0.0,0.0,0.0,0.0,0.0,0.0,0.0,0.0,0.0,0.0,0.0,0.0,0.0,0.0,0.0,0.0,0.0,0.0,0.0,0.0,0.0,0.0,0.0,0.0,0.0,0.0,0.0,0.0,0.0,0.0,0.0,0.0,0.0,0.0,0.0,0.0,0.0,0.0,0.0,0.0,0.0,0.0,0.0,0.0,0.0,0.0,0.0,0.0,0.0,0.0,0.0,0.0,0.0,0.0,0.0,0.0,0.0,0.0,0.0,0.0,0.0,0.0,0.0,0.0,0.0,0.0,0.0,0.0,0.0,0.0,0.0,0.0,0.0,0.0,0.0,0.0,0.0,0.0,0.0,0.0,0.0,0.0,0.0,0.0,0.0,0.0,0.0,0.0,0.0,0.0,0.0,0.0,0.0,0.0,0.0,0.0,0.0,0.0,0.0,0.0,0.0,0.0,0.0,0.0,0.0,0.0,0.0,0.0,0.0,0.0,0.0,0.0,0.0,0.0,0.0,0.0,0.0,0.0,0.0,0.0,0.0,0.0,0.0,0.0,0.0,0.0,0.0,0.0,0.0,0.0,0.0,0.0,0.0,0.0,0.0,0.0,0.0,0.0,0.0,0.0,0.0,0.0,0.0,0.0,0.0,0.0,0.0,0.0,0.0,0.0,0.0,0.0,0.0,0.0,0.0,0.0,0.0,0.0,0.0,0.0,0.0,0.0,0.0,0.0,0.0,0.0,0.0,0.0,0.0,0.0,0.0,0.0,0.0,0.0,0.0,0.0,0.0,0.0,0.0,0.0,0.0,0.0,0.0,0.0,0.0,0.0,0.0,0.0,0.0,0.0,0.0,0.0,0.0,0.0,0.0,0.0,0.0,0.0,0.0,0.0,0.0,0.0,0.0,0.0,0.0,0.0,0.0,0.0,0.0,0.0,0.0,0.0,0.0,0.0,0.0,0.0,0.0,0.0,0.0,0.0,0.0,0.0,0.0,0.0,0.0,0.0,0.0,0.0,0.0,0.0,0.0,0.0,0.0,0.0,0.0,0.0,0.0,0.0,0.0,0.0,0.0,0.0,0.0,0.0,0.0,0.0,0.0,0.0,0.0,0.0,0.0,0.0,0.0,0.0,0.0,0.0,0.0,0.0,0.0,0.0,0.0,0.0,0.0,0.0,0.0,0.0,0.0,0.0,0.0,0.0,0.0,0.0,0.0,0.0,0.0,0.0,0.0,0.0,0.0,0.0,0.0,0.0,0.0,0.0,0.0,0.0,0.0,0.0,0.0,0.0,0.0,0.0,0.0,0.0,0.0,0.0,0.0,0.0,0.0,0.0,0.0,0.0,0.0,0.0,0.0,0.0,0.0,0.0,0.0,0.0,0.0,0.0,0.0,0.0,0.0,0.0,0.0,0.0,0.0,0.0,0.0,0.0,0.0,0.0,0.0,0.0,0.0,0.0,0.0,0.0,0.0,0.0,0.0,0.0,0.0,0.0,0.0,0.0,0.0,0.0,0.0,0.0,0.0,0.0,0.0,0.0,0.0,0.0,0.0,0.0,0.0,0.0,0.0,0.0,0.0,0.0,0.0,0.0,0.0,0.0,0.0,0.0,0.0,0.0,0.0,0.0,0.0,0.0,0.0,0.0,0.0,0.0,0.0,0.0,0.0,0.0,0.0,0.0,0.0,0.0,0.0,0.0,0.0,0.0,0.0,0.0,0.0,0.0,0.0,0.0,0.0,0.0,0.0,0.0,0.0,0.0,0.0,0.0,0.0,0.0,0.0,0.0,0.0,0.0,0.0,0.0,0.0,0.0,0.0,0.0,0.0,0.0,0.0,0.0,0.0,0.0,0.0,0.0,0.0,0.0,0.0,0.0,0.0,0.0,0.0,0.0,0.0,0.0,0.0,0.0,0.0,0.0,0.0,0.0,0.0,0.0,0.0,0.0,0.0,0.0,0.0,0.0,0.0,0.0,0.0,0.0,0.0,0.0,0.0,0.0,0.0,0.0,0.0,0.0,0.0,0.0,0.0,0.0,-1.7324,0.0,0.0,0.0,0.0,0.0,0.0,0.0,0.0,0.0,0.0,0.0,0.0,0.0,0.0,0.0,0.0,0.0,0.0,0.0,0.0,0.0,0.0,0.0,0.0,0.0,0.0,0.0,0.0,0.0,0.0,0.0,0.0,0.0,0.0,0.0,0.0,0.0,0.0,0.0,0.0,0.0,0.0,0.0,0.0,0.0,0.0,0.0,0.0,0.0,0.0,0.0,0.0,0.0,0.0,0.0,0.0,0.0,0.0,0.0,0.0,0.0,0.0,0.0,0.0,0.0,0.0,0.0,0.0,0.0,0.0,0.0,0.0,0.0,0.0,0.0,0.0,0.0,0.0,0.0,0.0,0.0,0.0,0.0,0.0,0.0,0.0,0.0,0.0,0.0,0.0,0.0,0.0,0.0,0.0,0.0,0.0,0.0,0.0,0.0,0.0,0.0,0.0,0.0,0.0,0.0,0.0,0.0,0.0,0.0,0.0,-1.8437,-1.8027,-1.8418,-1.8242,-1.7422,0.0,0.0,0.0,0.0,0.0,0.0,0.0,0.0,0.0,0.0,0.0,0.0,0.0,0.0,0.0,0.0,0.0,0.0,0.0,0.0,0.0,0.0,0.0,0.0,0.0,0.0,0.0,0.0,0.0,0.0,0.0,0.0,0.0,0.0,0.0,0.0,0.0,0.0,0.0,0.0,0.0,0.0,0.0,0.0,0.0,0.0,0.0,0.0,0.0,0.0,0.0,0.0,0.0,0.0,0.0,0.0,0.0,0.0,0.0,0.0,0.0,0.0,0.0,0.0,0.0,0.0,0.0,0.0,0.0,0.0,0.0,0.0,0.0,0.0,0.0,0.0,0.0,0.0,0.0,0.0,0.0,0.0,0.0,0.0,0.0,0.0,0.0,0.0,0.0,0.0,0.0,0.0,0.0,0.0,0.0,0.0,0.0,0.0,0.0,0.0,0.0,0.0,0.0,0.0,0.0,0.0,0.0,0.0,0.0,0.0,0.0,0.0,-1.8278,-1.8037,-1.7445,0.0,0.0,0.0,0.0,0.0,0.0,0.0,0.0,0.0,0.0,0.0,0.0,0.0,0.0,0.0,0.0,0.0,0.0,0.0,0.0,0.0,0.0,0.0,0.0,0.0,0.0,0.0,0.0,0.0,0.0,0.0,0.0,0.0,0.0,0.0,0.0,0.0,0.0,0.0,0.0,0.0,0.0,0.0,0.0,0.0,0.0,0.0,0.0,0.0,0.0,0.0,0.0,0.0,0.0,0.0,0.0,0.0,0.0,0.0,0.0,0.0,0.0,0.0,0.0,0.0,0.0,0.0,0.0,0.0,0.0,0.0,0.0,0.0,0.0,0.0,0.0,0.0,0.0,0.0,0.0,0.0,0.0,0.0,0.0,0.0,0.0,0.0,0.0,0.0,0.0,0.0,0.0,0.0,0.0,0.0,0.0,0.0,0.0,0.0,0.0,0.0,0.0,0.0,0.0,0.0,0.0,0.0,0.0,0.0,0.0,-1.8024,-1.8428,-1.7963,0.0,-1.7322,0.0,0.0,0.0,0.0,0.0,0.0,0.0,0.0,0.0,0.0,0.0,0.0,0.0,0.0,0.0,0.0,0.0,0.0,0.0,0.0,0.0,0.0,0.0,0.0,0.0,0.0,0.0,0.0,0.0,0.0,0.0,0.0,0.0,0.0,0.0,0.0,0.0,0.0,0.0,0.0,0.0,0.0,0.0,0.0,0.0,0.0,0.0,0.0,0.0,0.0,0.0,0.0,0.0,0.0,0.0,0.0,0.0,0.0,0.0,0.0,0.0,0.0,0.0,0.0,0.0,0.0,0.0,0.0,0.0,0.0,0.0,0.0,0.0,0.0,0.0,0.0,0.0,0.0,0.0,0.0,0.0,0.0,0.0,0.0,0.0,0.0,0.0,0.0,0.0,0.0,0.0,0.0,0.0,0.0,0.0,0.0,0.0,0.0,0.0,0.0,0.0,0.0,0.0,0.0,0.0,0.0,0.0,0.0,0.0,0.0,-1.7873,-1.7337,-1.707,-1.6842,0.0,0.0,0.0,0.0,0.0,0.0,0.0,0.0,0.0,0.0,0.0,0.0,0.0,0.0,0.0,0.0,0.0,0.0,0.0,0.0,0.0,0.0,0.0,0.0,0.0,0.0,0.0,0.0,0.0,0.0,0.0,0.0,0.0,0.0,0.0,0.0,0.0,0.0,0.0,0.0,0.0,0.0,0.0,0.0,0.0,0.0,0.0,0.0,0.0,0.0,0.0,0.0,0.0,0.0,0.0,0.0,0.0,0.0,0.0,0.0,0.0,0.0,0.0,0.0,0.0,0.0,0.0,0.0,0.0,0.0,0.0,0.0,0.0,0.0,0.0,0.0,0.0,0.0,0.0,0.0,0.0,0.0,0.0,0.0,0.0,0.0,0.0,0.0,0.0,0.0,0.0,0.0,0.0,0.0,0.0,0.0,0.0,0.0,0.0,0.0,0.0,0.0,0.0,0.0,0.0,0.0,0.0,0.0,0.0,0.0,-1.7518,0.0,-1.6221,-1.6052,-1.5825,-1.5431,0.0,0.0,0.0,0.0,0.0,0.0,0.0,0.0,0.0,0.0,0.0,0.0,0.0,0.0,0.0,0.0,0.0,0.0,0.0,0.0,0.0,0.0,0.0,0.0,0.0,0.0,0.0,0.0,0.0,0.0,0.0,0.0,0.0,0.0,0.0,0.0,0.0,0.0,0.0,0.0,0.0,0.0,0.0,0.0,0.0,0.0,0.0,0.0,0.0,0.0,0.0,0.0,0.0,0.0,0.0,0.0,0.0,0.0,0.0,0.0,0.0,0.0,0.0,0.0,0.0,0.0,0.0,0.0,0.0,0.0,0.0,0.0,0.0,0.0,0.0,0.0,0.0,0.0,0.0,0.0,0.0,0.0,0.0,0.0,0.0,0.0,0.0,0.0,0.0,0.0,0.0,0.0,0.0,0.0,0.0,0.0,0.0,0.0,0.0,0.0,0.0,0.0,0.0,0.0,0.0,0.0,0.0,0.0,0.0,-1.6552,-1.5562,-1.544,-1.4865,-1.4435,0.0,0.0,0.0,0.0,0.0,0.0,0.0,0.0,0.0,0.0,0.0,0.0,0.0,0.0,0.0,0.0,0.0,0.0,0.0,0.0,0.0,0.0,0.0,0.0,0.0,0.0,0.0,0.0,0.0,0.0,0.0,0.0,0.0,0.0,0.0,0.0,0.0,0.0,0.0,0.0,0.0,0.0,0.0,0.0,0.0,0.0,0.0,0.0,0.0,0.0,0.0,0.0,0.0,0.0,0.0,0.0,0.0,0.0,0.0,0.0,0.0,0.0,0.0,0.0,0.0,0.0,0.0,0.0,0.0,0.0,0.0,0.0,0.0,0.0,0.0,0.0,0.0,0.0,0.0,0.0,0.0,0.0,0.0,0.0,0.0,0.0,0.0,0.0,0.0,0.0,0.0,0.0,0.0,0.0,0.0,0.0,0.0,0.0,0.0,0.0,0.0,0.0,0.0,0.0,0.0,0.0,0.0,0.0,0.0,-1.5701,-1.4943,-1.5116,-1.6112,-1.4576,-1.3818,0.0,0.0,0.0,0.0,0.0,0.0,0.0,0.0,0.0,0.0,0.0,0.0,0.0,0.0,0.0,0.0,0.0,0.0,0.0,0.0,0.0,0.0,0.0,0.0,0.0,0.0,0.0,0.0,0.0,0.0,0.0,0.0,0.0,0.0,0.0,0.0,0.0,0.0,0.0,0.0,0.0,0.0,0.0,0.0,0.0,0.0,0.0,0.0,0.0,0.0,0.0,0.0,0.0,0.0,0.0,0.0,0.0,0.0,0.0,0.0,0.0,0.0,0.0,0.0,0.0,0.0,0.0,0.0,0.0,0.0,0.0,0.0,0.0,0.0,0.0,0.0,0.0,0.0,0.0,0.0,0.0,0.0,0.0,0.0,0.0,0.0,0.0,0.0,0.0,0.0,0.0,0.0,0.0,0.0,0.0,0.0,0.0,0.0,0.0,0.0,0.0,0.0,0.0,0.0,0.0,0.0,0.0,0.0,0.0,-1.4482,0.0,-1.5231,0.0,-1.4616,-1.3614,0.0,0.0,0.0,0.0,0.0,0.0,0.0,0.0,0.0,0.0,0.0,0.0,0.0,0.0,0.0,0.0,0.0,0.0,0.0,0.0,0.0,0.0,0.0,0.0,0.0,0.0,0.0,0.0,0.0,0.0,0.0,0.0,0.0,0.0,0.0,0.0,0.0,0.0,0.0,0.0,0.0,0.0,0.0,0.0,0.0,0.0,0.0,0.0,0.0,0.0,0.0,0.0,0.0,0.0,0.0,0.0,0.0,0.0,0.0,0.0,0.0,0.0,0.0,0.0,0.0,0.0,0.0,0.0,0.0,0.0,0.0,0.0,0.0,0.0,0.0,0.0,0.0,0.0,0.0,0.0,0.0,0.0,0.0,0.0,0.0,0.0,0.0,0.0,0.0,0.0,0.0,0.0,0.0,0.0,0.0,0.0,0.0,0.0,0.0,0.0,0.0,0.0,0.0,0.0,0.0,0.0,0.0,0.0,-1.5127,-1.5048,-1.5765,-1.5845,-1.5057,-1.495,-1.3841,0.0,0.0,0.0,0.0,0.0,0.0,0.0,0.0,0.0,0.0,0.0,0.0,0.0,0.0,0.0,0.0,0.0,0.0,0.0,0.0,0.0,0.0,0.0,0.0,0.0,0.0,0.0,0.0,0.0,0.0,0.0,0.0,0.0,0.0,0.0,0.0,0.0,0.0,0.0,0.0,0.0,0.0,0.0,0.0,0.0,0.0,0.0,0.0,0.0,0.0,0.0,0.0,0.0,0.0,0.0,0.0,0.0,0.0,0.0,0.0,0.0,0.0,0.0,0.0,0.0,0.0,0.0,0.0,0.0,0.0,0.0,0.0,0.0,0.0,0.0,0.0,0.0,0.0,0.0,0.0,0.0,0.0,0.0,0.0,0.0,0.0,0.0,0.0,0.0,0.0,0.0,0.0,0.0,0.0,0.0,0.0,0.0,0.0,0.0,0.0,0.0,0.0,0.0,0.0,0.0,0.0,0.0,0.0,0.0,-1.5053,-1.5618,-1.6326,-1.6967,-1.5097,-1.4095,0.0,0.0,0.0,0.0,0.0,0.0,0.0,0.0,0.0,0.0,0.0,0.0,0.0,0.0,0.0,0.0,0.0,0.0,0.0,0.0,0.0,0.0,0.0,0.0,0.0,0.0,0.0,0.0,0.0,0.0,0.0,0.0,0.0,0.0,0.0,0.0,0.0,0.0,0.0,0.0,0.0,0.0,0.0,0.0,0.0,0.0,0.0,0.0,0.0,0.0,0.0,0.0,0.0,0.0,0.0,0.0,0.0,0.0,0.0,0.0,0.0,0.0,0.0,0.0,0.0,0.0,0.0,0.0,0.0,0.0,0.0,0.0,0.0,0.0,0.0,0.0,0.0,0.0,0.0,0.0,0.0,0.0,0.0,0.0,0.0,0.0,0.0,0.0,0.0,0.0,0.0,0.0,0.0,0.0,0.0,0.0,0.0,0.0,0.0,0.0,0.0,0.0,0.0,0.0,0.0,0.0,0.0,0.0,0.0,-1.678,-1.7128,-1.7528,-1.8009,-1.6126,-1.499,-1.4723,0.0,0.0,0.0,0.0,0.0,0.0,0.0,0.0,0.0,0.0,0.0,0.0,0.0,0.0,0.0,0.0,0.0,0.0,0.0,0.0,0.0,0.0,0.0,0.0,0.0,0.0,0.0,0.0,0.0,0.0,0.0,0.0,0.0,0.0,0.0,0.0,0.0,0.0,0.0,0.0,0.0,0.0,0.0,0.0,0.0,0.0,0.0,0.0,0.0,0.0,0.0,0.0,0.0,0.0,0.0,0.0,0.0,0.0,0.0,0.0,0.0,0.0,0.0,0.0,0.0,0.0,0.0,0.0,0.0,0.0,0.0,0.0,0.0,0.0,0.0,0.0,0.0,0.0,0.0,0.0,0.0,0.0,0.0,0.0,0.0,0.0,0.0,0.0,0.0,0.0,0.0,0.0,0.0,0.0,0.0,0.0,0.0,0.0,0.0,0.0,0.0,0.0,0.0,0.0,0.0,0.0,0.0,0.0,-1.9893,-2.0054,-1.9573,-1.8397,-1.7889,-1.6473,0.0,0.0,0.0,0.0,0.0,0.0,0.0,0.0,0.0,0.0,0.0,0.0,0.0,0.0,0.0,0.0,0.0,0.0,0.0,0.0,0.0,0.0,0.0,0.0,0.0,0.0,0.0,0.0,0.0,0.0,0.0,0.0,0.0,0.0,0.0,0.0,0.0,0.0,0.0,0.0,0.0,0.0,0.0,0.0,0.0,0.0,0.0,0.0,0.0,0.0,0.0,0.0,0.0,0.0,0.0,0.0,0.0,0.0,0.0,0.0,0.0,0.0,0.0,0.0,0.0,0.0,0.0,0.0,0.0,0.0,0.0,0.0,0.0,0.0,0.0,0.0,0.0,0.0,0.0,0.0,0.0,0.0,0.0,0.0,0.0,0.0,0.0,0.0,0.0,0.0,0.0,0.0,0.0,0.0,0.0,0.0,0.0,0.0,0.0,0.0,0.0,0.0,0.0,0.0,0.0,0.0,0.0,0.0,0.0,-2.1376,-2.3113,-2.3354,-2.1951,-1.976,-1.8036,0.0,0.0,0.0,0.0,0.0,0.0,0.0,0.0,0.0,0.0,0.0,0.0,0.0,0.0,0.0,0.0,0.0,0.0,0.0,0.0,0.0,0.0,0.0,0.0,0.0,0.0,0.0,0.0,0.0,0.0,0.0,0.0,0.0,0.0,0.0,0.0,0.0,0.0,0.0,0.0,0.0,0.0,0.0,0.0,0.0,0.0,0.0,0.0,0.0,0.0,0.0,0.0,0.0,0.0,0.0,0.0,0.0,0.0,0.0,0.0,0.0,0.0,0.0,0.0,0.0,0.0,0.0,0.0,0.0,0.0,0.0,0.0,0.0,0.0,0.0,0.0,0.0,0.0,0.0,0.0,0.0,0.0,0.0,0.0,0.0,0.0,0.0,0.0,0.0,0.0,0.0,0.0,0.0,0.0,0.0,0.0,0.0,0.0,0.0,0.0,0.0,0.0,0.0,0.0,0.0,0.0,0.0,0.0,-2.1029,-2.3073,-2.5531,-2.6413,-2.5571,-2.2579,-2.008,0.0,0.0,0.0,0.0,0.0,0.0,0.0,0.0,0.0,0.0,0.0,0.0,0.0,0.0,0.0,0.0,0.0,0.0,0.0,0.0,0.0,0.0,0.0,0.0,0.0,0.0,0.0,0.0,0.0,0.0,0.0,0.0,0.0,0.0,0.0,0.0,0.0,0.0,0.0,0.0,0.0,0.0,0.0,0.0,0.0,0.0,0.0,0.0,0.0,0.0,0.0,0.0,0.0,0.0,0.0,0.0,0.0,0.0,0.0,0.0,0.0,0.0,0.0,0.0,0.0,0.0,0.0,0.0,0.0,0.0,0.0,0.0,0.0,0.0,0.0,0.0,0.0,0.0,0.0,0.0,0.0,0.0,0.0,0.0,0.0,0.0,0.0,0.0,0.0,0.0,0.0,0.0,0.0,0.0,0.0,0.0,0.0,0.0,0.0,0.0,0.0,0.0,0.0,0.0,0.0,0.0,0.0,0.0,-2.2699,-2.4796,-2.7388,-2.8724,-2.8604,-2.5504,-2.2205,0.0,0.0,0.0,0.0,0.0,0.0,0.0,0.0,0.0,0.0,0.0,0.0,0.0,0.0,0.0,0.0,0.0,0.0,0.0,0.0,0.0,0.0,0.0,0.0,0.0,0.0,0.0,0.0,0.0,0.0,0.0,0.0,0.0,0.0,0.0,0.0,0.0,0.0,0.0,0.0,0.0,0.0,0.0,0.0,0.0,0.0,0.0,0.0,0.0,0.0,0.0,0.0,0.0,0.0,0.0,0.0,0.0,0.0,0.0,0.0,0.0,0.0,0.0,0.0,0.0,0.0,0.0,0.0,0.0,0.0,0.0,0.0,0.0,0.0,0.0,0.0,0.0,0.0,0.0,0.0,0.0,0.0,0.0,0.0,0.0,0.0,0.0,0.0,0.0,0.0,0.0,0.0,0.0,0.0,0.0,0.0,0.0,0.0,0.0,0.0,0.0,0.0,0.0,0.0,0.0,0.0,0.0,0.0,-2.3701,-2.5985,-2.839,-2.9526,-2.9285,-2.5705,-2.2766,0.0,0.0,0.0,0.0,0.0,0.0,0.0,0.0,0.0,0.0,0.0,0.0,0.0,0.0,0.0,0.0,0.0,0.0,0.0,0.0,0.0,0.0,0.0,0.0,0.0,0.0,0.0,0.0,0.0,0.0,0.0,0.0,0.0,0.0,0.0,0.0,0.0,0.0,0.0,0.0,0.0,0.0,0.0,0.0,0.0,0.0,0.0,0.0,-1.3895,0.0,0.0,0.0,0.0,0.0,0.0,0.0,0.0,0.0,0.0,0.0,0.0,0.0,0.0,0.0,0.0,0.0,0.0,0.0,0.0,0.0,0.0,0.0,0.0,0.0,0.0,0.0,0.0,0.0,0.0,0.0,0.0,0.0,0.0,0.0,0.0,0.0,0.0,0.0,0.0,0.0,0.0,0.0,0.0,0.0,0.0,0.0,0.0,0.0,0.0,0.0,0.0,0.0,0.0,0.0,0.0,0.0,0.0,0.0,-2.4636,-2.6961,-2.9045,-3.0047,-2.9793,-2.6974,-2.4195,0.0,0.0,0.0,0.0,0.0,0.0,0.0,0.0,0.0,0.0,0.0,0.0,0.0,0.0,0.0,0.0,0.0,0.0,0.0,0.0,0.0,0.0,0.0,0.0,0.0,0.0,0.0,0.0,0.0,0.0,0.0,0.0,0.0,0.0,0.0,0.0,0.0,0.0,0.0,0.0,0.0,0.0,0.0,0.0,0.0,0.0,0.0,0.0,0.0,0.0,0.0,0.0,0.0,0.0,0.0,0.0,0.0,0.0,0.0,0.0,0.0,0.0,0.0,0.0,0.0,0.0,0.0,0.0,0.0,0.0,0.0,0.0,0.0,0.0,0.0,0.0,0.0,0.0,0.0,0.0,0.0,0.0,0.0,0.0,0.0,0.0,0.0,0.0,0.0,0.0,0.0,0.0,0.0,0.0,0.0,0.0,0.0,0.0,0.0,0.0,0.0,0.0,0.0,0.0,0.0,0.0,0.0,-2.2565,-2.5384,-2.7896,-2.9579,-3.0408,-3.0327,-2.8484,-2.5785,-2.2258,0.0,0.0,0.0,0.0,0.0,0.0,0.0,0.0,0.0,0.0,0.0,0.0,0.0,0.0,0.0,0.0,0.0,0.0,0.0,0.0,0.0,0.0,0.0,0.0,0.0,0.0,0.0,0.0,0.0,0.0,0.0,0.0,0.0,0.0,0.0,0.0,0.0,0.0,-1.6853,-1.8142,0.0,0.0,0.0,0.0,0.0,0.0,0.0,0.0,-1.479,0.0,0.0,0.0,0.0,0.0,0.0,0.0,0.0,0.0,0.0,0.0,0.0,0.0,0.0,0.0,0.0,0.0,0.0,0.0,0.0,0.0,0.0,0.0,0.0,0.0,0.0,0.0,0.0,0.0,0.0,0.0,0.0,0.0,0.0,0.0,0.0,0.0,0.0,0.0,0.0,0.0,0.0,0.0,0.0,0.0,0.0,0.0,0.0,0.0,0.0,0.0,0.0,0.0,0.0,0.0,0.0,-2.2138,-2.3287,-2.5571,-2.9098,-3.0194,-3.0608,-3.0341,-2.9085,-2.66,-2.2886,0.0,0.0,0.0,0.0,0.0,0.0,0.0,0.0,0.0,0.0,0.0,0.0,0.0,0.0,0.0,0.0,0.0,0.0,0.0,0.0,0.0,0.0,0.0,0.0,0.0,0.0,0.0,0.0,0.0,0.0,0.0,0.0,0.0,0.0,0.0,0.0,0.0,0.0,0.0,-1.8288,-1.835,0.0,0.0,0.0,0.0,0.0,0.0,0.0,0.0,-1.5498,0.0,0.0,0.0,0.0,0.0,0.0,0.0,0.0,0.0,0.0,0.0,0.0,0.0,0.0,0.0,0.0,0.0,0.0,0.0,0.0,0.0,0.0,0.0,0.0,0.0,0.0,0.0,0.0,0.0,0.0,0.0,0.0,0.0,0.0,0.0,0.0,0.0,0.0,0.0,0.0,0.0,0.0,0.0,0.0,0.0,0.0,0.0,0.0,0.0,0.0,0.0,0.0,0.0,0.0,0.0,-2.2071,-2.4262,-2.6694,-2.9392,-3.0194,-3.0421,-3.01,-2.8257,-2.5852,0.0,0.0,0.0,0.0,0.0,0.0,0.0,0.0,0.0,0.0,0.0,0.0,0.0,0.0,0.0,0.0,0.0,0.0,0.0,0.0,0.0,0.0,0.0,0.0,0.0,0.0,0.0,0.0,0.0,0.0,0.0,0.0,0.0,0.0,0.0,0.0,0.0,0.0,0.0,0.0,-1.9194,-1.922,-1.8776,0.0,0.0,0.0,0.0,0.0,0.0,-1.662,-1.6206,0.0,0.0,0.0,0.0,0.0,0.0,0.0,0.0,0.0,0.0,0.0,0.0,0.0,0.0,0.0,0.0,0.0,0.0,0.0,0.0,0.0,0.0,0.0,0.0,0.0,0.0,0.0,0.0,0.0,0.0,0.0,0.0,0.0,0.0,0.0,0.0,0.0,0.0,0.0,0.0,0.0,0.0,0.0,0.0,0.0,0.0,0.0,0.0,0.0,0.0,0.0,0.0,0.0,0.0,0.0,-2.1643,-2.4877,-2.7509,-2.9392,-3.006,-3.0221,-2.9887,-2.7575,-2.5224,0.0,0.0,0.0,0.0,0.0,0.0,0.0,0.0,0.0,0.0,0.0,0.0,0.0,0.0,0.0,0.0,0.0,0.0,0.0,0.0,0.0,0.0,0.0,0.0,0.0,0.0,0.0,0.0,0.0,0.0,0.0,0.0,0.0,0.0,0.0,0.0,0.0,0.0,0.0,0.0,0.0,-2.0343,-2.0066,-1.9105,0.0,0.0,0.0,0.0,-1.7876,-1.7996,0.0,0.0,0.0,0.0,0.0,0.0,0.0,0.0,0.0,0.0,0.0,0.0,0.0,0.0,0.0,0.0,0.0,0.0,0.0,0.0,0.0,0.0,0.0,0.0,0.0,0.0,0.0,0.0,0.0,0.0,0.0,0.0,0.0,0.0,0.0,0.0,0.0,0.0,0.0,0.0,0.0,0.0,0.0,0.0,0.0,0.0,0.0,0.0,0.0,0.0,0.0,0.0,0.0,0.0,0.0,0.0,-2.1884,-2.4396,-2.6907,-2.9352,-3.006,-3.0221,-2.9913,-2.835,-2.6039,0.0,0.0,0.0,0.0,0.0,0.0,0.0,0.0,0.0,0.0,0.0,0.0,0.0,0.0,0.0,0.0,0.0,0.0,0.0,0.0,0.0,0.0,0.0,0.0,0.0,0.0,0.0,0.0,0.0,0.0,0.0,0.0,0.0,0.0,0.0,0.0,0.0,0.0,0.0,0.0,0.0,-2.101,-1.9626,-1.9546,-1.9359,0.0,0.0,-1.972,-2.0521,-2.1724,0.0,0.0,0.0,0.0,0.0,0.0,0.0,0.0,0.0,0.0,0.0,0.0,0.0,0.0,0.0,0.0,0.0,0.0,0.0,0.0,0.0,0.0,0.0,0.0,0.0,0.0,0.0,0.0,0.0,0.0,0.0,0.0,0.0,0.0,0.0,0.0,0.0,0.0,0.0,0.0,0.0,0.0,0.0,0.0,0.0,0.0,0.0,0.0,0.0,0.0,0.0,0.0,0.0,0.0,0.0,-1.9706,-2.2245,-2.5718,-2.8323,-2.9913,-3.0234,-3.0301,-3.0167,-2.7442,-2.4997,0.0,0.0,0.0,0.0,0.0,0.0,0.0,0.0,0.0,0.0,0.0,0.0,0.0,0.0,0.0,0.0,0.0,0.0,0.0,0.0,0.0,0.0,0.0,0.0,0.0,0.0,0.0,0.0,0.0,0.0,0.0,0.0,0.0,0.0,0.0,0.0,0.0,0.0,0.0,0.0,0.0,0.0,-2.1336,-2.1456,0.0,0.0,0.0,-2.1416,-2.1804,0.0,0.0,0.0,0.0,0.0,0.0,0.0,0.0,0.0,0.0,0.0,0.0,0.0,0.0,0.0,0.0,0.0,0.0,0.0,0.0,0.0,0.0,0.0,0.0,0.0,0.0,0.0,0.0,0.0,0.0,0.0,0.0,0.0,0.0,0.0,0.0,0.0,0.0,0.0,0.0,0.0,0.0,0.0,0.0,0.0,0.0,0.0,0.0,0.0,0.0,0.0,0.0,0.0,0.0,0.0,0.0,0.0,-2.2458,-2.6787,-2.9432,-3.0221,-3.0394,-3.0434,-3.0301,-2.7201,0.0,0.0,0.0,0.0,0.0,0.0,0.0,0.0,0.0,0.0,0.0,0.0,0.0,0.0,0.0,0.0,0.0,0.0,0.0,0.0,0.0,0.0,0.0,0.0,0.0,0.0,0.0,-1.081,0.0,0.0,0.0,0.0,0.0,0.0,0.0,0.0,0.0,0.0,0.0,0.0,0.0,0.0,-2.1844,-2.2645,-2.3126,-2.3407,0.0,0.0,-2.3166,-2.338,-2.4235,-2.3808,0.0,0.0,0.0,0.0,0.0,0.0,0.0,0.0,0.0,0.0,0.0,0.0,0.0,0.0,0.0,0.0,0.0,0.0,0.0,0.0,0.0,0.0,0.0,0.0,0.0,0.0,0.0,0.0,0.0,0.0,0.0,0.0,0.0,0.0,0.0,0.0,0.0,0.0,0.0,0.0,0.0,0.0,0.0,0.0,0.0,0.0,0.0,0.0,0.0,0.0,0.0,0.0,0.0,0.0,0.0,-2.2498,-2.6787,-2.9352,-2.994,-3.0488,-3.0635,-3.0354,-2.8764,-2.5819,0.0,0.0,0.0,0.0,0.0,0.0,0.0,0.0,0.0,0.0,0.0,0.0,0.0,0.0,0.0,0.0,0.0,0.0,0.0,0.0,0.0,0.0,0.0,0.0,0.0,0.0,0.0,0.0,0.0,0.0,0.0,0.0,0.0,0.0,0.0,0.0,0.0,0.0,0.0,0.0,0.0,-2.2672,-2.2472,-2.3875,-2.5211,0.0,0.0,-2.5184,-2.5985,-2.7749,-2.7335,-2.2258,0.0,0.0,0.0,0.0,0.0,0.0,0.0,0.0,0.0,0.0,0.0,0.0,0.0,0.0,0.0,0.0,0.0,0.0,0.0,0.0,0.0,0.0,0.0,0.0,0.0,0.0,0.0,0.0,0.0,0.0,0.0,0.0,0.0,0.0,0.0,0.0,0.0,0.0,0.0,0.0,0.0,0.0,0.0,0.0,0.0,0.0,0.0,0.0,0.0,0.0,0.0,0.0,0.0,-2.0935,-2.2712,-2.7241,-2.986,-3.0434,-3.0849,-3.1009,-3.0889,-2.7673,-2.4603,0.0,0.0,0.0,0.0,0.0,0.0,0.0,0.0,0.0,0.0,0.0,0.0,0.0,0.0,0.0,0.0,0.0,0.0,0.0,0.0,0.0,0.0,0.0,0.0,0.0,0.0,0.0,0.0,-1.2879,-1.32,-1.2585,0.0,0.0,0.0,0.0,0.0,0.0,0.0,0.0,0.0,0.0,-2.3567,-2.4703,-2.5919,0.0,0.0,-2.6907,-2.68,-2.7148,-2.7402,-2.6386,-2.2913,-2.1483,0.0,0.0,0.0,0.0,0.0,0.0,0.0,0.0,0.0,0.0,0.0,0.0,0.0,0.0,0.0,0.0,0.0,0.0,0.0,0.0,0.0,0.0,0.0,0.0,0.0,0.0,0.0,0.0,0.0,0.0,0.0,0.0,0.0,0.0,0.0,0.0,0.0,0.0,0.0,0.0,0.0,0.0,0.0,0.0,0.0,0.0,0.0,0.0,0.0,0.0,0.0,0.0,-2.1149,-2.2993,-2.7562,-3.0247,-3.0915,-3.1209,-3.1316,-3.1183,-2.7201,-2.4056,0.0,0.0,0.0,0.0,0.0,0.0,0.0,0.0,0.0,0.0,0.0,0.0,0.0,0.0,0.0,0.0,0.0,0.0,0.0,0.0,0.0,0.0,0.0,0.0,0.0,0.0,0.0,0.0,-1.4162,-1.4242,-1.3066,0.0,0.0,0.0,0.0,0.0,0.0,0.0,0.0,0.0,0.0,-2.4596,-2.6279,-2.7201,-2.7722,-2.7816,-2.7535,-2.7375,-2.7549,-2.7121,-2.5959,-2.3527,0.0,0.0,0.0,0.0,0.0,0.0,0.0,0.0,0.0,0.0,0.0,0.0,0.0,0.0,0.0,0.0,0.0,0.0,0.0,0.0,0.0,0.0,0.0,0.0,0.0,0.0,0.0,0.0,0.0,0.0,-0.903,0.0,0.0,0.0,0.0,0.0,0.0,0.0,0.0,0.0,0.0,0.0,0.0,0.0,0.0,0.0,0.0,0.0,0.0,0.0,0.0,0.0,0.0,-2.1256,-2.334,-2.7682,-3.0341,-3.1183,-3.1503,-3.1517,-3.1223,-2.7915,-2.4395,-2.0823,0.0,0.0,0.0,0.0,0.0,0.0,0.0,0.0,0.0,0.0,0.0,0.0,0.0,0.0,0.0,0.0,0.0,0.0,0.0,0.0,0.0,0.0,0.0,0.0,0.0,0.0,-1.3641,-1.3921,-1.3667,0.0,0.0,0.0,0.0,0.0,0.0,0.0,0.0,0.0,0.0,-2.3434,-2.5785,-2.6694,-2.7335,-2.7843,-2.811,-2.7201,-2.6653,-2.7228,-2.7482,-2.6774,0.0,0.0,0.0,0.0,0.0,0.0,0.0,0.0,0.0,0.0,0.0,0.0,0.0,0.0,0.0,0.0,0.0,0.0,0.0,0.0,0.0,0.0,0.0,0.0,0.0,0.0,0.0,-1.0251,-1.0635,0.0,0.0,0.0,0.0,0.0,0.0,0.0,0.0,0.0,0.0,0.0,-1.3683,-1.4289,0.0,0.0,0.0,0.0,0.0,0.0,0.0,0.0,0.0,0.0,0.0,0.0,-2.1643,-2.3968,-2.7869,-3.0341,-3.1196,-3.1517,-3.1623,-3.1517,-2.6689,-2.1309,-1.5408,0.0,0.0,0.0,0.0,0.0,0.0,0.0,0.0,0.0,0.0,0.0,0.0,0.0,0.0,0.0,0.0,0.0,0.0,0.0,0.0,0.0,0.0,0.0,0.0,0.0,-1.4282,0.0,0.0,0.0,0.0,0.0,0.0,0.0,0.0,0.0,0.0,0.0,-1.976,-2.2392,-2.4342,-2.5972,-2.7228,-2.8083,-2.8698,0.0,0.0,0.0,0.0,0.0,0.0,0.0,0.0,0.0,0.0,0.0,0.0,0.0,0.0,-1.8218,-1.5024,-1.4023,-1.3799,-1.4087,0.0,0.0,0.0,0.0,0.0,0.0,0.0,0.0,0.0,0.0,0.0,0.0,0.0,0.0,-1.0351,0.0,-1.0931,0.0,0.0,0.0,0.0,0.0,0.0,0.0,0.0,-1.4444,-1.4629,-1.4007,-1.4566,-1.4483,0.0,-1.3325,-1.2854,0.0,0.0,0.0,0.0,0.0,0.0,0.0,0.0,-2.2044,-2.4543,-2.807,-3.0394,-3.133,-3.0786,-3.0306,-3.028,-2.4855,-1.8956,-1.304,-1.1775,-1.0683,0.0,0.0,0.0,0.0,0.0,0.0,0.0,0.0,0.0,0.0,0.0,0.0,0.0,0.0,0.0,0.0,0.0,0.0,0.0,0.0,0.0,0.0,0.0,-1.5351,0.0,0.0,0.0,0.0,0.0,0.0,0.0,0.0,0.0,-1.7916,-1.9666,-2.183,-2.4342,-2.5598,-2.6653,-2.7709,0.0,0.0,0.0,0.0,0.0,0.0,0.0,-2.4964,-2.4339,-2.1209,-1.9284,-2.1022,-2.0867,-1.9674,-1.7362,0.0,0.0,-1.5394,-1.4484,-1.4244,-1.4769,-1.6092,-1.7336,-1.7803,-1.9537,-2.0507,0.0,0.0,0.0,0.0,0.0,0.0,0.0,0.0,-1.031,-1.0188,0.0,-0.9245,0.0,0.0,0.0,0.0,0.0,-1.1802,0.0,0.0,-1.2993,-1.2979,-1.2589,-1.2732,-1.2718,-1.2569,-1.2535,-1.2657,-1.2925,-1.3614,0.0,0.0,0.0,0.0,0.0,0.0,-2.2485,-2.5157,-2.831,-3.0501,-3.161,-2.9326,-2.7972,-2.7541,-2.2092,-1.7475,-1.4057,-1.3003,-1.1993,-1.0819,-0.9652,0.0,0.0,0.0,0.0,0.0,0.0,0.0,0.0,0.0,0.0,0.0,0.0,0.0,0.0,0.0,0.0,0.0,0.0,0.0,0.0,-1.6046,0.0,0.0,0.0,0.0,0.0,0.0,0.0,0.0,0.0,0.0,-1.9733,-2.2031,-2.4449,-2.6132,0.0,0.0,0.0,0.0,-2.8096,-2.7856,-2.7562,-2.7321,-2.7054,-2.5453,-2.4117,-2.3434,0.0,0.0,-1.6238,-1.6771,-1.6877,-1.5506,-1.4936,-1.5381,-1.8192,-1.7501,-1.6821,-1.7334,-1.7,-1.6908,-1.7264,-1.8231,-1.8668,-1.1784,0.0,0.0,0.0,0.0,-1.133,-1.1518,-1.2264,-1.2101,-1.1796,-1.1409,-1.1441,0.0,0.0,0.0,0.0,0.0,0.0,-1.3284,-1.4097,-1.453,-1.4375,-1.3933,-1.4095,-1.4082,-1.3926,-1.3614,-1.3377,-1.3354,-1.4107,-1.4276,-1.3631,0.0,0.0,0.0,0.0,-2.3995,-2.6613,-2.9018,-3.0702,-3.165,-3.089,-2.8654,-2.4992,-2.1197,-1.7821,-1.4496,-1.3817,-1.3003,-1.2026,-1.1056,0.0,0.0,0.0,0.0,0.0,0.0,0.0,0.0,0.0,0.0,0.0,0.0,0.0,0.0,0.0,0.0,0.0,0.0,0.0,-1.5752,-1.658,-1.6794,0.0,0.0,0.0,0.0,0.0,0.0,0.0,0.0,0.0,-2.3674,-2.4289,-2.5117,0.0,0.0,-2.7094,-2.7188,-2.8096,-2.8898,-2.9232,-2.9566,0.0,0.0,-2.6992,-2.5749,-2.7877,-2.6375,-2.2854,-1.7011,-1.7748,-1.8598,-1.6394,-1.5799,-1.5883,-1.6619,-1.5935,-1.5347,-1.5655,-1.6893,-1.7983,-1.84,-1.999,-2.0971,-1.4112,-1.1924,-1.1749,-1.2409,-1.3304,-1.2713,-1.2874,-1.3607,-1.3431,-1.32,-1.2929,-1.2731,-1.2052,-1.1002,-1.0754,0.0,0.0,0.0,-1.3573,-1.4408,-1.4885,-1.4909,-1.4672,-1.4787,-1.4787,-1.4679,-1.4353,-1.4075,-1.3838,-1.4266,-1.4324,-1.4248,0.0,0.0,-1.7661,-2.0921,-2.3808,-2.6211,-2.7978,-2.9831,-3.165,-3.0687,-2.7698,-2.251,-2.0472,-1.8017,-1.5204,-1.4543,-1.3899,-1.3064,-1.2176,-1.1138,0.0,0.0,0.0,0.0,0.0,0.0,0.0,0.0,0.0,0.0,0.0,-1.2946,-1.1626,0.0,0.0,0.0,-1.4937,-1.6286,-1.7408,-1.7916,0.0,0.0,0.0,0.0,0.0,0.0,0.0,-2.1069,-2.342,-2.5331,-2.6253,-2.6747,-2.7201,-2.7722,-2.7936,-2.8083,-2.8203,0.0,-2.99,-3.0368,-3.0835,-3.1142,-3.1142,-2.8607,-2.6654,-2.6553,-2.5604,-2.2904,-1.7525,-1.7658,-1.8142,-1.6675,-1.6259,-1.6259,-1.6252,-1.5723,-1.5262,-1.5194,-1.6263,-1.7406,-1.7569,-1.8905,-1.9646,-1.5808,-1.5133,-1.3539,-1.3514,-1.4735,-1.4006,-1.4014,-1.4401,-1.4394,-1.438,-1.434,-1.3541,-1.2953,-1.2569,-1.1911,0.0,-1.2467,-1.2901,-1.3485,-1.417,-1.4455,-1.474,-1.5018,-1.5025,-1.5025,-1.5025,-1.4869,-1.4713,-1.4543,-1.4129,-1.423,-1.4727,-1.7438,-1.7991,-1.6548,-1.9671,-2.2521,-2.4761,-2.5815,-2.7937,-3.0864,-2.8548,-2.4851,-2.0166,-1.9598,-1.8191,-1.5609,-1.5113,-1.4624,-1.3919,-1.3057,-1.2135,-1.1118,0.0,0.0,0.0,0.0,0.0,0.0,0.0,0.0,0.0,0.0,0.0,0.0,0.0,0.0,0.0,-1.7435,0.0,-1.9519,-1.98,0.0,0.0,0.0,-1.9746,-2.0174,-2.167,-2.2899,-2.3527,0.0,0.0,-2.7843,-2.9138,-3.0047,-3.0114,-3.0047,-3.0074,-3.0327,-3.0621,-3.0996,-3.1289,-3.1637,-3.1864,-3.1998,-3.0141,-2.6992,-2.2205,-2.0621,-1.9833,-1.7207,-1.6605,-1.6598,-1.6585,-1.6578,-1.6571,-1.6564,-1.6497,-1.6415,-1.5981,-1.5703,-1.5554,-1.589,-1.6133,-1.6189,-1.613,-1.5844,-1.5466,-1.5286,-1.5271,-1.5142,-1.5113,-1.5309,-1.5194,-1.5079,-1.4943,-1.4502,-1.4194,-1.4209,-1.3631,-1.358,-1.3838,-1.417,-1.4536,-1.4923,-1.5113,-1.5303,-1.5472,-1.5479,-1.5479,-1.5472,-1.5323,-1.5174,-1.5018,-1.4808,-1.4613,-1.4449,-1.6709,-1.7636,-1.7442,-1.9364,-2.2105,-2.5725,-2.4419,-2.4533,-2.5593,-2.3286,-2.1343,-1.997,-1.7749,-1.6173,-1.5411,-1.5011,-1.4658,-1.4353,-1.3722,-1.3044,-1.2325,-1.0643,0.0,0.0,0.0,0.0,0.0,0.0,0.0,0.0,0.0,-1.5712,-1.328,0.0,-1.6179,0.0,-1.8811,-2.0481,-2.1283,-2.1229,0.0,0.0,-2.1777,-2.2017,-2.3634,-2.4396,-2.509,-2.5905,-2.7468,-2.8818,-2.9633,-3.0421,-3.1169,-3.1797,-3.1142,-3.0541,-3.0421,-3.1209,-3.1904,-3.2238,-3.2866,-3.3427,-3.3386,-3.1488,-2.7818,-2.2424,-2.1373,-2.0345,-1.7627,-1.7202,-1.7175,-1.706,-1.7032,-1.6992,-1.689,-1.6781,-1.6673,-1.6551,-1.6381,-1.6266,-1.6307,-1.63,-1.632,-1.653,-1.6402,-1.6313,-1.6337,-1.6307,-1.5839,-1.5859,-1.5927,-1.5845,-1.5723,-1.5554,-1.5113,-1.5111,-1.5005,-1.4716,-1.4645,-1.4801,-1.4964,-1.5167,-1.5384,-1.5472,-1.5594,-1.5737,-1.5737,-1.573,-1.573,-1.5649,-1.5527,-1.5384,-1.5309,-1.5106,-1.4801,-1.6125,-1.6604,-1.6574,-1.8148,-2.0211,-2.2588,-2.3077,-2.3493,-2.385,-2.2507,-2.1022,-1.9799,-1.8088,-1.6423,-1.4828,-1.4577,-1.4278,-1.3926,-1.3539,-1.3024,-1.2352,-1.1077,-1.0019,0.0,0.0,0.0,0.0,0.0,0.0,0.0,0.0,0.0,0.0,0.0,-1.7996,-1.8851,-2.0708,-2.2111,-2.2726,-2.31,-2.3634,-2.4422,-2.4396,-2.489,-2.6293,-2.6827,-2.7375,-2.811,-2.9272,-3.0247,-3.0875,-3.157,-3.2171,-3.2679,-3.2412,-3.2064,-3.1864,-3.2425,-3.3,-3.3307,-3.3868,-3.3897,-3.2786,-3.1303,-2.8291,-2.2938,-2.1644,-2.0594,-1.7843,-1.7419,-1.7392,-1.7317,-1.7297,-1.727,-1.7188,-1.7114,-1.7053,-1.7032,-1.6924,-1.6754,-1.6564,-1.6517,-1.6537,-1.7092,-1.7064,-1.6639,-1.6845,-1.7051,-1.6707,-1.6408,-1.6334,-1.6334,-1.6252,-1.6083,-1.5676,-1.5609,-1.5653,-1.5444,-1.5316,-1.5438,-1.5459,-1.5547,-1.5696,-1.5716,-1.5805,-1.5934,-1.594,-1.5927,-1.5913,-1.5913,-1.5825,-1.5669,-1.5669,-1.5581,-1.5425,-1.5547,-1.5466,-1.5174,-1.6445,-1.7534,-1.8208,-2.1338,-2.2872,-2.2848,-2.281,-2.154,-1.8945,-1.8648,-1.723,-1.4263,-1.4007,-1.3736,-1.3207,-1.3071,-1.2732,-1.2088,-1.1321,-1.0541,0.0,-0.9103,0.0,0.0,0.0,0.0,0.0,0.0,0.0,0.0,-1.9362,-2.0388,-2.147,-2.2846,-2.3834,-2.4235,-2.5224,-2.5985,-2.6333,-2.7068,-2.7776,-2.8364,-2.8925,-2.9486,-3.0074,-3.0849,-3.1463,-3.181,-3.2545,-3.304,-3.3133,-3.3521,-3.3668,-3.3601,-3.3708,-3.3975,-3.4336,-3.4629,-3.3928,-3.136,-3.0294,-2.7876,-2.2823,-2.1111,-2.0237,-1.7919,-1.7487,-1.7473,-1.7453,-1.7446,-1.7439,-1.7426,-1.7405,-1.7405,-1.7385,-1.7277,-1.7087,-1.6775,-1.6639,-1.6632,-1.7304,-1.7036,-1.7249,-1.7256,-1.7249,-1.7222,-1.6931,-1.6483,-1.6483,-1.6402,-1.6045,-1.6049,-1.6069,-1.5925,-1.5608,-1.5567,-1.5601,-1.5716,-1.5852,-1.6001,-1.6123,-1.6259,-1.6388,-1.6395,-1.6334,-1.6225,-1.6225,-1.6083,-1.5811,-1.5811,-1.5676,-1.5418,-1.5438,-1.5364,-1.5187,0.0,0.0,0.0,-1.898,-1.9505,-1.7434,-1.7188,-1.6752,-1.596,-1.5476,0.0,-1.3905,-1.3654,-1.3424,-1.3193,-1.3268,0.0,0.0,0.0,0.0,0.0,0.0,0.0,0.0,0.0,0.0,0.0,-1.6984,-1.8501,-1.7878,-2.095,-2.322,-2.3915,-2.4877,-2.5865,-2.6854,-2.7362,-2.7869,-2.8404,-2.8818,-2.9299,-2.9873,-3.0247,-3.0688,-3.1276,-3.169,-3.2131,-3.2625,-3.3106,-3.344,-3.3641,-3.4015,-3.4202,-3.4135,-3.4162,-3.4336,-3.4629,-3.4897,-3.4017,-3.1201,-2.882,-2.5997,-2.2752,-1.9943,-1.8636,-1.7978,-1.7765,-1.7724,-1.7629,-1.7609,-1.7561,-1.7453,-1.7419,-1.7439,-1.7419,-1.7399,-1.7351,-1.7263,-1.706,-1.6937,-1.7487,0.0,-1.7419,-1.7419,0.0,-1.7419,-1.7249,-1.6958,-1.6883,-1.6734,-1.6517,-1.6368,-1.6259,-1.6385,-1.611,-1.6076,-1.6076,-1.6151,-1.6225,-1.63,-1.6381,-1.6449,-1.6517,-1.6517,-1.6483,-1.6415,-1.6415,-1.6334,-1.6185,-1.611,-1.6001,-1.5859,-1.5778,-1.5703,-1.5628,-1.5628,-1.5554,-1.5411,-1.6965,-1.7172,-1.5954,-1.5893,-1.5642,-1.5194,0.0,0.0,0.0,0.0,0.0,0.0,0.0,0.0,0.0,0.0,0.0,-1.2271,-1.1782,-1.1552,-1.1701,-1.2422,-1.3162,-1.3951,-1.6702,-1.9302,-2.1328,-2.3823,-2.5518,-2.6106,-2.6827,-2.7562,-2.8283,-2.8885,-2.9419,-2.986,-3.0167,-3.0581,-3.1116,-3.1343,-3.161,-3.2024,-3.2358,-3.2666,-3.2933,-3.3387,-3.3627,-3.3681,-3.4042,-3.4269,-3.4148,-3.4229,-3.4429,-3.4723,-3.3703,-3.1935,-2.9123,-2.6313,-2.3502,-2.0686,-1.8957,-1.8081,-1.786,-1.786,-1.784,-1.7772,-1.7758,-1.7724,-1.7663,-1.7643,-1.7636,-1.7629,-1.7582,-1.7568,-1.7602,-1.7405,-1.7216,-1.7697,-1.7806,-1.7555,-1.7758,-1.7982,-1.7514,-1.7487,-1.7453,0.0,0.0,0.0,-1.6673,-1.6592,-1.6564,-1.6537,-1.6517,-1.6517,-1.6517,-1.653,-1.6558,-1.6564,-1.6578,-1.6605,-1.6605,-1.6585,-1.6564,-1.6564,-1.6551,-1.6517,-1.6402,-1.6334,-1.63,-1.6185,-1.6103,-1.6083,-1.6083,-1.5961,-1.573,-1.5696,-1.5798,-1.6035,-1.6117,-1.5839,-1.5194,-1.5106,-1.4577,-1.3566,-1.337,-1.3105,-1.2725,-1.2725,-1.2766,-1.2813,-1.282,-1.2847,-1.2895,-1.2901,-1.301,-1.3254,-1.341,-1.3775,-1.4393,-1.6522,-1.9799,-2.4464,-2.5524,-2.6338,-2.7422,-2.7917,-2.8509,-2.9216,-3.0114,-3.0702,-3.0996,-3.1289,-3.165,-3.2091,-3.2238,-3.2138,-3.1999,-3.2458,-3.2855,-3.2272,-3.3132,-3.3585,-3.3009,-3.3567,-3.4215,-3.4002,-3.4135,-3.4389,-3.4409,-3.3377,-3.0752,-2.7706,-2.5154,-2.1933,-1.9498,-1.8417,-1.7792,-1.7819,-1.7826,-1.7833,-1.7853,-1.786,-1.7853,-1.786,-1.784,-1.786,-1.786,-1.7772,-1.7724,-1.7806,-1.767,-1.7494,-1.7981,-1.7947,-1.805,-1.7996,-1.7982,-1.7853,-1.7731,-1.7602,-1.746,-1.729,-1.6902,-1.6978,-1.6842,-1.6714,-1.6585,-1.6517,-1.6517,-1.6517,-1.6592,0.0,-1.6714,-1.6788,-1.691,-1.6917,-1.6849,-1.6727,-1.672,-1.6646,-1.653,-1.6503,-1.6429,-1.6327,-1.6286,-1.6212,-1.609,-1.6083,-1.6062,-1.6015,-1.5886,-1.5845,-1.5879,-1.5655,-1.5425,-1.5181,-1.4821,-1.4421,-1.4,-1.3838,-1.3661,-1.3485,-1.3587,-1.377,-1.4027,-1.4027,-1.4163,-1.4401,-1.4428,-1.4448,-1.4482,-1.4631,-1.5694,-1.7684,-1.8458,-1.9777,-2.1781,-2.2309,-2.3569,-2.6218,-2.6711,-2.7891,-3.0478,-3.1049,-3.1191,-3.1673,-3.2171,-3.2398,-3.2297,-3.2496,-3.184,-2.987,-3.1739,-3.232,-3.0497,-3.201,-3.2608,-3.1154,-3.2161,-3.3997,-3.3798,-3.4135,-3.4309,-3.4402,-3.4422,-3.2976,-2.9466,-2.7186,-2.4029,-2.154,-1.8776,-1.7555,-1.7656,-1.7677,-1.7711,-1.7833,-1.7833,-1.7846,-1.7846,-1.786,-1.7853,-1.7853,-1.7826,-1.7833,-1.786,-1.7806,-1.7745,-1.8267,-1.8199,-1.8213,-1.8213,-1.8213,-1.8138,-1.807,-1.8002,-1.7846,-1.7609,-1.7324,-1.7249,-1.7182,-1.7114,-1.7039,-1.7012,-1.7012,-1.7012,-1.7046,-1.7114,-1.7114,-1.7154,-1.7216,-1.7222,-1.7141,-1.6998,-1.6992,-1.6917,-1.6775,-1.6686,-1.6612,-1.6537,-1.6395,-1.6239,-1.609,-1.6083,-1.6083,-1.6083,-1.6015,-1.5974,-1.5974,-1.5927,-1.5791,-1.5554,-1.5337,-1.5059,-1.4692,-1.4529,-1.438,-1.4238,-1.4292,-1.4428,-1.4645,-1.4665,-1.476,-1.4964,-1.4977,-1.5018,-1.5099,-1.5316,-1.6081,-1.7188,-1.7546,-1.7928,-1.8647,-2.0962,-2.3081,-2.4715,-2.5055,-2.56,-2.6999,-2.7433,-2.7882,-2.8125,-2.8276,-2.9001,-3.0565,-3.0889,-3.0563,-2.9557,-3.0258,-3.0129,-2.7476,-2.8507,-2.902,-2.7697,-2.9936,-3.1713,-3.16,-3.18,-3.2557,-3.3507,-3.178,-2.9561,-2.7784,-2.4037,-2.1095,-1.9333,-1.8266,-1.7446,-1.7521,-1.7528,-1.7555,-1.7609,-1.7629,-1.7656,-1.7724,-1.7745,-1.7779,-1.7853,-1.786,-1.786,-1.786,-1.786,-1.7833,-1.8253,-1.8158,-1.8233,-1.8267,-1.8507,-1.8308,-1.8321,-1.8308,-1.8192,-1.7948,-1.7861,-1.7521,-1.7453,-1.7641,-1.7419,-1.7419,-1.7419,-1.7419,-1.7419,-1.7419,-1.7419,-1.7419,-1.7412,-1.7385,-1.7304,-1.7195,-1.7161,-1.7087,-1.6978,-1.6856,-1.6781,-1.6727,-1.6483,-1.63,-1.6185,-1.6185,-1.6178,-1.6185,-1.6178,-1.6164,-1.6144,-1.6279,-1.6246,-1.6029,-1.6001,-1.5825,-1.5459,-1.533,-1.5201,-1.5059,-1.5045,-1.5113,-1.5262,-1.5269,-1.5337,-1.5466,-1.5486,-1.5533,-1.5655,-1.5872,-1.6056,-1.6171,-1.6286,-1.6374,-1.6584,-1.9544,-2.2135,-2.265,-2.2971,-2.3285,-2.4157,-2.4487,-2.4488,-2.4911,-2.4942,-2.6019,-2.8043,-2.8291,-2.8088,-2.768,-2.7929,-2.7349,-2.5316,-2.5062,-2.5766,-2.5872,-2.6969,-2.7895,-2.8549,-2.8904,-2.9977,-3.0538,-2.8532,-2.6334,-2.5681,-2.213,-1.9148,-1.8245,-1.7822,-1.7399,-1.7399,-1.7392,-1.7419,-1.7446,-1.7473,-1.7541,-1.7629,-1.7656,-1.7697,-1.7779,-1.7799,-1.7819,-1.7853,-1.786,-1.786,-1.8074,-1.8048,-1.8165,-1.8111,-1.8138,-1.8267,-1.8321,-1.8321,-1.8301,-1.828,-1.8172,-1.7806,-1.7561,-1.7433,-1.7433,-1.7433,-1.7433,-1.7419,-1.7426,-1.7433,-1.7419,-1.7419,-1.7426,-1.7297,-1.7209,-1.7182,-1.708,-1.7019,-1.6978,-1.6958,-1.689,-1.6748,-1.6585,-1.649,-1.6476,-1.6469,-1.6476,-1.6476,-1.6483,-1.6422,-1.6307,-1.6429,-1.649,-1.6463,-1.6456,-1.6381,-1.6178,-1.6191,-1.611,-1.5974,-1.594,-1.6022,-1.6144,-1.6178,-1.6239,-1.6361,-1.6381,-1.6408,-1.6408,-1.6442,-1.6456,-1.6476,-1.6497,-1.6564,-1.6686,-1.7085,-1.8224,-2.014,-2.0704,-2.1801,-2.4366,-2.4416,-2.4312,-2.4295,-2.4559,-2.5399,-2.543,-2.5625,-2.4598,-2.2131,-2.4371,-2.4666,-2.2406,-2.3592,-2.517,-2.5111,-2.3896,-2.3943,-2.5631,-2.6103,-2.5922,-2.6324,-2.5811,-2.5842,-2.5097,-2.35,-2.088,-2.0457,-1.8815,-1.7573,-1.7324,-1.7351,-1.7419,-1.7433,-1.7514,-1.7595,-1.7636,-1.765,-1.7656,-1.7711,-1.7724,-1.7717,-1.7819,-1.786,-1.786,-1.8041,-1.796,-1.8213,-1.8226,-1.8247,-1.8382,-1.8443,-1.8443,-1.8443,-1.8396,-1.8294,-1.803,-1.7874,-1.7812,-1.7724,-1.7684,-1.7684,-1.7684,-1.7684,-1.7684,-1.7684,-1.7684,-1.767,-1.7623,-1.7507,-1.7338,-1.727,-1.7148,-1.7005,-1.6978,-1.6904,-1.6761,-1.668,-1.6612,-1.653,-1.6517,-1.6517,-1.6524,-1.6612,-1.6625,-1.6571,-1.6537,-1.6517,-1.6517,-1.6517,-1.6497,-1.6442,-1.6435,-1.6402,-1.6347,-1.6341,-1.6368,-1.6435,-1.6435,-1.6463,-1.6517,-1.6517,-1.6564,-1.6653,-1.6653,-1.6693,-1.6781,-1.6795,-1.6822,-1.6876,-1.6883,-1.7266,-1.8033,-1.8425,-1.8869,-2.0158,-2.0166,-2.0198,-2.0279,-2.0369,-2.1054,-2.2708,-2.3025,-2.2477,-2.1643,-2.2328,-2.2169,-1.9859,-1.9913,-2.1439,-2.2725,-2.2156,-2.2242,-2.3313,-2.3403,-2.2838,-2.1558,-2.1189,-2.1948,-2.2592,-2.107,-1.957,-1.8859,-1.8224,-1.7378,-1.7358,-1.7365,-1.7419,-1.7419,-1.7487,-1.7568,-1.7636,-1.7656,-1.767,-1.7711,-1.7772,-1.7799,-1.7853,-1.786,-1.786,-1.8253,-1.7947,-1.8274,-1.8342,-1.8382,-1.8443,-1.8498,-1.8525,-1.8491,-1.8416,-1.8308,-1.8158,-1.8091,-1.807,-1.7928,-1.786,-1.786,-1.786,-1.786,-1.786,-1.786,-1.786,-1.786,-1.7819,-1.7697,-1.7507,-1.7439,-1.7283,-1.7053,-1.6992,-1.6944,-1.6876,-1.687,-1.6836,-1.6775,-1.6768,-1.6768,-1.6781,-1.6876,-1.6931,-1.6924,-1.6829,-1.6727,-1.6653,-1.6646,-1.6646,-1.6646,-1.6646,-1.6646,-1.6646,-1.6646,-1.6646,-1.6646,-1.6646,-1.6646,-1.6646,-1.6646,-1.6693,-1.6802,-1.6809,-1.6863,-1.6965,-1.7012,-1.7039,-1.7046,-1.7073,-1.71,-1.71,-1.71,-1.7093,-1.7039,-1.708,-1.71,-1.7107,-1.7202,-1.8095,-1.9993,-2.0316,-2.0372,-2.0388,-2.0206,-1.9846,-1.7961,-1.7765,-1.8632,-2.0139,-2.0643,-2.0939,-2.073,-2.0826,-2.0247,-1.8302,-1.8081,-1.8644,-1.9931,-1.9282,-1.7751,-1.75,-1.7514,-1.7534,-1.7467,-1.7446,-1.7439,-1.7453,-1.746,-1.7507,-1.7616,-1.7656,-1.7677,-1.7758,-1.7806,-1.7826,-1.7853,-1.786,-1.786,-1.8314,-1.8308,-1.8314,-1.8389,-1.8511,-1.8396,-1.8409,-1.8525,-1.8396,-1.8328,-1.8301,-1.8158,-1.8091,-1.807,-1.7928,-1.786,-1.786,-1.786,-1.786,-1.786,-1.786,-1.786,-1.7853,-1.7724,-1.7656,-1.7609,-1.75,-1.7351,-1.7182,-1.706,-1.7046,-1.7161,-1.7161,-1.7236,-1.7311,-1.7317,-1.7365,-1.7317,-1.7331,-1.7365,-1.7365,-1.7358,-1.7209,-1.6985,-1.6965,-1.6958,-1.6958,-1.6965,-1.6958,-1.6958,-1.6951,-1.6951,-1.6958,-1.6951,-1.6937,-1.6958,-1.6958,-1.6965,-1.6971,-1.6985,-1.6992,-1.7012,-1.7121,-1.7182,-1.7195,-1.729,-1.7351,-1.7385,-1.7378,-1.7331,-1.7236,-1.729,-1.7358,-1.7372,-1.7399,-1.7621,-1.7621,-1.8079,-1.7635,-1.7885,-1.7989,-1.81,-1.7806,-1.7846,-1.7812,-1.8246,-1.8274,-1.8274,-1.8487,-1.8288,-1.8081,-1.8081,-1.786,-1.8074,-1.8053,-1.7992,-1.795,-1.7697,-1.7684,-1.7738,-1.7609,-1.7507,-1.7507,-1.7521,-1.7589,-1.7629,-1.7643,-1.7656,-1.7677,-1.7711,-1.7724,-1.7751,-1.7853,-1.786,-1.786,-1.8321,-1.8321,-1.8321,-1.8348,-1.8396,-1.8437,-1.8484,-1.8525,-1.8477,-1.8403,-1.8301,-1.8158,-1.8043,-1.7941,-1.7894,-1.786,-1.786,-1.786,-1.786,-1.786,-1.786,-1.786,-1.7853,-1.7806,-1.7731,-1.765,-1.7595,-1.7487,-1.7351,-1.7283,-1.7283,-1.7331,-1.7338,-1.7372,-1.7412,-1.7419,-1.7419,-1.7419,-1.7419,-1.7419,-1.7426,-1.7419,-1.7365,-1.7277,-1.7263,-1.7263,-1.7263,-1.7263,-1.7263,-1.7263,-1.7168,-1.7114,-1.7107,-1.7032,-1.7073,-1.7229,-1.7168,-1.7161,-1.7249,-1.7263,-1.7263,-1.727,-1.7304,-1.7338,-1.7344,-1.7385,-1.7419,-1.7439,-1.7521,-1.7528,-1.7494,-1.7453,-1.7419,-1.7433,-1.7507,-1.7575,-1.7589,-1.7643,-1.7704,-1.7711,-1.7758,-1.7812,-1.786,-1.7867,-1.786,-1.786,-1.7867,-1.7867,-1.7867,-1.7867,-1.786,-1.786,-1.786,-1.786,-1.786,-1.7853,-1.784,-1.7819,-1.7819,-1.7812,-1.7731,-1.7711,-1.7711,-1.769,-1.7745,-1.7751,-1.7758,-1.7758,-1.7758,-1.7765,-1.7765,-1.7772,-1.7853,-1.786,-1.786,-1.8464,-1.8457,-1.8409,-1.8416,-1.8457,-1.8464,-1.8491,-1.8518,-1.8484,-1.8409,-1.8314,-1.8213,-1.8104,-1.8023,-1.8009,-1.8009,-1.7996,-1.7914,-1.786,-1.786,-1.786,-1.786,-1.786,-1.786,-1.7812,-1.7717,-1.767,-1.7589,-1.75,-1.7446,-1.7446,-1.7494,-1.7494,-1.7521,-1.7555,-1.7568,-1.7561,-1.7561,-1.7561,-1.7568,-1.7561,-1.7561,-1.7568,-1.7561,-1.7561,-1.7514,-1.7426,-1.7419,-1.7419,-1.7405,-1.7317,-1.7263,-1.7256,-1.7175,-1.7209,-1.7378,-1.7324,-1.7311,-1.7399,-1.7419,-1.7419,-1.7426,-1.7467,-1.7494,-1.75,-1.7582,-1.7629,-1.767,-1.7772,-1.7867,-1.7846,-1.7779,-1.767,-1.7623,-1.7745,-1.7833,-1.7812,-1.7928,-1.8002,-1.8009,-1.8016,-1.8016,-1.8009,-1.8016,-1.8023,-1.8009,-1.7975,-1.7935,-1.7935,-1.7887,-1.786,-1.786,-1.786,-1.786,-1.786,-1.786,-1.786,-1.7853,-1.7846,-1.7853,-1.786,-1.786,-1.786,-1.786,-1.786,-1.786,-1.786,-1.786,-1.786,-1.786,-1.7846,-1.7833,-1.786,-1.786,-1.786,-1.8749,-1.8721,-1.8599,-1.8606,-1.8681,-1.8484,-1.8423,-1.8518,-1.8403,-1.8362,-1.8342,-1.8314,-1.828,-1.8294,-1.8267,-1.8294,-1.8233,-1.8023,-1.7914,-1.7907,-1.7901,-1.7901,-1.7901,-1.7894,-1.7874,-1.784,-1.7717,-1.7656,-1.7643,-1.7534,-1.7528,-1.7629,-1.765,-1.7704,-1.7846,-1.7819,-1.7833,-1.7826,-1.7812,-1.7833,-1.786,-1.784,-1.7846,-1.7853,-1.786,-1.7751,-1.748,-1.746,-1.746,-1.7453,-1.7433,-1.7426,-1.7419,-1.7392,-1.7419,-1.7446,-1.7433,-1.7433,-1.7453,-1.7487,-1.7528,-1.7541,-1.7602,-1.7704,-1.7745,-1.7914,-1.805,-1.8063,-1.8165,-1.8274,-1.8267,-1.826,-1.8145,-1.7948,-1.8091,-1.8179,-1.8138,-1.8213,-1.8308,-1.8287,-1.8267,-1.8308,-1.8308,-1.8267,-1.8253,-1.8233,-1.8165,-1.8091,-1.8077,-1.7989,-1.7887,-1.7874,-1.7874,-1.786,-1.786,-1.786,-1.786,-1.786,-1.786,-1.786,-1.786,-1.786,-1.786,-1.786,-1.786,-1.786,-1.786,-1.786,-1.786,-1.786,-1.786,-1.786,-1.786,-1.786,-1.786,-1.8762,-1.8755,-1.8715,-1.8715,-1.8749,-1.866,-1.8654,-1.8667,-1.8531,-1.8464,-1.845,-1.8362,-1.8314,-1.8321,-1.8548,-1.8555,-1.8308,-1.8213,-1.8179,-1.8179,-1.8172,-1.8165,-1.8152,-1.807,-1.7968,-1.7874,-1.7819,-1.7799,-1.7792,-1.7751,-1.7758,-1.7792,-1.7799,-1.7819,-1.7867,-1.786,-1.786,-1.786,-1.786,-1.786,-1.7874,-1.7968,-1.8016,-1.803,-1.8118,-1.8124,-1.8036,-1.784,-1.7731,-1.7724,-1.7629,-1.7575,-1.7561,-1.748,-1.7521,-1.7697,-1.7724,-1.7779,-1.788,-1.7975,-1.8016,-1.8036,-1.8077,-1.8104,-1.8111,-1.8186,-1.8247,-1.8247,-1.8294,-1.8321,-1.8335,-1.8416,-1.8375,-1.8199,-1.826,-1.8321,-1.828,-1.8301,-1.8314,-1.8321,-1.8321,-1.8321,-1.8321,-1.8328,-1.8342,-1.8342,-1.8287,-1.8247,-1.8226,-1.8118,-1.8023,-1.8016,-1.7955,-1.7901,-1.7935,-1.7935,-1.7907,-1.7894,-1.788,-1.7867,-1.786,-1.786,-1.786,-1.786,-1.786,-1.786,-1.786,-1.786,-1.786,-1.786,-1.786,-1.786,-1.786,-1.786,-1.786,-1.8762,-1.8762,-1.8762,-1.8762,-1.8762,-1.8762,-1.8762,-1.8749,-1.866,-1.862,-1.8593,-1.8525,-1.8484,-1.8484,-1.872,-1.872,-1.8484,-1.8484,-1.8484,-1.8457,-1.8348,-1.8321,-1.8308,-1.8226,-1.8131,-1.805,-1.803,-1.803,-1.803,-1.8036,-1.8036,-1.803,-1.803,-1.8036,-1.803,-1.8036,-1.8036,-1.803,-1.8036,-1.803,-1.805,-1.8124,-1.8172,-1.8192,-1.8267,-1.8314,-1.8301,-1.8131,-1.803,-1.8023,-1.7941,-1.7901,-1.7887,-1.7819,-1.784,-1.7982,-1.8036,-1.8077,-1.8179,-1.824,-1.8321,-1.8321,-1.8321,-1.8314,-1.8328,-1.8348,-1.8396,-1.8396,-1.8457,-1.8484,-1.8504,-1.8559,-1.8565,-1.8498,-1.8491,-1.8484,-1.8484,-1.8484,-1.8491,-1.8498,-1.8498,-1.8484,-1.8484,-1.8484,-1.8484,-1.8484,-1.8437,-1.8396,-1.8369,-1.8267,-1.8213,-1.8165,-1.8131,-1.8084,-1.805,-1.8009,-1.7962,-1.7935,-1.7907,-1.788,-1.786,-1.786,-1.786,-1.786,-1.786,-1.786,-1.786,-1.786,-1.786,-1.786,-1.7887,-1.7867,-1.7867,-1.786,-1.7867,-1.8762,-1.8762,-1.8762,-1.8762,-1.8762,-1.8762,-1.8762,-1.8762,-1.8755,-1.8742,-1.8742,-1.8721,-1.8735,-1.8749,-1.8715,-1.8715,-1.8749,-1.8721,-1.8715,-1.8654,-1.8504,-1.8382,-1.8355,-1.8335,-1.8308,-1.828,-1.828,-1.8287,-1.8267,-1.8267,-1.8321,-1.828,-1.8274,-1.8301,-1.8274,-1.8308,-1.828,-1.8274,-1.8287,-1.8287,-1.8287,-1.8321,-1.8328,-1.8335,-1.8362,-1.8375,-1.8382,-1.8362,-1.8328,-1.8314,-1.8267,-1.8247,-1.8294,-1.8314,-1.8267,-1.828,-1.8314,-1.8314,-1.8328,-1.8409,-1.8416,-1.843,-1.845,-1.8369,-1.8464,-1.8572,-1.8626,-1.8626,-1.8715,-1.8789,-1.8789,-1.8796,-1.8796,-1.8789,-1.8762,-1.8749,-1.8755,-1.8749,-1.8735,-1.8728,-1.8755,-1.8749,-1.8715,-1.8721,-1.8728,-1.8708,-1.862,-1.8559,-1.8518,-1.8443,-1.8355,-1.8308,-1.828,-1.8226,-1.8172,-1.8145,-1.8104,-1.8091,-1.8043,-1.7996,-1.7935,-1.7921,-1.7955,-1.7948,-1.7907,-1.7894,-1.7921,-1.7968,-1.7975,-1.7996,-1.7975,-1.7901,-1.7914,-1.7962,-1.7975,-1.8762,-1.8762,-1.8762,-1.8762,-1.8762,-1.8762,-1.8762,-1.8762,-1.8762,-1.8776,-1.8769,-1.8762,-1.8762,-1.8762,-1.8762,-1.8762,-1.8762,-1.8769,-1.8762,-1.8755,-1.8694,-1.8579,-1.8498,-1.847,-1.8423,-1.8348,-1.8348,-1.8314,-1.8321,-1.8342,-1.8335,-1.8321,-1.8342,-1.8328,-1.8321,-1.8335,-1.8321,-1.8321,-1.8321,-1.8328,-1.8348,-1.843,-1.8477,-1.8484,-1.8586,-1.8633,-1.8647,-1.8647,-1.8531,-1.8335,-1.8321,-1.8321,-1.8342,-1.8348,-1.8362,-1.8369,-1.8437,-1.8484,-1.8525,-1.8681,-1.8796,-1.883,-1.8857,-1.8972,-1.8972,-1.8993,-1.902,-1.9033,-1.9074,-1.9074,-1.9081,-1.9074,-1.9074,-1.9074,-1.9,-1.8898,-1.883,-1.8864,-1.8891,-1.8789,-1.8776,-1.8782,-1.8789,-1.8776,-1.8776,-1.8769,-1.8728,-1.8681,-1.864,-1.8579,-1.8477,-1.8437,-1.8396,-1.8342,-1.8294,-1.8274,-1.826,-1.826,-1.8219,-1.8172,-1.8104,-1.805,-1.8118,-1.8179,-1.8077,-1.8036,-1.8138,-1.8219,-1.8192,-1.8131,-1.8145,-1.8124,-1.8172,-1.8213,-1.8199,-1.8857,-1.8857,-1.8857,-1.8891,-1.8945,-1.8945,-1.8945,-1.8932,-1.8884,-1.8898,-1.8911,-1.881,-1.8803,-1.885,-1.8796,-1.8762,-1.8769,-1.883,-1.8823,-1.8762,-1.8749,-1.8701,-1.864,-1.8626,-1.8586,-1.8518,-1.8498,-1.8511,-1.8518,-1.8504,-1.8504,-1.8518,-1.8504,-1.8504,-1.8518,-1.8504,-1.8504,-1.8511,-1.8504,-1.8504,-1.8518,-1.8579,-1.8667,-1.8715,-1.8823,-1.8877,-1.8932,-1.8945,-1.8837,-1.8647,-1.8552,-1.8531,-1.8593,-1.8599,-1.8599,-1.8606,-1.8735,-1.8816,-1.8837,-1.8986,-1.9067,-1.9088,-1.9169,-1.9189,-1.9183,-1.9203,-1.9203,-1.9183,-1.9203,-1.9203,-1.9203,-1.9203,-1.9203,-1.9183,-1.9183,-1.9108,-1.8966,-1.9027,-1.9033,-1.8972,-1.8945,-1.8945,-1.8938,-1.8898,-1.8864,-1.8843,-1.8796,-1.8769,-1.8735,-1.8667,-1.8613,-1.8572,-1.8559,-1.8531,-1.8477,-1.845,-1.8416,-1.8409,-1.8403,-1.8355,-1.828,-1.8206,-1.824,-1.828,-1.8219,-1.8213,-1.8308,-1.8355,-1.8287,-1.826,-1.8314,-1.8328,-1.8342,-1.8382,-1.8375,-1.8771,-1.8771,-1.9006,-1.9088,-1.9183,-1.9196,-1.9169,-1.9169,-1.9061,-1.9074,-1.9108,-1.8918,-1.8911,-1.9,-1.8911,-1.8823,-1.8837,-1.8966,-1.8925,-1.8877,-1.8843,-1.8837,-1.883,-1.8755,-1.8728,-1.8715,-1.8749,-1.8735,-1.8708,-1.8728,-1.8749,-1.8728,-1.8749,-1.8776,-1.8769,-1.8789,-1.8803,-1.8803,-1.8803,-1.881,-1.881,-1.883,-1.8884,-1.8966,-1.8993,-1.9061,-1.9135,-1.9169,-1.9115,-1.904,-1.8891,-1.8877,-1.8979,-1.9,-1.8993,-1.8993,-1.9067,-1.9142,-1.9183,-1.9183,-1.923,-1.9237,-1.925,-1.925,-1.9291,-1.9305,-1.9298,-1.9305,-1.925,-1.9291,-1.9291,-1.9271,-1.9291,-1.9318,-1.9386,-1.9373,-1.9291,-1.9237,-1.9217,-1.9203,-1.9189,-1.9196,-1.9169,-1.9101,-1.9013,-1.8993,-1.8925,-1.8857,-1.8816,-1.8749,-1.8721,-1.8708,-1.8715,-1.8735,-1.8681,-1.8633,-1.8586,-1.8559,-1.8559,-1.8525,-1.845,-1.8389,-1.8375,-1.8362,-1.8369,-1.8382,-1.8423,-1.8423,-1.8396,-1.8416,-1.8484,-1.8443,-1.8396,-1.847,-1.8491,-1.8918,-1.8912,-1.9156,-1.9413,-1.9447,-1.9203,-1.9203,-1.921,-1.9176,-1.9183,-1.9183,-1.9128,-1.9115,-1.9156,-1.9108,-1.9108,-1.9081,-1.9128,-1.9128,-1.9122,-1.9108,-1.9108,-1.9047,-1.8898,-1.8776,-1.8782,-1.8769,-1.8769,-1.8776,-1.8796,-1.8769,-1.8789,-1.8898,-1.8938,-1.8952,-1.9027,-1.9108,-1.9108,-1.9094,-1.9081,-1.9074,-1.9081,-1.9101,-1.9156,-1.9169,-1.9176,-1.9189,-1.9203,-1.9244,-1.9271,-1.921,-1.9149,-1.9156,-1.9162,-1.9156,-1.9169,-1.9189,-1.9217,-1.9223,-1.9318,-1.9379,-1.9393,-1.9468,-1.9563,-1.9569,-1.9542,-1.9549,-1.9563,-1.9563,-1.9529,-1.9529,-1.9549,-1.9535,-1.9535,-1.9563,-1.959,-1.9549,-1.9447,-1.9345,-1.9257,-1.9223,-1.9203,-1.921,-1.9203,-1.9156,-1.9135,-1.9061,-1.8959,-1.8905,-1.885,-1.883,-1.883,-1.881,-1.881,-1.8742,-1.8701,-1.8681,-1.8654,-1.866,-1.8708,-1.8633,-1.8552,-1.8525,-1.8531,-1.8552,-1.8565,-1.8565,-1.8613,-1.8606,-1.8633,-1.864,-1.8606,-1.8586,-1.862,-1.8613,-1.9312,-1.9305,-1.9312,-1.9352,-1.966,-1.942,-1.942,-1.94,-1.9339,-1.9352,-1.9373,-1.9278,-1.9237,-1.9298,-1.9237,-1.9196,-1.9203,-1.9203,-1.9244,-1.9264,-1.9244,-1.9196,-1.9189,-1.9067,-1.8972,-1.8972,-1.8972,-1.8972,-1.8966,-1.8959,-1.8986,-1.8972,-1.9054,-1.9088,-1.9088,-1.9176,-1.9183,-1.9189,-1.9203,-1.9203,-1.9203,-1.9203,-1.9257,-1.9318,-1.9373,-1.942,-1.9427,-1.942,-1.9468,-1.9515,-1.9515,-1.944,-1.9332,-1.9312,-1.9312,-1.9318,-1.9386,-1.9413,-1.9447,-1.9488,-1.9542,-1.9535,-1.9624,-1.9651,-1.9664,-1.9664,-1.9664,-1.9664,-1.9657,-1.9664,-1.9664,-1.9657,-1.9664,-1.9664,-1.9664,-1.9664,-1.9651,-1.9583,-1.9515,-1.9434,-1.944,-1.9434,-1.9413,-1.9345,-1.9312,-1.9298,-1.9183,-1.9088,-1.9088,-1.9033,-1.8959,-1.8932,-1.8898,-1.8857,-1.8782,-1.8749,-1.8742,-1.8728,-1.8721,-1.8796,-1.8823,-1.8742,-1.8667,-1.8674,-1.8681,-1.8681,-1.8694,-1.8755,-1.8762,-1.8728,-1.8715,-1.8749,-1.8755,-1.8728,-1.8708,-1.9715,-1.9715,-1.9468,-1.9542,-1.9651,-1.9657,-1.9644,-1.963,-1.9522,-1.9522,-1.9596,-1.9373,-1.9373,-1.942,-1.9352,-1.9284,-1.9284,-1.9298,-1.9379,-1.944,-1.9373,-1.9332,-1.9312,-1.9291,-1.9278,-1.9264,-1.9189,-1.9176,-1.9169,-1.9196,-1.9142,-1.9189,-1.923,-1.9237,-1.9237,-1.9271,-1.9312,-1.9318,-1.9325,-1.9318,-1.9312,-1.9312,-1.9373,-1.9461,-1.9556,-1.9617,-1.9617,-1.9624,-1.9651,-1.9671,-1.98,-1.9725,-1.9583,-1.9529,-1.9529,-1.9542,-1.9637,-1.9657,-1.9651,-1.9657,-1.9651,-1.9664,-1.9664,-1.9664,-1.9664,-1.9664,-1.9664,-1.9664,-1.9664,-1.9664,-1.9664,-1.9664,-1.9664,-1.9664,-1.9664,-1.9664,-1.9664,-1.9664,-1.9637,-1.9637,-1.9583,-1.9569,-1.9563,-1.9522,-1.9488,-1.944,-1.9318,-1.9237,-1.9237,-1.9196,-1.9108,-1.9061,-1.9027,-1.902,-1.8952,-1.8918,-1.8905,-1.8877,-1.885,-1.8918,-1.9,-1.8959,-1.8877,-1.8796,-1.8789,-1.8782,-1.8762,-1.8755,-1.8762,-1.8762,-1.8803,-1.8843,-1.8843,-1.8816,-1.8837,-1.963,-1.9624,-1.9624,-1.9637,-1.9664,-1.9664,-1.9664,-1.9657,-1.963,-1.9637,-1.9651,-1.9603,-1.9576,-1.9603,-1.961,-1.9583,-1.9542,-1.9535,-1.9569,-1.9603,-1.9563,-1.9549,-1.9535,-1.9529,-1.9556,-1.9515,-1.9373,-1.9244,-1.923,-1.9203,-1.9257,-1.9244,-1.9332,-1.9393,-1.9427,-1.9508,-1.9542,-1.9522,-1.9535,-1.9535,-1.9535,-1.9542,-1.9549,-1.9603,-1.9644,-1.9657,-1.9664,-1.9664,-1.9664,-1.9678,-1.98,-1.9827,-1.9813,-1.9881,-1.9949,-1.9922,-1.9868,-1.9834,-1.9807,-1.9725,-1.9678,-1.9664,-1.9664,-1.9664,-1.9664,-1.9664,-1.9664,-1.9664,-1.9664,-1.9664,-1.9664,-1.9664,-1.9664,-1.9664,-1.9664,-1.9664,-1.9664,-1.9664,-1.9664,-1.9664,-1.9664,-1.9664,-1.9637,-1.9617,-1.959,-1.9542,-1.9461,-1.94,-1.9393,-1.9318,-1.9223,-1.9189,-1.9169,-1.9169,-1.9149,-1.9128,-1.9108,-1.9088,-1.9074,-1.9088,-1.9142,-1.9156,-1.9101,-1.902,-1.8905,-1.8837,-1.8816,-1.881,-1.8823,-1.8871,-1.8911,-1.8952,-1.8966,-1.8979,-1.9047,-1.9664,-1.9664,-1.9664,-1.9664,-1.9664,-1.9664,-1.9664,-1.9664,-1.9664,-1.9664,-1.9664,-1.9664,-1.9664,-1.9664,-1.9664,-1.9664,-1.9664,-1.9664,-1.9664,-1.9664,-1.9664,-1.9664,-1.9664,-1.9664,-1.9664,-1.9624,-1.9508,-1.9434,-1.944,-1.9447,-1.942,-1.9454,-1.9522,-1.9549,-1.9563,-1.961,-1.9657,-1.9664,-1.9664,-1.9664,-1.9664,-1.9664,-1.9664,-1.9664,-1.9664,-1.9664,-1.9664,-1.9664,-1.9664,-1.9691,-1.98,-1.9861,-1.9936,-2.0064,-2.0187,-2.0112,-2.0037,-1.9949,-1.9888,-1.98,-1.9752,-1.9671,-1.9664,-1.9664,-1.9664,-1.9664,-1.9664,-1.9664,-1.9664,-1.9664,-1.9664,-1.9664,-1.9664,-1.9664,-1.9664,-1.9664,-1.9664,-1.9664,-1.9664,-1.9664,-1.9664,-1.9664,-1.9664,-1.9657,-1.9664,-1.963,-1.9583,-1.9556,-1.9535,-1.9468,-1.9366,-1.9318,-1.9298,-1.9264,-1.9271,-1.9278,-1.9278,-1.9264,-1.9264,-1.9278,-1.9278,-1.9284,-1.9284,-1.9244,-1.9115,-1.9,-1.8993,-1.9027,-1.9006,-1.8979,-1.9047,-1.9101,-1.9115,-1.9149,-1.9217,-1.9664,-1.9664,-1.9664,-1.9664,-1.9664,-1.9664,-1.9664,-1.9664,-1.9664,-1.9664,-1.9664,-1.9664,-1.9664,-1.9664,-1.9664,-1.9664,-1.9664,-1.9664,-1.9664,-1.9664,-1.9664,-1.9664,-1.9664,-1.9664,-1.9664,-1.9657,-1.9644,-1.9664,-1.9624,-1.9624,-1.9651,-1.963,-1.9651,-1.9664,-1.9657,-1.9657,-1.9664,-1.9664,-1.9664,-1.9664,-1.9664,-1.9664,-1.9664,-1.9664,-1.9664,-1.9664,-1.9664,-1.9664,-1.9664,-1.9698,-1.9786,-1.9888,-1.9956,-2.0153,-2.0248,-2.02,-2.0166,-2.0064,-1.9963,-1.9875,-1.9793,-1.9678,-1.9664,-1.9664,-1.9664,-1.9664,-1.9664,-1.9664,-1.9664,-1.9664,-1.9664,-1.9664,-1.9664,-1.9664,-1.9664,-1.9664,-1.9664,-1.9664,-1.9664,-1.9664,-1.9664,-1.9664,-1.9664,-1.9664,-1.9664,-1.9664,-1.9617,-1.9624,-1.9603,-1.9617,-1.9542,-1.9474,-1.942,-1.9373,-1.9366,-1.9386,-1.94,-1.9413,-1.9413,-1.942,-1.9413,-1.9406,-1.9413,-1.9427,-1.9393,-1.9298,-1.9278,-1.9203,-1.9135,-1.9122,-1.9203,-1.925,-1.9257,-1.9312,-1.9386,-1.9664,-1.9664,-1.9664,-1.9664,-1.9664,-1.9664,-1.9664,-1.9664,-1.9664,-1.9664,-1.9664,-1.9664,-1.9664,-1.9664,-1.9664,-1.9664,-1.9664,-1.9664,-1.9664,-1.9664,-1.9664,-1.9664,-1.9664,-1.9664,-1.9678,-1.9691,-1.9685,-1.9664,-1.9691,-1.9691,-1.9664,-1.9664,-1.9664,-1.9664,-1.9664,-1.9664,-1.9664,-1.9664,-1.9664,-1.9664,-1.9664,-1.9664,-1.9664,-1.9664,-1.9664,-1.9664,-1.9664,-1.9664,-1.9664,-1.9678,-1.9793,-1.9929,-2.0051,-2.0092,-2.0275,-2.037,-2.037,-2.0241,-2.0085,-1.9969,-1.9841,-1.9725,-1.9671,-1.9664,-1.9664,-1.9664,-1.9664,-1.9664,-1.9664,-1.9664,-1.9664,-1.9664,-1.9664,-1.9664,-1.9664,-1.9664,-1.9664,-1.9664,-1.9664,-1.9664,-1.9664,-1.9664,-1.9664,-1.9664,-1.9664,-1.9664,-1.9664,-1.9664,-1.9664,-1.9664,-1.9664,-1.9583,-1.9542,-1.9495,-1.9474,-1.9495,-1.9501,-1.9529,-1.9535,-1.9549,-1.9535,-1.9529,-1.9576,-1.9583,-1.9556,-1.9488,-1.9379,-1.9291,-1.923,-1.9264,-1.9359,-1.9393,-1.9406,-1.9474,-1.9535,-1.9664,-1.9664,-1.9664,-1.9664,-1.9664,-1.9664,-1.9664,-1.9664,-1.9664,-1.9664,-1.9664,-1.9664,-1.9664,-1.9664,-1.9664,-1.9664,-1.9664,-1.9664,-1.9664,-1.9664,-1.9664,-1.9671,-1.9664,-1.9671,-1.9685,-1.9773,-1.9793,-1.9861,-1.9834,-1.9739,-1.9664,-1.9671,-1.9664,-1.9664,-1.9664,-1.9664,-1.9664,-1.9664,-1.9664,-1.9664,-1.9664,-1.9664,-1.9664,-1.9664,-1.9671,-1.9664,-1.9671,-1.9664,-1.9664,-1.9671,-1.9732,-1.9773,-1.9854,-1.9929,-2.0071,-2.0248,-2.0322,-2.0288,-2.022,-2.0085,-1.9929,-1.9793,-1.9712,-1.9664,-1.9664,-1.9664,-1.9664,-1.9664,-1.9664,-1.9664,-1.9664,-1.9664,-1.9664,-1.9664,-1.9664,-1.9664,-1.9664,-1.9664,-1.9664,-1.9664,-1.9664,-1.9664,-1.9664,-1.9664,-1.9664,-1.9664,-1.9664,-1.9664,-1.9664,-1.9664,-1.9664,-1.9651,-1.9637,-1.963,-1.961,-1.961,-1.959,-1.961,-1.961,-1.9617,-1.9637,-1.9651,-1.9664,-1.9664,-1.9624,-1.9542,-1.9447,-1.9447,-1.944,-1.9474,-1.9515,-1.9522,-1.9529,-1.9556,-1.9617,-1.9664,-1.9664,-1.9664,-1.9664,-1.9664,-1.9664,-1.9664,-1.9664,-1.9664,-1.9664,-1.9664,-1.9664,-1.9664,-1.9664,-1.9664,-1.9664,-1.9664,-1.9664,-1.9664,-1.9671,-1.9698,-1.9725,-1.9752,-1.9759,-1.9841,-1.9936,-1.9929,-1.9976,-1.9969,-1.9875,-1.9732,-1.9712,-1.9739,-1.9698,-1.9671,-1.9664,-1.9664,-1.9664,-1.9664,-1.9685,-1.9712,-1.9678,-1.9719,-1.9732,-1.9712,-1.9678,-1.9705,-1.9671,-1.9664,-1.9664,-1.9671,-1.9705,-1.9766,-1.9813,-1.9936,-2.0112,-2.0248,-2.0322,-2.0268,-2.0166,-2.0017,-1.9854,-1.9746,-1.9664,-1.9664,-1.9664,-1.9664,-1.9664,-1.9664,-1.9664,-1.9664,-1.9664,-1.9664,-1.9664,-1.9664,-1.9664,-1.9664,-1.9664,-1.9664,-1.9664,-1.9664,-1.9664,-1.9664,-1.9664,-1.9664,-1.9664,-1.9664,-1.9664,-1.9664,-1.9664,-1.9664,-1.9664,-1.9664,-1.9664,-1.9664,-1.9664,-1.9664,-1.9664,-1.9664,-1.9664,-1.9664,-1.9664,-1.9664,-1.9664,-1.9664,-1.963,-1.9556,-1.961,-1.9664,-1.9624,-1.9596,-1.963,-1.9644,-1.9664,-1.9664,-1.9664,-1.9664,-1.9664,-1.9664,-1.9664,-1.9664,-1.9664,-1.9664,-1.9664,-1.9664,-1.9664,-1.9664,-1.9664,-1.9664,-1.9664,-1.9664,-1.9664,-1.9664,-1.9678,-1.9719,-1.9786,-1.9841,-1.9881,-1.9963,-2.0051,-2.0085,-2.0085,-2.0098,-2.0092,-2.0037,-1.9908,-1.9861,-1.9813,-1.9759,-1.9705,-1.9664,-1.9664,-1.9664,-1.9664,-1.9732,-1.9766,-1.9766,-1.9786,-1.9936,-1.9827,-1.9719,-1.9841,-1.9752,-1.9691,-1.9691,-1.9671,-1.9705,-1.9759,-1.9739,-1.9841,-2.0064,-2.0241,-2.0315,-2.0295,-2.022,-1.999,-1.9786,-1.9685,-1.9698,-1.9705,-1.9678,-1.9664,-1.9671,-1.9664,-1.9664,-1.9664,-1.9664,-1.9664,-1.9664,-1.9664,-1.9664,-1.9664,-1.9664,-1.9664,-1.9664,-1.9664,-1.9664,-1.9664,-1.9664,-1.9664,-1.9664,-1.9664,-1.9664,-1.9664,-1.9664,-1.9664,-1.9664,-1.9664,-1.9664,-1.9664,-1.9664,-1.9664,-1.9664,-1.9664,-1.9664,-1.9664,-1.9664,-1.9664,-1.9664,-1.9664,-1.9664,-1.9664,-1.9664,-1.9664,-1.9664,-1.9664,-1.9664,-1.9664,-1.9664,-1.9664,-1.9664,-1.9664,-1.9664,-1.9664,-1.9664,-1.9664,-1.9664,-1.9664,-1.9664,-1.9664,-1.9664,-1.9664,-1.9664,-1.9664,-1.9664,-1.9664,-1.9664,-1.9664,-1.9712,-1.978,-1.9854,-1.9929,-2.0003,-2.0085,-2.0139,-2.022,-2.0241,-2.0302,-2.0363,-2.0248,-2.022,-2.0132,-1.9895,-1.9746,-1.9671,-1.9671,-1.9664,-1.9664,-1.9678,-1.9739,-1.9813,-1.9759,-1.98,-2.0044,-1.9922,-1.9881,-1.9963,-1.9861,-1.9813,-1.9773,-1.9712,-1.9739,-1.9773,-1.9712,-1.9841,-2.0078,-2.0248,-2.0322,-2.0343,-2.0322,-2.0234,-1.9983,-1.9861,-1.9793,-1.9793,-1.9793,-1.9739,-1.9705,-1.9671,-1.9685,-1.9664,-1.9664,-1.9664,-1.9664,-1.9664,-1.9664,-1.9664,-1.9664,-1.9664,-1.9664,-1.9664,-1.9664,-1.9664,-1.9664,-1.9664,-1.9664,-1.9664,-1.9664,-1.9664,-1.9664,-1.9664,-1.9664,-1.9664,-1.9664,-1.9664,-1.9664,-1.9664,-1.9664,-1.9664,-1.9664,-1.9664,-1.9664,-1.9664,-1.9664,-1.9664,-1.9664,-1.9664,-1.9664,-1.9664,-1.9664,-1.9664,-1.9664,-1.9664,-1.9664,-1.9664,-1.9664,-1.9664,-1.9664,-1.9664,-1.9664,-1.9664,-1.9664,-1.9664,-1.9664,-1.9664,-1.9664,-1.9664,-1.9664,-1.9664,-1.9664,-1.9664,-1.9678,-1.9712,-1.9786,-1.9875,-1.9976,-2.0064,-2.0146,-2.0227,-2.0315,-2.0383,-2.0397,-2.0451,-2.0505,-2.0492,-2.0349,-2.0146,-1.9929,-1.978,-1.9725,-1.9678,-1.9664,-1.9664,-1.9719,-1.98,-1.9908,-1.9875,-1.9949,-2.0166,-2.0058,-2.0031,-2.0085,-2.0031,-1.9956,-1.9915,-1.9868,-1.9813,-1.98,-1.982,-1.9908,-2.0085,-2.0261,-2.037,-2.037,-2.0329,-2.0315,-2.0078,-2.0003,-1.9949,-1.9942,-1.9942,-1.9902,-1.9834,-1.9773,-1.9725,-1.9719,-1.9705,-1.9671,-1.9664,-1.9664,-1.9664,-1.9664,-1.9664,-1.9664,-1.9664,-1.9664,-1.9671,-1.9664,-1.9664,-1.9664,-1.9664,-1.9664,-1.9664,-1.9664,-1.9664,-1.9664,-1.9664,-1.9664,-1.9664,-1.9664,-1.9664,-1.9664,-1.9664,-1.9664,-1.9664,-1.9664,-1.9664,-1.9664,-1.9664,-1.9664,-1.9664,-1.9664,-1.9664,-1.9664,-1.9664,-1.9664,-1.9664,-1.9664,-1.9664,-1.9664,-1.9664,-1.9664,-1.9664,-1.9664,-1.9664,-1.9664,-1.9664,-1.9664,-1.9664,-1.9664,-1.9664,-1.9664,-1.9664,-1.9664,-1.9664,-1.9678,-1.9719,-1.98,-1.9888,-1.9976,-2.0146,-2.0275,-2.0356,-2.0417,-2.0451,-2.0519,-2.0512,-2.0505,-2.0532,-2.0424,-2.0282,-2.0153,-1.999,-1.9854,-1.9854,-1.9732,-1.9671,-1.9691,-1.982,-1.9949,-2.0058,-2.0058,-2.0187,-2.0329,-2.0227,-2.0173,-2.0254,-2.0173,-2.0105,-2.0085,-2.0044,-2.001,-2.0017,-2.0024,-2.0078,-2.0153,-2.039,-2.0451,-2.0363,-2.0214,-2.018,-2.0173,-2.0139,-2.0098,-2.0098,-2.0092,-2.0071,-1.999,-1.9936,-1.9881,-1.9827,-1.978,-1.9739,-1.9732,-1.9746,-1.9752,-1.9759,-1.9766,-1.9786,-1.98,-1.9725,-1.9671,-1.9671,-1.9671,-1.9664,-1.9664,-1.9664,-1.9664,-1.9664,-1.9664,-1.9664,-1.9664,-1.9664,-1.9664,-1.9664,-1.9664,-1.9664,-1.9664,-1.9664,-1.9664,-1.9664,-1.9664,-1.9664,-1.9664,-1.9664,-1.9664,-1.9664,-1.9664,-1.9664,-1.9664,-1.9664,-1.9664,-1.9664,-1.9664,-1.9664,-1.9664,-1.9664,-1.9664,-1.9664,-1.9664,-1.9664,-1.9664,-1.9664,-1.9664,-1.9664,-1.9664,-1.9664,-1.9664,-1.9664,-1.9678,-1.9712,-1.98,-1.9834,-1.9922,-2.018,-2.0302,-2.0383,-2.0458,-2.0505,-2.0539,-2.0539,-2.0539,-2.0539,-2.0539,-2.041,-2.0329,-2.0227,-2.0078,-1.9969,-1.9929,-1.9895,-1.9956,-1.9963,-2.0017,-2.0092,-2.0214,-2.018,-2.0248,-2.0519,-2.0343,-2.0322,-2.0438,-2.0309,-2.0254,-2.0234,-2.0193,-2.0139,-2.0132,-2.0132,-2.0207,-2.0322,-2.0532,-2.0573,-2.0553,-2.0505,-2.041,-2.0363,-2.0295,-2.0254,-2.0254,-2.0254,-2.0207,-2.0132,-2.0078,-2.0031,-2.0003,-1.9997,-1.9976,-1.9976,-1.9983,-1.9983,-1.999,-1.9983,-1.999,-1.9997,-1.9956,-1.9861,-1.9827,-1.978,-1.9759,-1.9739,-1.9746,-1.9691,-1.9671,-1.9664,-1.9664,-1.9664,-1.9664,-1.9664,-1.9664,-1.9664,-1.9664,-1.9664,-1.9664,-1.9664,-1.9664,-1.9664,-1.9664,-1.9664,-1.9664,-1.9664,-1.9671,-1.9671,-1.9664,-1.9664,-1.9698,-1.9691,-1.9664,-1.9664,-1.9664,-1.9664,-1.9664,-1.9664,-1.9664,-1.9664,-1.9664,-1.9664,-1.9664,-1.9664,-1.9664,-1.9664,-1.9664,-1.9664,-1.9678,-1.9719,-1.9766,-1.9881,-2.0003,-2.0071,-2.0336,-2.039,-2.0451,-2.0512,-2.0539,-2.0539,-2.0539,-2.0539,-2.0539,-2.0539,-2.0451,-2.0376,-2.0295,-2.018,-2.0098,-2.0058,-2.0092,-2.0078,-2.0085,-2.0132,-2.022,-2.0288,-2.0309,-2.0356,-2.0471,-2.0465,-2.0444,-2.0485,-2.0465,-2.0397,-2.0363,-2.0315,-2.0248,-2.0248,-2.0282,-2.0349,-2.0492,-2.0553,-2.0594,-2.0607,-2.0594,-2.0505,-2.0505,-2.0444,-2.041,-2.0404,-2.0404,-2.0363,-2.0288,-2.0214,-2.0187,-2.018,-2.0173,-2.0126,-2.0119,-2.0119,-2.0112,-2.0105,-2.0098,-2.0098,-2.0119,-2.0105,-2.0031,-1.9976,-1.9922,-1.9881,-1.9854,-1.9827,-1.9766,-1.9698,-1.9685,-1.9678,-1.9664,-1.9664,-1.9664,-1.9664,-1.9664,-1.9664,-1.9664,-1.9664,-1.9664,-1.9664,-1.9664,-1.9664,-1.9664,-1.9678,-1.9685,-1.9685,-1.9685,-1.9725,-1.9766,-1.9807,-1.9766,-1.9685,-1.9698,-1.9739,-1.9664,-1.9664,-1.9664,-1.9664,-1.9664,-1.9664,-1.9664,-1.9664,-1.9664,-1.9664,-1.9664,-1.9664,-1.9664,-1.9691,-1.98,-1.9875,-1.9949,-2.0173,-2.0288,-2.037,-2.0458,-2.0519,-2.0532,-2.0539,-2.0539,-2.0539,-2.0539,-2.0539,-2.0532,-2.0424,-2.0363,-2.0302,-2.0159,-2.018,-2.022,-2.0234,-2.0193,-2.0227,-2.0282,-2.0343,-2.0376,-2.0451,-2.0478,-2.0526,-2.0519,-2.0512,-2.0532,-2.0512,-2.0512,-2.0512,-2.0512,-2.0512,-2.0526,-2.0532,-2.0539,-2.0539,-2.0539,-2.058,-2.056,-2.0546,-2.0546,-2.0539,-2.0526,-2.0532,-2.0519,-2.0499,-2.0471,-2.0438,-2.0383,-2.0349,-2.0329,-2.0254,-2.018,-2.0173,-2.0173,-2.0173,-2.0166,-2.0166,-2.0166,-2.0166,-2.0153,-2.0119,-2.0112,-2.0071,-2.0003,-1.9983,-1.9956,-1.9908,-1.9834,-1.9732,-1.9712,-1.9664,-1.9664,-1.9664,-1.9664,-1.9671,-1.9664,-1.9664,-1.9664,-1.9671,-1.9664,-1.9705,-1.9752,-1.9766,-1.9719,-1.9725,-1.98,-1.9827,-1.9834,-1.9875,-1.9922,-1.9813,-1.9725,-1.9841,-1.9895,-1.9664,-1.9664,-1.9664,-1.9664,-1.9664,-1.9664,-1.9664,-1.9664,-1.9664,-1.9664,-1.9664,-1.9664,-1.9664,-1.9678,-1.9807,-1.9922,-2.0071,-2.0227,-2.0376,-2.0465,-2.0512,-2.0532,-2.0539,-2.0539,-2.0539,-2.0539,-2.0539,-2.0526,-2.0478,-2.0376,-2.0241,-2.0153,-2.0146,-2.0261,-2.037,-2.0431,-2.0404,-2.0397,-2.0438,-2.0451,-2.0465,-2.0512,-2.0539,-2.0539,-2.0539,-2.0539,-2.0539,-2.0539,-2.0539,-2.0539,-2.0539,-2.0539,-2.0539,-2.0539,-2.0539,-2.0553,-2.0614,-2.0675,-2.0566,-2.0539,-2.0539,-2.0539,-2.0539,-2.0539,-2.0539,-2.0539,-2.0539,-2.0512,-2.0499,-2.0458,-2.0438,-2.0383,-2.0336,-2.0336,-2.0329,-2.0329,-2.0329,-2.0329,-2.0329,-2.0322,-2.0302,-2.0261,-2.0254,-2.0187,-2.0126,-2.0112,-2.0085,-2.0051,-1.9976,-1.9881,-1.9773,-1.9719,-1.9732,-1.9752,-1.9691,-1.9678,-1.9671,-1.9664,-1.9685,-1.9725,-1.9773,-1.982,-1.9868,-1.9895,-1.9895,-1.9929,-1.999,-1.9997,-1.9997,-2.001,-2.0037,-1.9895,-1.9813,-1.9963,-2.0085,-1.961,-1.9657,-1.9664,-1.9664,-1.9664,-1.9664,-1.9664,-1.9664,-1.9664,-1.9664,-1.9664,-1.9664,-1.9664,-1.9685,-1.9807,-1.9956,-2.0105,-2.0254,-2.0397,-2.0505,-2.0539,-2.0539,-2.0539,-2.0539,-2.0539,-2.0539,-2.0526,-2.0499,-2.041,-2.0261,-2.0119,-2.0207,-2.0187,-2.0329,-2.0465,-2.0512,-2.0519,-2.0519,-2.0532,-2.0539,-2.0539,-2.0539,-2.0539,-2.0539,-2.0539,-2.0539,-2.0539,-2.0539,-2.0539,-2.0539,-2.0539,-2.0539,-2.0539,-2.0539,-2.0539,-2.0553,-2.0594,-2.0607,-2.0553,-2.0539,-2.0539,-2.0539,-2.0539,-2.0539,-2.0539,-2.0539,-2.0539,-2.0532,-2.0532,-2.0532,-2.0532,-2.0532,-2.0532,-2.0526,-2.0526,-2.0526,-2.0526,-2.0526,-2.0519,-2.0512,-2.0478,-2.0431,-2.0376,-2.0302,-2.0282,-2.0315,-2.0309,-2.0261,-2.0166,-2.0044,-1.9908,-1.9807,-1.9834,-1.9868,-1.9793,-1.9746,-1.9759,-1.9773,-1.9773,-1.9813,-1.9875,-1.9956,-2.0031,-2.0078,-2.0112,-2.0153,-2.02,-2.018,-2.018,-2.0193,-2.0234,-2.0187,-2.0146,-2.02,-2.0315,-1.9501,-1.9637,-1.9657,-1.9664,-1.9664,-1.9664,-1.9664,-1.9664,-1.9671,-1.9664,-1.9664,-1.9664,-1.9664,-1.9698,-1.982,-1.9963,-2.0119,-2.0268,-2.0404,-2.0532,-2.0539,-2.0539,-2.0539,-2.0539,-2.0539,-2.0539,-2.0512,-2.0465,-2.0302,-2.0187,-2.0166,-2.0309,-2.0309,-2.039,-2.0512,-2.0539,-2.0539,-2.0539,-2.0539,-2.0539,-2.0539,-2.0539,-2.0539,-2.0539,-2.0539,-2.0539,-2.0539,-2.0539,-2.0539,-2.0539,-2.0539,-2.0539,-2.0539,-2.0539,-2.0539,-2.0546,-2.0566,-2.056,-2.0553,-2.0539,-2.0539,-2.0539,-2.0539,-2.0539,-2.0539,-2.0539,-2.0539,-2.0539,-2.0539,-2.0539,-2.0539,-2.0539,-2.0539,-2.0539,-2.0539,-2.0539,-2.0539,-2.0539,-2.0539,-2.0532,-2.0519,-2.0485,-2.0478,-2.041,-2.0397,-2.0478,-2.0478,-2.0431,-2.0363,-2.0227,-2.0085,-1.9936,-1.9942,-1.9969,-1.9936,-1.9895,-1.9895,-1.9895,-1.9895,-1.9942,-2.0031,-2.0112,-2.02,-2.0288,-2.0383,-2.0376,-2.0397,-2.0431,-2.0451,-2.0417,-2.0458,-2.0499,-2.0519,-2.0539,-2.058,-1.9345,-1.9743,-1.9617,-1.9664,-1.9664,-1.9664,-1.9664,-1.9664,-1.9698,-1.9691,-1.9671,-1.9664,-1.9685,-1.9725,-1.9813,-1.9963,-2.0153,-2.0254,-2.0404,-2.0505,-2.0546,-2.0539,-2.0539,-2.0539,-2.0539,-2.0539,-2.0505,-2.041,-2.0241,-2.0146,-2.0126,-2.018,-2.0268,-2.0424,-2.0532,-2.0539,-2.0539,-2.0539,-2.0539,-2.0539,-2.0539,-2.0539,-2.0539,-2.0539,-2.0539,-2.0539,-2.0539,-2.0539,-2.0539,-2.0539,-2.0539,-2.0539,-2.0539,-2.0539,-2.0539,-2.0539,-2.0539,-2.0539,-2.0539,-2.0539,-2.0539,-2.0539,-2.0539,-2.0539,-2.0539,-2.0539,-2.0539,-2.0539,-2.0539,-2.0539,-2.0539,-2.0539,-2.0539,-2.0539,-2.0539,-2.0539,-2.0539,-2.0539,-2.0539,-2.0539,-2.0539,-2.0539,-2.0539,-2.0539,-2.0539,-2.0532,-2.0532,-2.0505,-2.0499,-2.0404,-2.0275,-2.0146,-2.0078,-2.0071,-2.0051,-2.0044,-2.0044,-2.0051,-2.0051,-2.0112,-2.0187,-2.0282,-2.0383,-2.056,-2.0668,-2.0641,-2.0682,-2.0811,-2.0811,-2.0695,-2.0695,-2.0743,-2.0878,-2.0933,-2.0939,-1.9196,-1.9339,-1.9495,-1.9617,-1.9685,-1.9691,-1.9698,-1.9725,-1.9746,-1.8478,-1.7441,-1.869,-1.9705,-1.9732,-1.9793,-1.9221,-1.9398,-2.0234,-2.0404,-2.0519,-2.056,-2.0539,-2.0539,-2.0546,-2.0539,-2.0532,-2.0458,-2.0349,-2.0207,-2.0207,-2.022,-2.022,-2.0343,-2.0458,-2.0539,-2.0539,-2.0539,-2.0539,-2.0539,-2.0539,-2.0539,-2.0539,-2.0539,-2.0539,-2.0539,-2.0539,-2.0539,-2.0539,-2.0539,-2.0539,-2.0539,-2.0539,-2.0539,-2.0539,-2.0539,-2.0539,-2.0539,-2.0539,-2.0539,-2.0539,-2.0539,-2.0539,-2.0539,-2.0539,-2.0539,-2.0539,-2.0539,-2.0539,-2.0539,-2.0539,-2.0539,-2.0539,-2.0539,-2.0539,-2.0539,-2.0539,-2.0539,-2.0539,-2.0539,-2.0539,-2.0539,-2.0539,-2.0539,-2.0539,-2.0539,-2.0539,-2.0539,-2.0539,-2.0539,-2.0539,-2.0424,-2.0343,-2.0268,-2.0214,-2.0207,-2.02,-2.02,-2.02,-2.02,-2.0275,-2.0349,-2.0451,-2.0573,-2.0716,-2.0824,-2.0872,-2.0939,-2.1034,-2.1014,-2.0885,-2.0926,-2.0994,-2.1136,-2.1238,-2.1197,-1.8818,-1.8972,-1.9373,-1.9556,-1.9461,-1.8485,-1.8247,-1.8284,-1.9303,-1.7018,-1.3997,-1.7739,-1.9495,-1.9739,-1.8498,-1.7965,-1.7096,-1.6625,-1.7797,-2.0298,-2.0587,-2.058,-2.0566,-2.056,-2.0553,-2.0499,-2.0417,-2.0376,-2.0302,-2.0302,-2.0309,-2.0356,-2.0444,-2.0539,-2.0539,-2.0539,-2.0539,-2.0539,-2.0539,-2.0539,-2.0539,-2.0539,-2.0539,-2.0539,-2.0539,-2.0539,-2.0539,-2.0539,-2.0539,-2.0539,-2.0539,-2.0539,-2.0539,-2.0539,-2.0539,-2.0539,-2.0539,-2.0539,-2.0539,-2.0539,-2.0539,-2.0539,-2.0539,-2.0539,-2.0539,-2.0539,-2.0539,-2.0539,-2.0539,-2.0539,-2.0539,-2.0539,-2.0539,-2.0539,-2.0539,-2.0539,-2.0539,-2.0539,-2.0539,-2.0539,-2.0539,-2.0539,-2.0539,-2.0539,-2.0539,-2.0539,-2.0539,-2.0539,-2.0539,-2.0539,-2.0485,-2.0458,-2.0431,-2.039,-2.0363,-2.0343,-2.0343,-2.0356,-2.0363,-2.0438,-2.0492,-2.0526,-2.0627,-2.0817,-2.0919,-2.0973,-2.1062,-2.115,-2.1102,-2.1075,-2.1136,-2.1197,-2.1224,-2.1313,-2.134,-1.8959,-1.9217,-1.9406,-1.9576,-1.8723,-1.4266,-1.1796,-1.2552,-1.7076,-1.6311,-1.3296,-1.6802,-1.9582,-1.9283,-1.3532,-1.0415,-0.7785,-0.9803,-1.5771,-1.9848,-1.8814,-1.9586,-2.0345,-2.0057,-2.0319,-2.0526,-2.0451,-2.0363,-2.0444,-2.0397,-2.0343,-2.0376,-2.0478,-2.0539,-2.0539,-2.0539,-2.0539,-2.0539,-2.0539,-2.0539,-2.0539,-2.0539,-2.0539,-2.0539,-2.0539,-2.0539,-2.0539,-2.0539,-2.0539,-2.0539,-2.0539,-2.0539,-2.0539,-2.0539,-2.0539,-2.0539,-2.0539,-2.0539,-2.0539,-2.0539,-2.0539,-2.0539,-2.0539,-2.0539,-2.0539,-2.0539,-2.0539,-2.0539,-2.0539,-2.0539,-2.0539,-2.0539,-2.0539,-2.0539,-2.0539,-2.0539,-2.0539,-2.0539,-2.0539,-2.0539,-2.0539,-2.0539,-2.0539,-2.0539,-2.0539,-2.0539,-2.0539,-2.0539,-2.0539,-2.0539,-2.0539,-2.0539,-2.0539,-2.0539,-2.0499,-2.0471,-2.0471,-2.0485,-2.0505,-2.0553,-2.056,-2.0532,-2.0655,-2.0899,-2.1001,-2.1048,-2.1143,-2.1265,-2.1299,-2.1292,-2.1346,-2.1387,-2.1387,-2.1374,-2.1387]}]]